<?xml version='1.0' encoding='UTF-8'?>
<gpx version="1.1" creator="https://www.komoot.de" xmlns="http://www.topografix.com/GPX/1/1" xmlns:xsi="http://www.w3.org/2001/XMLSchema-instance" xsi:schemaLocation="http://www.topografix.com/GPX/1/1 http://www.topografix.com/GPX/1/1/gpx.xsd">
  <metadata>
    <name>75_870SegetenWehr</name>
    <author>
      <link href="https://www.komoot.de">
        <text>komoot</text>
        <type>text/html</type>
      </link>
    </author>
  </metadata>
  <trk>
    <name>75_870SegetenWehr</name>
    <trkseg>
      <trkpt lat="47.541494" lon="7.870726">
        <ele>341.265933</ele>
        <time>2021-11-21T08:20:36.755Z</time>
      </trkpt>
      <trkpt lat="47.541576" lon="7.870664">
        <ele>341.265933</ele>
        <time>2021-11-21T08:20:38.846Z</time>
      </trkpt>
      <trkpt lat="47.541796" lon="7.871042">
        <ele>341.265933</ele>
        <time>2021-11-21T08:20:46.120Z</time>
      </trkpt>
      <trkpt lat="47.541953" lon="7.871286">
        <ele>341.265933</ele>
        <time>2021-11-21T08:20:51.034Z</time>
      </trkpt>
      <trkpt lat="47.542039" lon="7.871556">
        <ele>341.265933</ele>
        <time>2021-11-21T08:20:55.497Z</time>
      </trkpt>
      <trkpt lat="47.542067" lon="7.871664">
        <ele>341.417127</ele>
        <time>2021-11-21T08:20:57.187Z</time>
      </trkpt>
      <trkpt lat="47.542091" lon="7.871721">
        <ele>341.603249</ele>
        <time>2021-11-21T08:20:57.806Z</time>
      </trkpt>
      <trkpt lat="47.542218" lon="7.871866">
        <ele>342.261327</ele>
        <time>2021-11-21T08:21:03.036Z</time>
      </trkpt>
      <trkpt lat="47.542394" lon="7.872341">
        <ele>343.762532</ele>
        <time>2021-11-21T08:21:13.260Z</time>
      </trkpt>
      <trkpt lat="47.542436" lon="7.872494">
        <ele>344.220129</ele>
        <time>2021-11-21T08:21:16.651Z</time>
      </trkpt>
      <trkpt lat="47.542537" lon="7.872430">
        <ele>344.670983</ele>
        <time>2021-11-21T08:21:18.763Z</time>
      </trkpt>
      <trkpt lat="47.542714" lon="7.872334">
        <ele>345.444584</ele>
        <time>2021-11-21T08:21:25.720Z</time>
      </trkpt>
      <trkpt lat="47.542814" lon="7.872280">
        <ele>345.881420</ele>
        <time>2021-11-21T08:21:28.734Z</time>
      </trkpt>
      <trkpt lat="47.542919" lon="7.872226">
        <ele>346.337591</ele>
        <time>2021-11-21T08:21:32.572Z</time>
      </trkpt>
      <trkpt lat="47.543013" lon="7.872182">
        <ele>346.742186</ele>
        <time>2021-11-21T08:21:36.079Z</time>
      </trkpt>
      <trkpt lat="47.543233" lon="7.872082">
        <ele>347.686656</ele>
        <time>2021-11-21T08:21:43.318Z</time>
      </trkpt>
      <trkpt lat="47.543251" lon="7.872152">
        <ele>347.894183</ele>
        <time>2021-11-21T08:21:46.691Z</time>
      </trkpt>
      <trkpt lat="47.543332" lon="7.872237">
        <ele>348.301579</ele>
        <time>2021-11-21T08:21:49.996Z</time>
      </trkpt>
      <trkpt lat="47.544390" lon="7.872423">
        <ele>355.042357</ele>
        <time>2021-11-21T08:22:31.716Z</time>
      </trkpt>
      <trkpt lat="47.544883" lon="7.872555">
        <ele>358.307810</ele>
        <time>2021-11-21T08:22:54.124Z</time>
      </trkpt>
      <trkpt lat="47.545131" lon="7.872664">
        <ele>359.993922</ele>
        <time>2021-11-21T08:23:05.128Z</time>
      </trkpt>
      <trkpt lat="47.545375" lon="7.872836">
        <ele>361.738856</ele>
        <time>2021-11-21T08:23:16.069Z</time>
      </trkpt>
      <trkpt lat="47.545478" lon="7.872968">
        <ele>362.616077</ele>
        <time>2021-11-21T08:23:22.877Z</time>
      </trkpt>
      <trkpt lat="47.545515" lon="7.873015">
        <ele>362.930010</ele>
        <time>2021-11-21T08:23:24.833Z</time>
      </trkpt>
      <trkpt lat="47.545746" lon="7.873302">
        <ele>364.871883</ele>
        <time>2021-11-21T08:23:38.033Z</time>
      </trkpt>
      <trkpt lat="47.545934" lon="7.873549">
        <ele>366.490401</ele>
        <time>2021-11-21T08:23:48.133Z</time>
      </trkpt>
      <trkpt lat="47.546077" lon="7.873763">
        <ele>367.799622</ele>
        <time>2021-11-21T08:23:57.330Z</time>
      </trkpt>
      <trkpt lat="47.546135" lon="7.873859">
        <ele>368.359777</ele>
        <time>2021-11-21T08:24:00.569Z</time>
      </trkpt>
      <trkpt lat="47.546309" lon="7.874154">
        <ele>370.063037</ele>
        <time>2021-11-21T08:24:11.683Z</time>
      </trkpt>
      <trkpt lat="47.547126" lon="7.875801">
        <ele>375.771119</ele>
        <time>2021-11-21T08:24:57.444Z</time>
      </trkpt>
      <trkpt lat="47.547574" lon="7.876801">
        <ele>378.161916</ele>
        <time>2021-11-21T08:25:16.440Z</time>
      </trkpt>
      <trkpt lat="47.547992" lon="7.877974">
        <ele>377.106993</ele>
        <time>2021-11-21T08:25:29.241Z</time>
      </trkpt>
      <trkpt lat="47.548234" lon="7.878638">
        <ele>376.506849</ele>
        <time>2021-11-21T08:25:34.553Z</time>
      </trkpt>
      <trkpt lat="47.548422" lon="7.878959">
        <ele>376.168852</ele>
        <time>2021-11-21T08:25:37.396Z</time>
      </trkpt>
      <trkpt lat="47.548718" lon="7.879258">
        <ele>374.684810</ele>
        <time>2021-11-21T08:25:40.934Z</time>
      </trkpt>
      <trkpt lat="47.549140" lon="7.879391">
        <ele>372.860755</ele>
        <time>2021-11-21T08:25:45.121Z</time>
      </trkpt>
      <trkpt lat="47.549318" lon="7.879398">
        <ele>372.107940</ele>
        <time>2021-11-21T08:25:46.748Z</time>
      </trkpt>
      <trkpt lat="47.549327" lon="7.879547">
        <ele>371.681057</ele>
        <time>2021-11-21T08:25:47.734Z</time>
      </trkpt>
      <trkpt lat="47.549726" lon="7.880786">
        <ele>367.889819</ele>
        <time>2021-11-21T08:25:56.669Z</time>
      </trkpt>
      <trkpt lat="47.549927" lon="7.881490">
        <ele>366.057287</ele>
        <time>2021-11-21T08:26:01.701Z</time>
      </trkpt>
      <trkpt lat="47.550234" lon="7.883221">
        <ele>361.670804</ele>
        <time>2021-11-21T08:26:14.101Z</time>
      </trkpt>
      <trkpt lat="47.550332" lon="7.884727">
        <ele>357.169489</ele>
        <time>2021-11-21T08:26:23.946Z</time>
      </trkpt>
      <trkpt lat="47.550391" lon="7.885109">
        <ele>356.003616</ele>
        <time>2021-11-21T08:26:26.478Z</time>
      </trkpt>
      <trkpt lat="47.550548" lon="7.885799">
        <ele>353.717043</ele>
        <time>2021-11-21T08:26:31.083Z</time>
      </trkpt>
      <trkpt lat="47.550677" lon="7.886476">
        <ele>350.992681</ele>
        <time>2021-11-21T08:26:35.513Z</time>
      </trkpt>
      <trkpt lat="47.550758" lon="7.887295">
        <ele>347.786999</ele>
        <time>2021-11-21T08:26:40.655Z</time>
      </trkpt>
      <trkpt lat="47.550789" lon="7.887816">
        <ele>345.761455</ele>
        <time>2021-11-21T08:26:43.887Z</time>
      </trkpt>
      <trkpt lat="47.550831" lon="7.888611">
        <ele>342.565368</ele>
        <time>2021-11-21T08:26:48.843Z</time>
      </trkpt>
      <trkpt lat="47.550833" lon="7.889069">
        <ele>340.637622</ele>
        <time>2021-11-21T08:26:51.653Z</time>
      </trkpt>
      <trkpt lat="47.550915" lon="7.890600">
        <ele>334.173447</ele>
        <time>2021-11-21T08:27:01.046Z</time>
      </trkpt>
      <trkpt lat="47.550904" lon="7.891725">
        <ele>330.659758</ele>
        <time>2021-11-21T08:27:08.050Z</time>
      </trkpt>
      <trkpt lat="47.550892" lon="7.893176">
        <ele>326.840787</ele>
        <time>2021-11-21T08:27:17.662Z</time>
      </trkpt>
      <trkpt lat="47.550908" lon="7.894308">
        <ele>325.106810</ele>
        <time>2021-11-21T08:27:26.867Z</time>
      </trkpt>
      <trkpt lat="47.550878" lon="7.895158">
        <ele>324.396558</ele>
        <time>2021-11-21T08:27:34.052Z</time>
      </trkpt>
      <trkpt lat="47.550838" lon="7.895509">
        <ele>324.099520</ele>
        <time>2021-11-21T08:27:37.216Z</time>
      </trkpt>
      <trkpt lat="47.550660" lon="7.896255">
        <ele>323.410365</ele>
        <time>2021-11-21T08:27:43.704Z</time>
      </trkpt>
      <trkpt lat="47.550639" lon="7.896345">
        <ele>323.227549</ele>
        <time>2021-11-21T08:27:44.891Z</time>
      </trkpt>
      <trkpt lat="47.550648" lon="7.896481">
        <ele>322.965203</ele>
        <time>2021-11-21T08:27:45.847Z</time>
      </trkpt>
      <trkpt lat="47.550819" lon="7.898109">
        <ele>319.802147</ele>
        <time>2021-11-21T08:27:57.595Z</time>
      </trkpt>
      <trkpt lat="47.550801" lon="7.900244">
        <ele>314.392136</ele>
        <time>2021-11-21T08:28:11.432Z</time>
      </trkpt>
      <trkpt lat="47.550769" lon="7.901362">
        <ele>311.178071</ele>
        <time>2021-11-21T08:28:18.704Z</time>
      </trkpt>
      <trkpt lat="47.550757" lon="7.901591">
        <ele>310.542609</ele>
        <time>2021-11-21T08:28:20.840Z</time>
      </trkpt>
      <trkpt lat="47.550688" lon="7.902451">
        <ele>308.404439</ele>
        <time>2021-11-21T08:28:29.274Z</time>
      </trkpt>
      <trkpt lat="47.550498" lon="7.903445">
        <ele>305.853867</ele>
        <time>2021-11-21T08:28:39.524Z</time>
      </trkpt>
      <trkpt lat="47.550302" lon="7.904164">
        <ele>303.940914</ele>
        <time>2021-11-21T08:28:46.784Z</time>
      </trkpt>
      <trkpt lat="47.550025" lon="7.904774">
        <ele>302.141420</ele>
        <time>2021-11-21T08:28:53.709Z</time>
      </trkpt>
      <trkpt lat="47.549868" lon="7.905010">
        <ele>301.330366</ele>
        <time>2021-11-21T08:28:56.840Z</time>
      </trkpt>
      <trkpt lat="47.549867" lon="7.905155">
        <ele>300.975444</ele>
        <time>2021-11-21T08:28:58.237Z</time>
      </trkpt>
      <trkpt lat="47.550067" lon="7.905245">
        <ele>300.217455</ele>
        <time>2021-11-21T08:29:01.162Z</time>
      </trkpt>
      <trkpt lat="47.550283" lon="7.905413">
        <ele>299.332789</ele>
        <time>2021-11-21T08:29:04.612Z</time>
      </trkpt>
      <trkpt lat="47.550497" lon="7.905558">
        <ele>298.479445</ele>
        <time>2021-11-21T08:29:07.971Z</time>
      </trkpt>
      <trkpt lat="47.549539" lon="7.908625">
        <ele>293.099595</ele>
        <time>2021-11-21T08:29:32.428Z</time>
      </trkpt>
      <trkpt lat="47.549520" lon="7.908678">
        <ele>293.044365</ele>
        <time>2021-11-21T08:29:32.922Z</time>
      </trkpt>
      <trkpt lat="47.549283" lon="7.909463">
        <ele>292.252922</ele>
        <time>2021-11-21T08:29:39.926Z</time>
      </trkpt>
      <trkpt lat="47.549250" lon="7.909572">
        <ele>292.142976</ele>
        <time>2021-11-21T08:29:40.928Z</time>
      </trkpt>
      <trkpt lat="47.549195" lon="7.909756">
        <ele>291.957771</ele>
        <time>2021-11-21T08:29:42.553Z</time>
      </trkpt>
      <trkpt lat="47.549102" lon="7.910058">
        <ele>291.652268</ele>
        <time>2021-11-21T08:29:45.274Z</time>
      </trkpt>
      <trkpt lat="47.549012" lon="7.910340">
        <ele>291.365181</ele>
        <time>2021-11-21T08:29:47.771Z</time>
      </trkpt>
      <trkpt lat="47.548412" lon="7.912168">
        <ele>289.816591</ele>
        <time>2021-11-21T08:30:04.091Z</time>
      </trkpt>
      <trkpt lat="47.548027" lon="7.913334">
        <ele>289.009001</ele>
        <time>2021-11-21T08:30:14.852Z</time>
      </trkpt>
      <trkpt lat="47.547994" lon="7.913433">
        <ele>288.988477</ele>
        <time>2021-11-21T08:30:15.773Z</time>
      </trkpt>
      <trkpt lat="47.547423" lon="7.915080">
        <ele>288.644308</ele>
        <time>2021-11-21T08:30:33.249Z</time>
      </trkpt>
      <trkpt lat="47.547113" lon="7.915971">
        <ele>288.723021</ele>
        <time>2021-11-21T08:30:43.697Z</time>
      </trkpt>
      <trkpt lat="47.547091" lon="7.916039">
        <ele>288.746276</ele>
        <time>2021-11-21T08:30:44.721Z</time>
      </trkpt>
      <trkpt lat="47.547032" lon="7.916218">
        <ele>288.807708</ele>
        <time>2021-11-21T08:30:46.924Z</time>
      </trkpt>
      <trkpt lat="47.546821" lon="7.916867">
        <ele>289.029861</ele>
        <time>2021-11-21T08:30:55.033Z</time>
      </trkpt>
      <trkpt lat="47.546262" lon="7.919081">
        <ele>289.692902</ele>
        <time>2021-11-21T08:31:22.544Z</time>
      </trkpt>
      <trkpt lat="47.546128" lon="7.919617">
        <ele>289.838538</ele>
        <time>2021-11-21T08:31:28.013Z</time>
      </trkpt>
      <trkpt lat="47.545973" lon="7.920313">
        <ele>290.025277</ele>
        <time>2021-11-21T08:31:36.476Z</time>
      </trkpt>
      <trkpt lat="47.545913" lon="7.920765">
        <ele>290.365171</ele>
        <time>2021-11-21T08:31:40.650Z</time>
      </trkpt>
      <trkpt lat="47.545881" lon="7.921096">
        <ele>290.675317</ele>
        <time>2021-11-21T08:31:44.666Z</time>
      </trkpt>
      <trkpt lat="47.545810" lon="7.921755">
        <ele>291.294299</ele>
        <time>2021-11-21T08:31:53.575Z</time>
      </trkpt>
      <trkpt lat="47.545778" lon="7.921947">
        <ele>291.477733</ele>
        <time>2021-11-21T08:31:57.184Z</time>
      </trkpt>
      <trkpt lat="47.545714" lon="7.922249">
        <ele>291.771330</ele>
        <time>2021-11-21T08:32:00.382Z</time>
      </trkpt>
      <trkpt lat="47.545699" lon="7.922325">
        <ele>291.844774</ele>
        <time>2021-11-21T08:32:01.580Z</time>
      </trkpt>
      <trkpt lat="47.545690" lon="7.922369">
        <ele>291.887418</ele>
        <time>2021-11-21T08:32:03.678Z</time>
      </trkpt>
      <trkpt lat="47.545641" lon="7.922610">
        <ele>292.120875</ele>
        <time>2021-11-21T08:32:06.032Z</time>
      </trkpt>
      <trkpt lat="47.545587" lon="7.922895">
        <ele>292.395440</ele>
        <time>2021-11-21T08:32:11.828Z</time>
      </trkpt>
      <trkpt lat="47.545553" lon="7.923142">
        <ele>292.791701</ele>
        <time>2021-11-21T08:32:14.475Z</time>
      </trkpt>
      <trkpt lat="47.545536" lon="7.923407">
        <ele>293.442399</ele>
        <time>2021-11-21T08:32:20.364Z</time>
      </trkpt>
      <trkpt lat="47.545521" lon="7.923709">
        <ele>294.182619</ele>
        <time>2021-11-21T08:32:24.518Z</time>
      </trkpt>
      <trkpt lat="47.545481" lon="7.924396">
        <ele>295.868193</ele>
        <time>2021-11-21T08:32:39.121Z</time>
      </trkpt>
      <trkpt lat="47.545466" lon="7.924880">
        <ele>297.052555</ele>
        <time>2021-11-21T08:32:50.428Z</time>
      </trkpt>
      <trkpt lat="47.545446" lon="7.925350">
        <ele>298.203729</ele>
        <time>2021-11-21T08:33:00.803Z</time>
      </trkpt>
      <trkpt lat="47.545417" lon="7.925848">
        <ele>299.267306</ele>
        <time>2021-11-21T08:33:11.282Z</time>
      </trkpt>
      <trkpt lat="47.545409" lon="7.926773">
        <ele>300.591835</ele>
        <time>2021-11-21T08:33:28.483Z</time>
      </trkpt>
      <trkpt lat="47.545407" lon="7.927001">
        <ele>300.918314</ele>
        <time>2021-11-21T08:33:32.292Z</time>
      </trkpt>
      <trkpt lat="47.545406" lon="7.927306">
        <ele>301.355020</ele>
        <time>2021-11-21T08:33:36.896Z</time>
      </trkpt>
      <trkpt lat="47.545421" lon="7.927686">
        <ele>301.900035</ele>
        <time>2021-11-21T08:33:42.432Z</time>
      </trkpt>
      <trkpt lat="47.545475" lon="7.928419">
        <ele>302.790096</ele>
        <time>2021-11-21T08:33:51.749Z</time>
      </trkpt>
      <trkpt lat="47.545563" lon="7.929641">
        <ele>301.545229</ele>
        <time>2021-11-21T08:34:01.629Z</time>
      </trkpt>
      <trkpt lat="47.545661" lon="7.930955">
        <ele>300.206096</ele>
        <time>2021-11-21T08:34:11.025Z</time>
      </trkpt>
      <trkpt lat="47.545696" lon="7.931497">
        <ele>299.775318</ele>
        <time>2021-11-21T08:34:14.993Z</time>
      </trkpt>
      <trkpt lat="47.545721" lon="7.931992">
        <ele>299.392734</ele>
        <time>2021-11-21T08:34:18.786Z</time>
      </trkpt>
      <trkpt lat="47.545724" lon="7.932758">
        <ele>298.802336</ele>
        <time>2021-11-21T08:34:24.995Z</time>
      </trkpt>
      <trkpt lat="47.545702" lon="7.933290">
        <ele>298.391532</ele>
        <time>2021-11-21T08:34:29.638Z</time>
      </trkpt>
      <trkpt lat="47.545674" lon="7.933625">
        <ele>298.131361</ele>
        <time>2021-11-21T08:34:32.839Z</time>
      </trkpt>
      <trkpt lat="47.545457" lon="7.935110">
        <ele>299.104865</ele>
        <time>2021-11-21T08:34:50.973Z</time>
      </trkpt>
      <trkpt lat="47.545074" lon="7.936484">
        <ele>300.263041</ele>
        <time>2021-11-21T08:35:12.501Z</time>
      </trkpt>
      <trkpt lat="47.544903" lon="7.936917">
        <ele>300.858953</ele>
        <time>2021-11-21T08:35:19.817Z</time>
      </trkpt>
      <trkpt lat="47.544705" lon="7.937395">
        <ele>301.525147</ele>
        <time>2021-11-21T08:35:28.001Z</time>
      </trkpt>
      <trkpt lat="47.544472" lon="7.937932">
        <ele>302.283457</ele>
        <time>2021-11-21T08:35:37.408Z</time>
      </trkpt>
      <trkpt lat="47.543826" lon="7.939433">
        <ele>304.331836</ele>
        <time>2021-11-21T08:36:04.290Z</time>
      </trkpt>
      <trkpt lat="47.543435" lon="7.940670">
        <ele>305.873953</ele>
        <time>2021-11-21T08:36:24.250Z</time>
      </trkpt>
      <trkpt lat="47.543161" lon="7.942213">
        <ele>306.498795</ele>
        <time>2021-11-21T08:36:45.100Z</time>
      </trkpt>
      <trkpt lat="47.543007" lon="7.943867">
        <ele>306.347580</ele>
        <time>2021-11-21T08:37:00.644Z</time>
      </trkpt>
      <trkpt lat="47.542913" lon="7.945267">
        <ele>304.613254</ele>
        <time>2021-11-21T08:37:11.409Z</time>
      </trkpt>
      <trkpt lat="47.542872" lon="7.945781">
        <ele>303.975226</ele>
        <time>2021-11-21T08:37:15.004Z</time>
      </trkpt>
      <trkpt lat="47.542875" lon="7.946089">
        <ele>303.595508</ele>
        <time>2021-11-21T08:37:17.131Z</time>
      </trkpt>
      <trkpt lat="47.542902" lon="7.946514">
        <ele>302.930884</ele>
        <time>2021-11-21T08:37:19.999Z</time>
      </trkpt>
      <trkpt lat="47.542943" lon="7.946806">
        <ele>302.465269</ele>
        <time>2021-11-21T08:37:22.021Z</time>
      </trkpt>
      <trkpt lat="47.542974" lon="7.946965">
        <ele>302.206900</ele>
        <time>2021-11-21T08:37:23.260Z</time>
      </trkpt>
      <trkpt lat="47.542979" lon="7.946989">
        <ele>302.167688</ele>
        <time>2021-11-21T08:37:23.416Z</time>
      </trkpt>
      <trkpt lat="47.543007" lon="7.947104">
        <ele>301.976835</ele>
        <time>2021-11-21T08:37:24.283Z</time>
      </trkpt>
      <trkpt lat="47.543087" lon="7.947317">
        <ele>301.596304</ele>
        <time>2021-11-21T08:37:25.982Z</time>
      </trkpt>
      <trkpt lat="47.543191" lon="7.947615">
        <ele>301.072585</ele>
        <time>2021-11-21T08:37:28.490Z</time>
      </trkpt>
      <trkpt lat="47.543191" lon="7.947615">
        <ele>301.072585</ele>
        <time>2021-11-21T08:37:28.495Z</time>
      </trkpt>
      <trkpt lat="47.543242" lon="7.947745">
        <ele>300.837851</ele>
        <time>2021-11-21T08:37:29.625Z</time>
      </trkpt>
      <trkpt lat="47.543273" lon="7.947816">
        <ele>300.705845</ele>
        <time>2021-11-21T08:37:30.260Z</time>
      </trkpt>
      <trkpt lat="47.543358" lon="7.947967">
        <ele>300.398903</ele>
        <time>2021-11-21T08:37:31.745Z</time>
      </trkpt>
      <trkpt lat="47.543455" lon="7.948127">
        <ele>300.063171</ele>
        <time>2021-11-21T08:37:33.355Z</time>
      </trkpt>
      <trkpt lat="47.543532" lon="7.948214">
        <ele>299.839211</ele>
        <time>2021-11-21T08:37:34.450Z</time>
      </trkpt>
      <trkpt lat="47.543579" lon="7.948287">
        <ele>299.681723</ele>
        <time>2021-11-21T08:37:35.240Z</time>
      </trkpt>
      <trkpt lat="47.543760" lon="7.948548">
        <ele>299.434740</ele>
        <time>2021-11-21T08:37:38.089Z</time>
      </trkpt>
      <trkpt lat="47.543864" lon="7.948694">
        <ele>299.440430</ele>
        <time>2021-11-21T08:37:39.832Z</time>
      </trkpt>
      <trkpt lat="47.544239" lon="7.949202">
        <ele>299.460608</ele>
        <time>2021-11-21T08:37:47.027Z</time>
      </trkpt>
      <trkpt lat="47.544521" lon="7.949558">
        <ele>299.475320</ele>
        <time>2021-11-21T08:37:53.201Z</time>
      </trkpt>
      <trkpt lat="47.544901" lon="7.950044">
        <ele>299.495254</ele>
        <time>2021-11-21T08:38:02.598Z</time>
      </trkpt>
      <trkpt lat="47.545166" lon="7.950366">
        <ele>299.530612</ele>
        <time>2021-11-21T08:38:09.148Z</time>
      </trkpt>
      <trkpt lat="47.545434" lon="7.950668">
        <ele>299.578630</ele>
        <time>2021-11-21T08:38:14.938Z</time>
      </trkpt>
      <trkpt lat="47.545542" lon="7.950842">
        <ele>299.601383</ele>
        <time>2021-11-21T08:38:17.363Z</time>
      </trkpt>
      <trkpt lat="47.545667" lon="7.950979">
        <ele>299.623556</ele>
        <time>2021-11-21T08:38:19.968Z</time>
      </trkpt>
      <trkpt lat="47.545737" lon="7.951055">
        <ele>299.635932</ele>
        <time>2021-11-21T08:38:21.223Z</time>
      </trkpt>
      <trkpt lat="47.545876" lon="7.951233">
        <ele>299.662132</ele>
        <time>2021-11-21T08:38:23.615Z</time>
      </trkpt>
      <trkpt lat="47.546112" lon="7.951485">
        <ele>299.703617</ele>
        <time>2021-11-21T08:38:28.158Z</time>
      </trkpt>
      <trkpt lat="47.546164" lon="7.951520">
        <ele>299.711762</ele>
        <time>2021-11-21T08:38:28.792Z</time>
      </trkpt>
      <trkpt lat="47.546212" lon="7.951535">
        <ele>299.718758</ele>
        <time>2021-11-21T08:38:29.557Z</time>
      </trkpt>
      <trkpt lat="47.546231" lon="7.951558">
        <ele>299.722257</ele>
        <time>2021-11-21T08:38:30.287Z</time>
      </trkpt>
      <trkpt lat="47.546421" lon="7.951793">
        <ele>299.755175</ele>
        <time>2021-11-21T08:38:33.468Z</time>
      </trkpt>
      <trkpt lat="47.546634" lon="7.952024">
        <ele>299.641204</ele>
        <time>2021-11-21T08:38:37.002Z</time>
      </trkpt>
      <trkpt lat="47.546695" lon="7.952091">
        <ele>299.608418</ele>
        <time>2021-11-21T08:38:37.957Z</time>
      </trkpt>
      <trkpt lat="47.546776" lon="7.952185">
        <ele>299.563994</ele>
        <time>2021-11-21T08:38:39.144Z</time>
      </trkpt>
      <trkpt lat="47.546935" lon="7.952372">
        <ele>299.476344</ele>
        <time>2021-11-21T08:38:42.079Z</time>
      </trkpt>
      <trkpt lat="47.547090" lon="7.952543">
        <ele>299.392905</ele>
        <time>2021-11-21T08:38:44.716Z</time>
      </trkpt>
      <trkpt lat="47.547400" lon="7.952910">
        <ele>299.221578</ele>
        <time>2021-11-21T08:38:50.021Z</time>
      </trkpt>
      <trkpt lat="47.547458" lon="7.952975">
        <ele>299.190178</ele>
        <time>2021-11-21T08:38:50.940Z</time>
      </trkpt>
      <trkpt lat="47.547550" lon="7.953078">
        <ele>299.140391</ele>
        <time>2021-11-21T08:38:52.433Z</time>
      </trkpt>
      <trkpt lat="47.547624" lon="7.953160">
        <ele>299.100493</ele>
        <time>2021-11-21T08:38:53.676Z</time>
      </trkpt>
      <trkpt lat="47.547797" lon="7.953355">
        <ele>299.006639</ele>
        <time>2021-11-21T08:38:56.689Z</time>
      </trkpt>
      <trkpt lat="47.547871" lon="7.953437">
        <ele>298.955676</ele>
        <time>2021-11-21T08:38:57.989Z</time>
      </trkpt>
      <trkpt lat="47.547994" lon="7.953584">
        <ele>298.832127</ele>
        <time>2021-11-21T08:39:00.163Z</time>
      </trkpt>
      <trkpt lat="47.548115" lon="7.953729">
        <ele>298.710459</ele>
        <time>2021-11-21T08:39:02.317Z</time>
      </trkpt>
      <trkpt lat="47.548251" lon="7.953895">
        <ele>298.572698</ele>
        <time>2021-11-21T08:39:04.716Z</time>
      </trkpt>
      <trkpt lat="47.548335" lon="7.953779">
        <ele>298.482923</ele>
        <time>2021-11-21T08:39:06.620Z</time>
      </trkpt>
      <trkpt lat="47.549176" lon="7.953332">
        <ele>297.784402</ele>
        <time>2021-11-21T08:39:22.736Z</time>
      </trkpt>
      <trkpt lat="47.549296" lon="7.953268">
        <ele>297.684693</ele>
        <time>2021-11-21T08:39:24.942Z</time>
      </trkpt>
      <trkpt lat="47.549442" lon="7.953195">
        <ele>297.549973</ele>
        <time>2021-11-21T08:39:27.498Z</time>
      </trkpt>
      <trkpt lat="47.549640" lon="7.953086">
        <ele>297.149243</ele>
        <time>2021-11-21T08:39:31.206Z</time>
      </trkpt>
      <trkpt lat="47.549673" lon="7.953076">
        <ele>297.085341</ele>
        <time>2021-11-21T08:39:31.765Z</time>
      </trkpt>
      <trkpt lat="47.549687" lon="7.953071">
        <ele>297.058020</ele>
        <time>2021-11-21T08:39:31.957Z</time>
      </trkpt>
      <trkpt lat="47.550567" lon="7.953069">
        <ele>295.388518</ele>
        <time>2021-11-21T08:39:46.131Z</time>
      </trkpt>
      <trkpt lat="47.550656" lon="7.953072">
        <ele>295.219627</ele>
        <time>2021-11-21T08:39:47.445Z</time>
      </trkpt>
      <trkpt lat="47.550967" lon="7.953063">
        <ele>294.629498</ele>
        <time>2021-11-21T08:39:52.207Z</time>
      </trkpt>
      <trkpt lat="47.551254" lon="7.952986">
        <ele>294.080774</ele>
        <time>2021-11-21T08:39:56.596Z</time>
      </trkpt>
      <trkpt lat="47.551295" lon="7.952900">
        <ele>293.953212</ele>
        <time>2021-11-21T08:39:57.659Z</time>
      </trkpt>
      <trkpt lat="47.551334" lon="7.952777">
        <ele>293.788570</ele>
        <time>2021-11-21T08:40:00.334Z</time>
      </trkpt>
      <trkpt lat="47.551339" lon="7.952761">
        <ele>293.767208</ele>
        <time>2021-11-21T08:40:00.705Z</time>
      </trkpt>
      <trkpt lat="47.551381" lon="7.952341">
        <ele>293.252815</ele>
        <time>2021-11-21T08:40:09.486Z</time>
      </trkpt>
      <trkpt lat="47.551506" lon="7.950255">
        <ele>290.929631</ele>
        <time>2021-11-21T08:40:55.023Z</time>
      </trkpt>
      <trkpt lat="47.551525" lon="7.950027">
        <ele>290.924968</ele>
        <time>2021-11-21T08:41:00.484Z</time>
      </trkpt>
      <trkpt lat="47.551581" lon="7.949830">
        <ele>290.920630</ele>
        <time>2021-11-21T08:41:05.636Z</time>
      </trkpt>
      <trkpt lat="47.551673" lon="7.949634">
        <ele>290.915785</ele>
        <time>2021-11-21T08:41:11.722Z</time>
      </trkpt>
      <trkpt lat="47.551794" lon="7.949387">
        <ele>290.909591</ele>
        <time>2021-11-21T08:41:19.283Z</time>
      </trkpt>
      <trkpt lat="47.552010" lon="7.949039">
        <ele>290.899995</ele>
        <time>2021-11-21T08:41:31.471Z</time>
      </trkpt>
      <trkpt lat="47.552049" lon="7.948982">
        <ele>290.898348</ele>
        <time>2021-11-21T08:41:33.640Z</time>
      </trkpt>
      <trkpt lat="47.552094" lon="7.948926">
        <ele>290.896581</ele>
        <time>2021-11-21T08:41:36.012Z</time>
      </trkpt>
      <trkpt lat="47.552202" lon="7.949003">
        <ele>290.892977</ele>
        <time>2021-11-21T08:41:40.703Z</time>
      </trkpt>
      <trkpt lat="47.552351" lon="7.949099">
        <ele>290.888091</ele>
        <time>2021-11-21T08:41:47.106Z</time>
      </trkpt>
      <trkpt lat="47.552382" lon="7.949119">
        <ele>290.887074</ele>
        <time>2021-11-21T08:41:48.556Z</time>
      </trkpt>
      <trkpt lat="47.552518" lon="7.949236">
        <ele>290.882345</ele>
        <time>2021-11-21T08:41:54.892Z</time>
      </trkpt>
      <trkpt lat="47.552953" lon="7.948775">
        <ele>290.719217</ele>
        <time>2021-11-21T08:42:15.897Z</time>
      </trkpt>
      <trkpt lat="47.553197" lon="7.948543">
        <ele>290.611335</ele>
        <time>2021-11-21T08:42:26.630Z</time>
      </trkpt>
      <trkpt lat="47.553243" lon="7.948595">
        <ele>290.589805</ele>
        <time>2021-11-21T08:42:28.687Z</time>
      </trkpt>
      <trkpt lat="47.553488" lon="7.949175">
        <ele>290.417966</ele>
        <time>2021-11-21T08:42:44.905Z</time>
      </trkpt>
      <trkpt lat="47.553669" lon="7.949729">
        <ele>290.263391</ele>
        <time>2021-11-21T08:42:58.932Z</time>
      </trkpt>
      <trkpt lat="47.553699" lon="7.949840">
        <ele>290.233362</ele>
        <time>2021-11-21T08:43:01.514Z</time>
      </trkpt>
      <trkpt lat="47.553747" lon="7.950009">
        <ele>290.144528</ele>
        <time>2021-11-21T08:43:05.584Z</time>
      </trkpt>
      <trkpt lat="47.553836" lon="7.950173">
        <ele>289.991535</ele>
        <time>2021-11-21T08:43:10.432Z</time>
      </trkpt>
      <trkpt lat="47.553918" lon="7.950361">
        <ele>289.828799</ele>
        <time>2021-11-21T08:43:15.265Z</time>
      </trkpt>
      <trkpt lat="47.554036" lon="7.950322">
        <ele>289.698564</ele>
        <time>2021-11-21T08:43:19.247Z</time>
      </trkpt>
      <trkpt lat="47.554130" lon="7.950301">
        <ele>289.596162</ele>
        <time>2021-11-21T08:43:22.549Z</time>
      </trkpt>
      <trkpt lat="47.554192" lon="7.950296">
        <ele>289.529276</ele>
        <time>2021-11-21T08:43:24.507Z</time>
      </trkpt>
      <trkpt lat="47.554240" lon="7.950300">
        <ele>289.477488</ele>
        <time>2021-11-21T08:43:26.065Z</time>
      </trkpt>
      <trkpt lat="47.554303" lon="7.950312">
        <ele>289.409066</ele>
        <time>2021-11-21T08:43:26.803Z</time>
      </trkpt>
      <trkpt lat="47.554392" lon="7.950331">
        <ele>289.312204</ele>
        <time>2021-11-21T08:43:27.877Z</time>
      </trkpt>
      <trkpt lat="47.554652" lon="7.950448">
        <ele>289.019498</ele>
        <time>2021-11-21T08:43:31.090Z</time>
      </trkpt>
      <trkpt lat="47.554759" lon="7.950515">
        <ele>288.894367</ele>
        <time>2021-11-21T08:43:32.496Z</time>
      </trkpt>
      <trkpt lat="47.554954" lon="7.950665">
        <ele>288.657692</ele>
        <time>2021-11-21T08:43:35.129Z</time>
      </trkpt>
      <trkpt lat="47.555474" lon="7.951144">
        <ele>288.290970</ele>
        <time>2021-11-21T08:43:43.014Z</time>
      </trkpt>
      <trkpt lat="47.555687" lon="7.951449">
        <ele>288.312601</ele>
        <time>2021-11-21T08:43:47.098Z</time>
      </trkpt>
      <trkpt lat="47.556339" lon="7.952382">
        <ele>288.378792</ele>
        <time>2021-11-21T08:44:01.160Z</time>
      </trkpt>
      <trkpt lat="47.556386" lon="7.952449">
        <ele>288.383555</ele>
        <time>2021-11-21T08:44:02.329Z</time>
      </trkpt>
      <trkpt lat="47.556400" lon="7.952468">
        <ele>288.384941</ele>
        <time>2021-11-21T08:44:02.641Z</time>
      </trkpt>
      <trkpt lat="47.557120" lon="7.953536">
        <ele>288.847019</ele>
        <time>2021-11-21T08:44:20.669Z</time>
      </trkpt>
      <trkpt lat="47.557517" lon="7.954117">
        <ele>289.171825</ele>
        <time>2021-11-21T08:44:30.515Z</time>
      </trkpt>
      <trkpt lat="47.557687" lon="7.954371">
        <ele>289.312356</ele>
        <time>2021-11-21T08:44:34.629Z</time>
      </trkpt>
      <trkpt lat="47.557874" lon="7.954579">
        <ele>289.448465</ele>
        <time>2021-11-21T08:44:38.356Z</time>
      </trkpt>
      <trkpt lat="47.557899" lon="7.954581">
        <ele>289.449531</ele>
        <time>2021-11-21T08:44:38.853Z</time>
      </trkpt>
      <trkpt lat="47.557935" lon="7.954571">
        <ele>289.447448</ele>
        <time>2021-11-21T08:44:39.503Z</time>
      </trkpt>
      <trkpt lat="47.558070" lon="7.954468">
        <ele>289.438812</ele>
        <time>2021-11-21T08:44:41.872Z</time>
      </trkpt>
      <trkpt lat="47.558107" lon="7.954410">
        <ele>289.435749</ele>
        <time>2021-11-21T08:44:42.802Z</time>
      </trkpt>
      <trkpt lat="47.558161" lon="7.954466">
        <ele>289.432001</ele>
        <time>2021-11-21T08:44:43.794Z</time>
      </trkpt>
      <trkpt lat="47.558201" lon="7.954539">
        <ele>289.428392</ele>
        <time>2021-11-21T08:44:44.876Z</time>
      </trkpt>
      <trkpt lat="47.558360" lon="7.955074">
        <ele>289.405957</ele>
        <time>2021-11-21T08:44:51.081Z</time>
      </trkpt>
      <trkpt lat="47.558659" lon="7.956055">
        <ele>289.364646</ele>
        <time>2021-11-21T08:45:01.381Z</time>
      </trkpt>
      <trkpt lat="47.558756" lon="7.956469">
        <ele>289.342634</ele>
        <time>2021-11-21T08:45:05.274Z</time>
      </trkpt>
      <trkpt lat="47.559224" lon="7.958738">
        <ele>288.484874</ele>
        <time>2021-11-21T08:45:25.718Z</time>
      </trkpt>
      <trkpt lat="47.559324" lon="7.959601">
        <ele>288.547261</ele>
        <time>2021-11-21T08:45:34.076Z</time>
      </trkpt>
      <trkpt lat="47.559346" lon="7.959868">
        <ele>288.620188</ele>
        <time>2021-11-21T08:45:37.170Z</time>
      </trkpt>
      <trkpt lat="47.559406" lon="7.960730">
        <ele>288.855133</ele>
        <time>2021-11-21T08:45:46.653Z</time>
      </trkpt>
      <trkpt lat="47.559408" lon="7.961845">
        <ele>289.181615</ele>
        <time>2021-11-21T08:46:00.418Z</time>
      </trkpt>
      <trkpt lat="47.559368" lon="7.962709">
        <ele>289.530101</ele>
        <time>2021-11-21T08:46:11.660Z</time>
      </trkpt>
      <trkpt lat="47.559232" lon="7.963800">
        <ele>289.976542</ele>
        <time>2021-11-21T08:46:24.252Z</time>
      </trkpt>
      <trkpt lat="47.559029" lon="7.964894">
        <ele>290.106902</ele>
        <time>2021-11-21T08:46:35.955Z</time>
      </trkpt>
      <trkpt lat="47.558949" lon="7.965326">
        <ele>290.054830</ele>
        <time>2021-11-21T08:46:40.191Z</time>
      </trkpt>
      <trkpt lat="47.558732" lon="7.966356">
        <ele>289.929403</ele>
        <time>2021-11-21T08:46:50.074Z</time>
      </trkpt>
      <trkpt lat="47.558606" lon="7.966985">
        <ele>289.875774</ele>
        <time>2021-11-21T08:46:56.330Z</time>
      </trkpt>
      <trkpt lat="47.558448" lon="7.967701">
        <ele>289.904411</ele>
        <time>2021-11-21T08:47:03.585Z</time>
      </trkpt>
      <trkpt lat="47.558430" lon="7.967788">
        <ele>289.907871</ele>
        <time>2021-11-21T08:47:04.468Z</time>
      </trkpt>
      <trkpt lat="47.558327" lon="7.968108">
        <ele>289.921348</ele>
        <time>2021-11-21T08:47:08.421Z</time>
      </trkpt>
      <trkpt lat="47.558313" lon="7.968259">
        <ele>289.927143</ele>
        <time>2021-11-21T08:47:09.880Z</time>
      </trkpt>
      <trkpt lat="47.558296" lon="7.968403">
        <ele>289.932700</ele>
        <time>2021-11-21T08:47:11.683Z</time>
      </trkpt>
      <trkpt lat="47.558225" lon="7.968807">
        <ele>289.948570</ele>
        <time>2021-11-21T08:47:16.137Z</time>
      </trkpt>
      <trkpt lat="47.558045" lon="7.969704">
        <ele>289.929391</ele>
        <time>2021-11-21T08:47:25.707Z</time>
      </trkpt>
      <trkpt lat="47.557756" lon="7.971140">
        <ele>289.739376</ele>
        <time>2021-11-21T08:47:40.398Z</time>
      </trkpt>
      <trkpt lat="47.557538" lon="7.972196">
        <ele>289.620452</ele>
        <time>2021-11-21T08:47:50.082Z</time>
      </trkpt>
      <trkpt lat="47.557419" lon="7.972636">
        <ele>289.597435</ele>
        <time>2021-11-21T08:47:54.337Z</time>
      </trkpt>
      <trkpt lat="47.557323" lon="7.972992">
        <ele>289.578819</ele>
        <time>2021-11-21T08:47:57.954Z</time>
      </trkpt>
      <trkpt lat="47.557235" lon="7.973507">
        <ele>289.553023</ele>
        <time>2021-11-21T08:48:03.032Z</time>
      </trkpt>
      <trkpt lat="47.557108" lon="7.974186">
        <ele>289.518809</ele>
        <time>2021-11-21T08:48:10.184Z</time>
      </trkpt>
      <trkpt lat="47.557045" lon="7.974526">
        <ele>289.532782</ele>
        <time>2021-11-21T08:48:14.219Z</time>
      </trkpt>
      <trkpt lat="47.556769" lon="7.976421">
        <ele>290.636438</ele>
        <time>2021-11-21T08:48:38.379Z</time>
      </trkpt>
      <trkpt lat="47.556668" lon="7.978159">
        <ele>291.277106</ele>
        <time>2021-11-21T08:49:00.293Z</time>
      </trkpt>
      <trkpt lat="47.557185" lon="7.988787">
        <ele>293.684486</ele>
        <time>2021-11-21T08:50:54.628Z</time>
      </trkpt>
      <trkpt lat="47.557298" lon="7.990679">
        <ele>294.154930</ele>
        <time>2021-11-21T08:51:15.852Z</time>
      </trkpt>
      <trkpt lat="47.557377" lon="7.991413">
        <ele>294.305522</ele>
        <time>2021-11-21T08:51:24.139Z</time>
      </trkpt>
      <trkpt lat="47.557666" lon="7.996934">
        <ele>295.447584</ele>
        <time>2021-11-21T08:52:22.996Z</time>
      </trkpt>
      <trkpt lat="47.557611" lon="7.998828">
        <ele>296.117783</ele>
        <time>2021-11-21T08:52:45.625Z</time>
      </trkpt>
      <trkpt lat="47.557595" lon="7.999065">
        <ele>296.209756</ele>
        <time>2021-11-21T08:52:48.651Z</time>
      </trkpt>
      <trkpt lat="47.557590" lon="7.999121">
        <ele>296.231568</ele>
        <time>2021-11-21T08:52:49.310Z</time>
      </trkpt>
      <trkpt lat="47.557569" lon="7.999330">
        <ele>296.313161</ele>
        <time>2021-11-21T08:52:54.899Z</time>
      </trkpt>
      <trkpt lat="47.557552" lon="7.999488">
        <ele>296.374942</ele>
        <time>2021-11-21T08:52:56.918Z</time>
      </trkpt>
      <trkpt lat="47.557421" lon="8.000151">
        <ele>296.641702</ele>
        <time>2021-11-21T08:53:05.119Z</time>
      </trkpt>
      <trkpt lat="47.557093" lon="8.001836">
        <ele>296.818999</ele>
        <time>2021-11-21T08:53:24.068Z</time>
      </trkpt>
      <trkpt lat="47.556859" lon="8.003033">
        <ele>296.625396</ele>
        <time>2021-11-21T08:53:35.194Z</time>
      </trkpt>
      <trkpt lat="47.556414" lon="8.004608">
        <ele>296.007782</ele>
        <time>2021-11-21T08:53:49.959Z</time>
      </trkpt>
      <trkpt lat="47.555689" lon="8.008075">
        <ele>294.322801</ele>
        <time>2021-11-21T08:54:21.626Z</time>
      </trkpt>
      <trkpt lat="47.555492" lon="8.008854">
        <ele>293.879304</ele>
        <time>2021-11-21T08:54:28.646Z</time>
      </trkpt>
      <trkpt lat="47.555373" lon="8.009365">
        <ele>293.547285</ele>
        <time>2021-11-21T08:54:33.130Z</time>
      </trkpt>
      <trkpt lat="47.555124" lon="8.010557">
        <ele>292.780881</ele>
        <time>2021-11-21T08:54:43.459Z</time>
      </trkpt>
      <trkpt lat="47.555069" lon="8.010772">
        <ele>292.639658</ele>
        <time>2021-11-21T08:54:45.291Z</time>
      </trkpt>
      <trkpt lat="47.554818" lon="8.011865">
        <ele>292.257486</ele>
        <time>2021-11-21T08:54:54.994Z</time>
      </trkpt>
      <trkpt lat="47.554682" lon="8.012449">
        <ele>292.115544</ele>
        <time>2021-11-21T08:55:00.699Z</time>
      </trkpt>
      <trkpt lat="47.554665" lon="8.012540">
        <ele>292.093850</ele>
        <time>2021-11-21T08:55:01.538Z</time>
      </trkpt>
      <trkpt lat="47.554546" lon="8.013079">
        <ele>291.963552</ele>
        <time>2021-11-21T08:55:07.039Z</time>
      </trkpt>
      <trkpt lat="47.554393" lon="8.013577">
        <ele>291.844922</ele>
        <time>2021-11-21T08:55:12.823Z</time>
      </trkpt>
      <trkpt lat="47.554329" lon="8.013807">
        <ele>291.936686</ele>
        <time>2021-11-21T08:55:15.697Z</time>
      </trkpt>
      <trkpt lat="47.553882" lon="8.015749">
        <ele>292.693517</ele>
        <time>2021-11-21T08:55:39.499Z</time>
      </trkpt>
      <trkpt lat="47.553715" lon="8.016236">
        <ele>292.891643</ele>
        <time>2021-11-21T08:55:45.961Z</time>
      </trkpt>
      <trkpt lat="47.553318" lon="8.017064">
        <ele>293.248636</ele>
        <time>2021-11-21T08:55:57.844Z</time>
      </trkpt>
      <trkpt lat="47.553229" lon="8.017328">
        <ele>293.352360</ele>
        <time>2021-11-21T08:56:01.454Z</time>
      </trkpt>
      <trkpt lat="47.553159" lon="8.017677">
        <ele>293.480331</ele>
        <time>2021-11-21T08:56:06.054Z</time>
      </trkpt>
      <trkpt lat="47.553012" lon="8.018748">
        <ele>293.816988</ele>
        <time>2021-11-21T08:56:17.682Z</time>
      </trkpt>
      <trkpt lat="47.553028" lon="8.018988">
        <ele>293.863115</ele>
        <time>2021-11-21T08:56:20.006Z</time>
      </trkpt>
      <trkpt lat="47.553030" lon="8.019182">
        <ele>293.900225</ele>
        <time>2021-11-21T08:56:21.700Z</time>
      </trkpt>
      <trkpt lat="47.553055" lon="8.019647">
        <ele>293.989445</ele>
        <time>2021-11-21T08:56:26.384Z</time>
      </trkpt>
      <trkpt lat="47.553064" lon="8.019820">
        <ele>294.022632</ele>
        <time>2021-11-21T08:56:27.909Z</time>
      </trkpt>
      <trkpt lat="47.553056" lon="8.019871">
        <ele>294.032646</ele>
        <time>2021-11-21T08:56:28.399Z</time>
      </trkpt>
      <trkpt lat="47.553031" lon="8.019915">
        <ele>294.043647</ele>
        <time>2021-11-21T08:56:29.026Z</time>
      </trkpt>
      <trkpt lat="47.552961" lon="8.019989">
        <ele>294.068016</ele>
        <time>2021-11-21T08:56:30.418Z</time>
      </trkpt>
      <trkpt lat="47.552879" lon="8.020034">
        <ele>294.092797</ele>
        <time>2021-11-21T08:56:32.081Z</time>
      </trkpt>
      <trkpt lat="47.552872" lon="8.020109">
        <ele>294.107279</ele>
        <time>2021-11-21T08:56:32.694Z</time>
      </trkpt>
      <trkpt lat="47.552813" lon="8.020595">
        <ele>294.201726</ele>
        <time>2021-11-21T08:56:38.517Z</time>
      </trkpt>
      <trkpt lat="47.552776" lon="8.021316">
        <ele>294.718059</ele>
        <time>2021-11-21T08:56:47.076Z</time>
      </trkpt>
      <trkpt lat="47.552924" lon="8.021332">
        <ele>294.987213</ele>
        <time>2021-11-21T08:56:49.989Z</time>
      </trkpt>
      <trkpt lat="47.552959" lon="8.021335">
        <ele>295.050801</ele>
        <time>2021-11-21T08:56:50.838Z</time>
      </trkpt>
      <trkpt lat="47.553183" lon="8.021466">
        <ele>295.487591</ele>
        <time>2021-11-21T08:56:55.580Z</time>
      </trkpt>
      <trkpt lat="47.553232" lon="8.021484">
        <ele>295.579157</ele>
        <time>2021-11-21T08:56:56.749Z</time>
      </trkpt>
      <trkpt lat="47.553266" lon="8.021493">
        <ele>295.641802</ele>
        <time>2021-11-21T08:56:57.473Z</time>
      </trkpt>
      <trkpt lat="47.553291" lon="8.021502">
        <ele>295.688465</ele>
        <time>2021-11-21T08:56:58.111Z</time>
      </trkpt>
      <trkpt lat="47.553305" lon="8.021505">
        <ele>295.714123</ele>
        <time>2021-11-21T08:56:58.432Z</time>
      </trkpt>
      <trkpt lat="47.553565" lon="8.021501">
        <ele>296.185731</ele>
        <time>2021-11-21T08:57:03.607Z</time>
      </trkpt>
      <trkpt lat="47.553607" lon="8.021497">
        <ele>296.262067</ele>
        <time>2021-11-21T08:57:04.651Z</time>
      </trkpt>
      <trkpt lat="47.553614" lon="8.021587">
        <ele>296.372967</ele>
        <time>2021-11-21T08:57:06.133Z</time>
      </trkpt>
      <trkpt lat="47.553615" lon="8.021606">
        <ele>296.396296</ele>
        <time>2021-11-21T08:57:06.429Z</time>
      </trkpt>
      <trkpt lat="47.553619" lon="8.021667">
        <ele>296.471319</ele>
        <time>2021-11-21T08:57:07.262Z</time>
      </trkpt>
      <trkpt lat="47.553685" lon="8.022501">
        <ele>297.499230</ele>
        <time>2021-11-21T08:57:21.141Z</time>
      </trkpt>
      <trkpt lat="47.553695" lon="8.022619">
        <ele>297.740009</ele>
        <time>2021-11-21T08:57:23.537Z</time>
      </trkpt>
      <trkpt lat="47.553699" lon="8.022667">
        <ele>297.849338</ele>
        <time>2021-11-21T08:57:24.500Z</time>
      </trkpt>
      <trkpt lat="47.553719" lon="8.022919">
        <ele>298.422913</ele>
        <time>2021-11-21T08:57:29.635Z</time>
      </trkpt>
      <trkpt lat="47.553732" lon="8.023128">
        <ele>298.897364</ele>
        <time>2021-11-21T08:57:33.781Z</time>
      </trkpt>
      <trkpt lat="47.553811" lon="8.023113">
        <ele>299.164131</ele>
        <time>2021-11-21T08:57:36.095Z</time>
      </trkpt>
      <trkpt lat="47.554021" lon="8.023095">
        <ele>299.868685</ele>
        <time>2021-11-21T08:57:42.179Z</time>
      </trkpt>
      <trkpt lat="47.554299" lon="8.023080">
        <ele>300.800440</ele>
        <time>2021-11-21T08:57:49.995Z</time>
      </trkpt>
      <trkpt lat="47.554701" lon="8.023055">
        <ele>302.148091</ele>
        <time>2021-11-21T08:58:01.616Z</time>
      </trkpt>
      <trkpt lat="47.554779" lon="8.023049">
        <ele>302.409698</ele>
        <time>2021-11-21T08:58:03.891Z</time>
      </trkpt>
      <trkpt lat="47.554871" lon="8.023042">
        <ele>302.718250</ele>
        <time>2021-11-21T08:58:06.525Z</time>
      </trkpt>
      <trkpt lat="47.554903" lon="8.023039">
        <ele>302.825646</ele>
        <time>2021-11-21T08:58:07.796Z</time>
      </trkpt>
      <trkpt lat="47.555073" lon="8.023022">
        <ele>303.396342</ele>
        <time>2021-11-21T08:58:12.552Z</time>
      </trkpt>
      <trkpt lat="47.555384" lon="8.022959">
        <ele>304.614845</ele>
        <time>2021-11-21T08:58:21.237Z</time>
      </trkpt>
      <trkpt lat="47.555814" lon="8.022759">
        <ele>306.407583</ele>
        <time>2021-11-21T08:58:33.657Z</time>
      </trkpt>
      <trkpt lat="47.556133" lon="8.022482">
        <ele>307.878331</ele>
        <time>2021-11-21T08:58:45.154Z</time>
      </trkpt>
      <trkpt lat="47.556863" lon="8.021668">
        <ele>311.838150</ele>
        <time>2021-11-21T08:59:15.440Z</time>
      </trkpt>
      <trkpt lat="47.557042" lon="8.021611">
        <ele>312.862532</ele>
        <time>2021-11-21T08:59:21.936Z</time>
      </trkpt>
      <trkpt lat="47.557190" lon="8.021670">
        <ele>313.720046</ele>
        <time>2021-11-21T08:59:26.531Z</time>
      </trkpt>
      <trkpt lat="47.557232" lon="8.021693">
        <ele>313.970573</ele>
        <time>2021-11-21T08:59:28.709Z</time>
      </trkpt>
      <trkpt lat="47.557354" lon="8.021790">
        <ele>314.745225</ele>
        <time>2021-11-21T08:59:32.821Z</time>
      </trkpt>
      <trkpt lat="47.557374" lon="8.021813">
        <ele>314.886872</ele>
        <time>2021-11-21T08:59:34.522Z</time>
      </trkpt>
      <trkpt lat="47.557721" lon="8.022248">
        <ele>317.429929</ele>
        <time>2021-11-21T08:59:50.265Z</time>
      </trkpt>
      <trkpt lat="47.558325" lon="8.023268">
        <ele>322.930022</ele>
        <time>2021-11-21T09:00:28.984Z</time>
      </trkpt>
      <trkpt lat="47.558843" lon="8.023745">
        <ele>327.064189</ele>
        <time>2021-11-21T09:00:55.516Z</time>
      </trkpt>
      <trkpt lat="47.559393" lon="8.024159">
        <ele>331.245939</ele>
        <time>2021-11-21T09:01:20.807Z</time>
      </trkpt>
      <trkpt lat="47.559502" lon="8.024274">
        <ele>332.152965</ele>
        <time>2021-11-21T09:01:26.956Z</time>
      </trkpt>
      <trkpt lat="47.559958" lon="8.024826">
        <ele>335.275602</ele>
        <time>2021-11-21T09:01:50.830Z</time>
      </trkpt>
      <trkpt lat="47.560078" lon="8.025111">
        <ele>336.392052</ele>
        <time>2021-11-21T09:01:59.615Z</time>
      </trkpt>
      <trkpt lat="47.560303" lon="8.026133">
        <ele>339.964837</ele>
        <time>2021-11-21T09:02:24.181Z</time>
      </trkpt>
      <trkpt lat="47.560381" lon="8.026393">
        <ele>340.910482</ele>
        <time>2021-11-21T09:02:29.750Z</time>
      </trkpt>
      <trkpt lat="47.560481" lon="8.026632">
        <ele>341.835461</ele>
        <time>2021-11-21T09:02:34.066Z</time>
      </trkpt>
      <trkpt lat="47.560798" lon="8.027161">
        <ele>343.008570</ele>
        <time>2021-11-21T09:02:46.523Z</time>
      </trkpt>
      <trkpt lat="47.561018" lon="8.027383">
        <ele>343.662594</ele>
        <time>2021-11-21T09:02:53.238Z</time>
      </trkpt>
      <trkpt lat="47.561969" lon="8.028038">
        <ele>346.239486</ele>
        <time>2021-11-21T09:03:18.518Z</time>
      </trkpt>
      <trkpt lat="47.562307" lon="8.028432">
        <ele>346.904841</ele>
        <time>2021-11-21T09:03:27.652Z</time>
      </trkpt>
      <trkpt lat="47.562445" lon="8.028648">
        <ele>347.214338</ele>
        <time>2021-11-21T09:03:31.725Z</time>
      </trkpt>
      <trkpt lat="47.562484" lon="8.028714">
        <ele>347.305618</ele>
        <time>2021-11-21T09:03:32.966Z</time>
      </trkpt>
      <trkpt lat="47.562597" lon="8.028906">
        <ele>347.570699</ele>
        <time>2021-11-21T09:03:36.556Z</time>
      </trkpt>
      <trkpt lat="47.562762" lon="8.029240">
        <ele>348.001395</ele>
        <time>2021-11-21T09:03:42.286Z</time>
      </trkpt>
      <trkpt lat="47.562862" lon="8.029514">
        <ele>348.325511</ele>
        <time>2021-11-21T09:03:46.629Z</time>
      </trkpt>
      <trkpt lat="47.562908" lon="8.029661">
        <ele>348.494107</ele>
        <time>2021-11-21T09:03:49.011Z</time>
      </trkpt>
      <trkpt lat="47.562995" lon="8.029987">
        <ele>348.858864</ele>
        <time>2021-11-21T09:03:53.965Z</time>
      </trkpt>
      <trkpt lat="47.563183" lon="8.030459">
        <ele>349.483561</ele>
        <time>2021-11-21T09:04:01.182Z</time>
      </trkpt>
      <trkpt lat="47.563345" lon="8.030793">
        <ele>349.968324</ele>
        <time>2021-11-21T09:04:06.482Z</time>
      </trkpt>
      <trkpt lat="47.563394" lon="8.030849">
        <ele>350.076396</ele>
        <time>2021-11-21T09:04:07.638Z</time>
      </trkpt>
      <trkpt lat="47.563725" lon="8.031208">
        <ele>350.792780</ele>
        <time>2021-11-21T09:04:15.552Z</time>
      </trkpt>
      <trkpt lat="47.564393" lon="8.032053">
        <ele>352.541139</ele>
        <time>2021-11-21T09:04:36.736Z</time>
      </trkpt>
      <trkpt lat="47.564511" lon="8.032311">
        <ele>353.382122</ele>
        <time>2021-11-21T09:04:42.062Z</time>
      </trkpt>
      <trkpt lat="47.564569" lon="8.032525">
        <ele>354.004375</ele>
        <time>2021-11-21T09:04:46.399Z</time>
      </trkpt>
      <trkpt lat="47.564678" lon="8.032921">
        <ele>355.158342</ele>
        <time>2021-11-21T09:04:53.746Z</time>
      </trkpt>
      <trkpt lat="47.564702" lon="8.033000">
        <ele>355.392107</ele>
        <time>2021-11-21T09:04:56.548Z</time>
      </trkpt>
      <trkpt lat="47.564933" lon="8.033469">
        <ele>356.958826</ele>
        <time>2021-11-21T09:05:09.500Z</time>
      </trkpt>
      <trkpt lat="47.565189" lon="8.033686">
        <ele>358.138123</ele>
        <time>2021-11-21T09:05:18.916Z</time>
      </trkpt>
      <trkpt lat="47.565871" lon="8.033704">
        <ele>361.340780</ele>
        <time>2021-11-21T09:05:43.031Z</time>
      </trkpt>
      <trkpt lat="47.566001" lon="8.033711">
        <ele>362.024295</ele>
        <time>2021-11-21T09:05:49.260Z</time>
      </trkpt>
      <trkpt lat="47.566321" lon="8.033776">
        <ele>363.721403</ele>
        <time>2021-11-21T09:06:00.543Z</time>
      </trkpt>
      <trkpt lat="47.566670" lon="8.033967">
        <ele>365.676198</ele>
        <time>2021-11-21T09:06:13.926Z</time>
      </trkpt>
      <trkpt lat="47.566763" lon="8.034017">
        <ele>366.196011</ele>
        <time>2021-11-21T09:06:17.660Z</time>
      </trkpt>
      <trkpt lat="47.567079" lon="8.034308">
        <ele>368.150793</ele>
        <time>2021-11-21T09:06:30.704Z</time>
      </trkpt>
      <trkpt lat="47.567313" lon="8.034591">
        <ele>369.529007</ele>
        <time>2021-11-21T09:06:41.776Z</time>
      </trkpt>
      <trkpt lat="47.567673" lon="8.035162">
        <ele>371.680659</ele>
        <time>2021-11-21T09:06:58.858Z</time>
      </trkpt>
      <trkpt lat="47.568018" lon="8.035824">
        <ele>373.983708</ele>
        <time>2021-11-21T09:07:15.517Z</time>
      </trkpt>
      <trkpt lat="47.568240" lon="8.036333">
        <ele>375.652415</ele>
        <time>2021-11-21T09:07:27.767Z</time>
      </trkpt>
      <trkpt lat="47.568395" lon="8.036764">
        <ele>376.897925</ele>
        <time>2021-11-21T09:07:37.081Z</time>
      </trkpt>
      <trkpt lat="47.568512" lon="8.037290">
        <ele>378.245734</ele>
        <time>2021-11-21T09:07:47.248Z</time>
      </trkpt>
      <trkpt lat="47.568537" lon="8.037570">
        <ele>378.933065</ele>
        <time>2021-11-21T09:07:53.065Z</time>
      </trkpt>
      <trkpt lat="47.568540" lon="8.037665">
        <ele>379.164504</ele>
        <time>2021-11-21T09:07:54.926Z</time>
      </trkpt>
      <trkpt lat="47.568562" lon="8.038275">
        <ele>380.651081</ele>
        <time>2021-11-21T09:08:07.152Z</time>
      </trkpt>
      <trkpt lat="47.568633" lon="8.038920">
        <ele>382.241463</ele>
        <time>2021-11-21T09:08:20.201Z</time>
      </trkpt>
      <trkpt lat="47.568715" lon="8.039132">
        <ele>382.860725</ele>
        <time>2021-11-21T09:08:25.526Z</time>
      </trkpt>
      <trkpt lat="47.568916" lon="8.039421">
        <ele>383.991453</ele>
        <time>2021-11-21T09:08:33.479Z</time>
      </trkpt>
      <trkpt lat="47.568992" lon="8.039490">
        <ele>384.351318</ele>
        <time>2021-11-21T09:08:36.501Z</time>
      </trkpt>
      <trkpt lat="47.569043" lon="8.039527">
        <ele>384.580590</ele>
        <time>2021-11-21T09:08:38.050Z</time>
      </trkpt>
      <trkpt lat="47.569103" lon="8.039554">
        <ele>384.833775</ele>
        <time>2021-11-21T09:08:39.577Z</time>
      </trkpt>
      <trkpt lat="47.569159" lon="8.039571">
        <ele>385.064583</ele>
        <time>2021-11-21T09:08:41.270Z</time>
      </trkpt>
      <trkpt lat="47.569259" lon="8.039574">
        <ele>385.468441</ele>
        <time>2021-11-21T09:08:44.321Z</time>
      </trkpt>
      <trkpt lat="47.569469" lon="8.039531">
        <ele>386.324422</ele>
        <time>2021-11-21T09:08:50.179Z</time>
      </trkpt>
      <trkpt lat="47.569586" lon="8.039479">
        <ele>386.817621</ele>
        <time>2021-11-21T09:08:53.705Z</time>
      </trkpt>
      <trkpt lat="47.569647" lon="8.039770">
        <ele>387.647757</ele>
        <time>2021-11-21T09:09:00.341Z</time>
      </trkpt>
      <trkpt lat="47.569695" lon="8.040052">
        <ele>388.440063</ele>
        <time>2021-11-21T09:09:06.689Z</time>
      </trkpt>
      <trkpt lat="47.569707" lon="8.040137">
        <ele>388.676639</ele>
        <time>2021-11-21T09:09:08.918Z</time>
      </trkpt>
      <trkpt lat="47.569814" lon="8.040942">
        <ele>391.196681</ele>
        <time>2021-11-21T09:09:27.849Z</time>
      </trkpt>
      <trkpt lat="47.569913" lon="8.041464">
        <ele>393.086809</ele>
        <time>2021-11-21T09:09:40.114Z</time>
      </trkpt>
      <trkpt lat="47.569947" lon="8.041607">
        <ele>393.615329</ele>
        <time>2021-11-21T09:09:43.504Z</time>
      </trkpt>
      <trkpt lat="47.570037" lon="8.042001">
        <ele>395.065324</ele>
        <time>2021-11-21T09:09:55.009Z</time>
      </trkpt>
      <trkpt lat="47.570472" lon="8.043006">
        <ele>399.207725</ele>
        <time>2021-11-21T09:10:23.926Z</time>
      </trkpt>
      <trkpt lat="47.570550" lon="8.043505">
        <ele>400.150352</ele>
        <time>2021-11-21T09:10:35.177Z</time>
      </trkpt>
      <trkpt lat="47.570553" lon="8.043603">
        <ele>400.330886</ele>
        <time>2021-11-21T09:10:39.031Z</time>
      </trkpt>
      <trkpt lat="47.570556" lon="8.043717">
        <ele>400.540838</ele>
        <time>2021-11-21T09:10:41.295Z</time>
      </trkpt>
      <trkpt lat="47.570458" lon="8.044327">
        <ele>401.694800</ele>
        <time>2021-11-21T09:10:52.837Z</time>
      </trkpt>
      <trkpt lat="47.570449" lon="8.044391">
        <ele>401.815110</ele>
        <time>2021-11-21T09:10:53.892Z</time>
      </trkpt>
      <trkpt lat="47.570407" lon="8.044709">
        <ele>402.411430</ele>
        <time>2021-11-21T09:10:59.833Z</time>
      </trkpt>
      <trkpt lat="47.570401" lon="8.044853">
        <ele>402.676937</ele>
        <time>2021-11-21T09:11:01.447Z</time>
      </trkpt>
      <trkpt lat="47.570393" lon="8.045065">
        <ele>403.067688</ele>
        <time>2021-11-21T09:11:03.710Z</time>
      </trkpt>
      <trkpt lat="47.570405" lon="8.045482">
        <ele>403.835787</ele>
        <time>2021-11-21T09:11:09.942Z</time>
      </trkpt>
      <trkpt lat="47.570410" lon="8.045595">
        <ele>404.044187</ele>
        <time>2021-11-21T09:11:10.829Z</time>
      </trkpt>
      <trkpt lat="47.570454" lon="8.045878">
        <ele>403.826742</ele>
        <time>2021-11-21T09:11:15.119Z</time>
      </trkpt>
      <trkpt lat="47.570703" lon="8.046690">
        <ele>402.933865</ele>
        <time>2021-11-21T09:11:21.638Z</time>
      </trkpt>
      <trkpt lat="47.570990" lon="8.047289">
        <ele>402.198413</ele>
        <time>2021-11-21T09:11:27.019Z</time>
      </trkpt>
      <trkpt lat="47.571053" lon="8.047570">
        <ele>401.901994</ele>
        <time>2021-11-21T09:11:29.112Z</time>
      </trkpt>
      <trkpt lat="47.571035" lon="8.047613">
        <ele>401.851337</ele>
        <time>2021-11-21T09:11:29.464Z</time>
      </trkpt>
      <trkpt lat="47.571041" lon="8.047802">
        <ele>401.661930</ele>
        <time>2021-11-21T09:11:30.950Z</time>
      </trkpt>
      <trkpt lat="47.571051" lon="8.047825">
        <ele>401.634539</ele>
        <time>2021-11-21T09:11:31.134Z</time>
      </trkpt>
      <trkpt lat="47.571060" lon="8.047840">
        <ele>401.614444</ele>
        <time>2021-11-21T09:11:31.266Z</time>
      </trkpt>
      <trkpt lat="47.571146" lon="8.047904">
        <ele>401.471662</ele>
        <time>2021-11-21T09:11:32.323Z</time>
      </trkpt>
      <trkpt lat="47.571173" lon="8.047904">
        <ele>401.431601</ele>
        <time>2021-11-21T09:11:32.596Z</time>
      </trkpt>
      <trkpt lat="47.571192" lon="8.047900">
        <ele>401.409016</ele>
        <time>2021-11-21T09:11:32.810Z</time>
      </trkpt>
      <trkpt lat="47.571216" lon="8.047888">
        <ele>401.382615</ele>
        <time>2021-11-21T09:11:33.110Z</time>
      </trkpt>
      <trkpt lat="47.571230" lon="8.047878">
        <ele>401.366417</ele>
        <time>2021-11-21T09:11:33.273Z</time>
      </trkpt>
      <trkpt lat="47.571328" lon="8.047952">
        <ele>401.251779</ele>
        <time>2021-11-21T09:11:34.591Z</time>
      </trkpt>
      <trkpt lat="47.571393" lon="8.048046">
        <ele>401.157123</ele>
        <time>2021-11-21T09:11:35.566Z</time>
      </trkpt>
      <trkpt lat="47.571420" lon="8.048138">
        <ele>401.086571</ele>
        <time>2021-11-21T09:11:36.296Z</time>
      </trkpt>
      <trkpt lat="47.571850" lon="8.050064">
        <ele>399.659947</ele>
        <time>2021-11-21T09:11:52.805Z</time>
      </trkpt>
      <trkpt lat="47.572078" lon="8.050690">
        <ele>399.838154</ele>
        <time>2021-11-21T09:12:00.918Z</time>
      </trkpt>
      <trkpt lat="47.572428" lon="8.051523">
        <ele>400.353257</ele>
        <time>2021-11-21T09:12:14.721Z</time>
      </trkpt>
      <trkpt lat="47.572498" lon="8.051744">
        <ele>400.481408</ele>
        <time>2021-11-21T09:12:18.435Z</time>
      </trkpt>
      <trkpt lat="47.572645" lon="8.052612">
        <ele>400.939779</ele>
        <time>2021-11-21T09:12:29.097Z</time>
      </trkpt>
      <trkpt lat="47.572728" lon="8.053331">
        <ele>400.112293</ele>
        <time>2021-11-21T09:12:36.981Z</time>
      </trkpt>
      <trkpt lat="47.572769" lon="8.053639">
        <ele>399.756162</ele>
        <time>2021-11-21T09:12:39.554Z</time>
      </trkpt>
      <trkpt lat="47.572855" lon="8.053943">
        <ele>399.382215</ele>
        <time>2021-11-21T09:12:42.288Z</time>
      </trkpt>
      <trkpt lat="47.573098" lon="8.054422">
        <ele>398.702361</ele>
        <time>2021-11-21T09:12:46.602Z</time>
      </trkpt>
      <trkpt lat="47.573806" lon="8.055119">
        <ele>396.629048</ele>
        <time>2021-11-21T09:12:54.942Z</time>
      </trkpt>
      <trkpt lat="47.573993" lon="8.055472">
        <ele>395.615313</ele>
        <time>2021-11-21T09:12:57.760Z</time>
      </trkpt>
      <trkpt lat="47.574121" lon="8.056069">
        <ele>394.200437</ele>
        <time>2021-11-21T09:13:01.873Z</time>
      </trkpt>
      <trkpt lat="47.574181" lon="8.057386">
        <ele>391.987456</ele>
        <time>2021-11-21T09:13:11.439Z</time>
      </trkpt>
      <trkpt lat="47.574225" lon="8.057606">
        <ele>392.052778</ele>
        <time>2021-11-21T09:13:13.143Z</time>
      </trkpt>
      <trkpt lat="47.574360" lon="8.057968">
        <ele>392.170527</ele>
        <time>2021-11-21T09:13:17.363Z</time>
      </trkpt>
      <trkpt lat="47.574691" lon="8.058686">
        <ele>392.418085</ele>
        <time>2021-11-21T09:13:28.585Z</time>
      </trkpt>
      <trkpt lat="47.575062" lon="8.059032">
        <ele>392.603042</ele>
        <time>2021-11-21T09:13:39.051Z</time>
      </trkpt>
      <trkpt lat="47.575229" lon="8.059329">
        <ele>392.756289</ele>
        <time>2021-11-21T09:13:44.961Z</time>
      </trkpt>
      <trkpt lat="47.575626" lon="8.060407">
        <ele>393.392434</ele>
        <time>2021-11-21T09:14:01.924Z</time>
      </trkpt>
      <trkpt lat="47.575642" lon="8.060451">
        <ele>393.418324</ele>
        <time>2021-11-21T09:14:03.271Z</time>
      </trkpt>
      <trkpt lat="47.575791" lon="8.060748">
        <ele>393.610033</ele>
        <time>2021-11-21T09:14:06.765Z</time>
      </trkpt>
      <trkpt lat="47.576045" lon="8.061150">
        <ele>393.895317</ele>
        <time>2021-11-21T09:14:12.060Z</time>
      </trkpt>
      <trkpt lat="47.576551" lon="8.062025">
        <ele>393.659941</ele>
        <time>2021-11-21T09:14:21.811Z</time>
      </trkpt>
      <trkpt lat="47.576712" lon="8.062700">
        <ele>393.346214</ele>
        <time>2021-11-21T09:14:27.343Z</time>
      </trkpt>
      <trkpt lat="47.576741" lon="8.063055">
        <ele>393.189518</ele>
        <time>2021-11-21T09:14:30.419Z</time>
      </trkpt>
      <trkpt lat="47.576746" lon="8.063355">
        <ele>393.058018</ele>
        <time>2021-11-21T09:14:33.011Z</time>
      </trkpt>
      <trkpt lat="47.576746" lon="8.063401">
        <ele>393.037861</ele>
        <time>2021-11-21T09:14:33.675Z</time>
      </trkpt>
      <trkpt lat="47.576737" lon="8.063729">
        <ele>392.894014</ele>
        <time>2021-11-21T09:14:36.963Z</time>
      </trkpt>
      <trkpt lat="47.576750" lon="8.064033">
        <ele>393.002167</ele>
        <time>2021-11-21T09:14:40.487Z</time>
      </trkpt>
      <trkpt lat="47.576848" lon="8.064544">
        <ele>393.269300</ele>
        <time>2021-11-21T09:14:46.624Z</time>
      </trkpt>
      <trkpt lat="47.576978" lon="8.064848">
        <ele>393.450289</ele>
        <time>2021-11-21T09:14:50.880Z</time>
      </trkpt>
      <trkpt lat="47.577043" lon="8.064953">
        <ele>393.521948</ele>
        <time>2021-11-21T09:14:53.492Z</time>
      </trkpt>
      <trkpt lat="47.577380" lon="8.065302">
        <ele>393.828373</ele>
        <time>2021-11-21T09:15:01.453Z</time>
      </trkpt>
      <trkpt lat="47.577609" lon="8.065406">
        <ele>394.006898</ele>
        <time>2021-11-21T09:15:05.840Z</time>
      </trkpt>
      <trkpt lat="47.577839" lon="8.065448">
        <ele>394.179633</ele>
        <time>2021-11-21T09:15:09.443Z</time>
      </trkpt>
      <trkpt lat="47.578177" lon="8.065370">
        <ele>394.505294</ele>
        <time>2021-11-21T09:15:15.066Z</time>
      </trkpt>
      <trkpt lat="47.578363" lon="8.065294">
        <ele>394.695131</ele>
        <time>2021-11-21T09:15:19.473Z</time>
      </trkpt>
      <trkpt lat="47.578623" lon="8.065188">
        <ele>394.960452</ele>
        <time>2021-11-21T09:15:23.566Z</time>
      </trkpt>
      <trkpt lat="47.579003" lon="8.065169">
        <ele>395.334560</ele>
        <time>2021-11-21T09:15:30.300Z</time>
      </trkpt>
      <trkpt lat="47.579104" lon="8.065203">
        <ele>395.436467</ele>
        <time>2021-11-21T09:15:32.456Z</time>
      </trkpt>
      <trkpt lat="47.579181" lon="8.065229">
        <ele>395.514171</ele>
        <time>2021-11-21T09:15:33.507Z</time>
      </trkpt>
      <trkpt lat="47.579504" lon="8.065414">
        <ele>395.854878</ele>
        <time>2021-11-21T09:15:40.532Z</time>
      </trkpt>
      <trkpt lat="47.579627" lon="8.065529">
        <ele>396.041409</ele>
        <time>2021-11-21T09:15:43.360Z</time>
      </trkpt>
      <trkpt lat="47.579737" lon="8.065632">
        <ele>396.553712</ele>
        <time>2021-11-21T09:15:46.953Z</time>
      </trkpt>
      <trkpt lat="47.579947" lon="8.065949">
        <ele>397.733846</ele>
        <time>2021-11-21T09:15:53.280Z</time>
      </trkpt>
      <trkpt lat="47.580169" lon="8.066489">
        <ele>399.413545</ele>
        <time>2021-11-21T09:16:04.491Z</time>
      </trkpt>
      <trkpt lat="47.580436" lon="8.068266">
        <ele>404.862848</ele>
        <time>2021-11-21T09:16:49.376Z</time>
      </trkpt>
      <trkpt lat="47.580540" lon="8.068640">
        <ele>406.494571</ele>
        <time>2021-11-21T09:17:01.990Z</time>
      </trkpt>
      <trkpt lat="47.581072" lon="8.070001">
        <ele>412.839394</ele>
        <time>2021-11-21T09:17:44.342Z</time>
      </trkpt>
      <trkpt lat="47.581200" lon="8.070445">
        <ele>414.386182</ele>
        <time>2021-11-21T09:17:55.630Z</time>
      </trkpt>
      <trkpt lat="47.581302" lon="8.070775">
        <ele>415.242769</ele>
        <time>2021-11-21T09:18:03.887Z</time>
      </trkpt>
      <trkpt lat="47.581397" lon="8.071044">
        <ele>415.959285</ele>
        <time>2021-11-21T09:18:09.701Z</time>
      </trkpt>
      <trkpt lat="47.581509" lon="8.071314">
        <ele>416.707256</ele>
        <time>2021-11-21T09:18:16.574Z</time>
      </trkpt>
      <trkpt lat="47.581542" lon="8.071281">
        <ele>416.846510</ele>
        <time>2021-11-21T09:18:17.066Z</time>
      </trkpt>
      <trkpt lat="47.581788" lon="8.071022">
        <ele>417.902043</ele>
        <time>2021-11-21T09:18:26.170Z</time>
      </trkpt>
      <trkpt lat="47.582315" lon="8.070091">
        <ele>420.773826</ele>
        <time>2021-11-21T09:18:44.728Z</time>
      </trkpt>
      <trkpt lat="47.582538" lon="8.069833">
        <ele>421.769106</ele>
        <time>2021-11-21T09:18:51.453Z</time>
      </trkpt>
      <trkpt lat="47.583517" lon="8.069235">
        <ele>425.494659</ele>
        <time>2021-11-21T09:19:23.348Z</time>
      </trkpt>
      <trkpt lat="47.584024" lon="8.068613">
        <ele>428.124936</ele>
        <time>2021-11-21T09:19:45.240Z</time>
      </trkpt>
      <trkpt lat="47.584143" lon="8.068422">
        <ele>428.884000</ele>
        <time>2021-11-21T09:19:51.940Z</time>
      </trkpt>
      <trkpt lat="47.584215" lon="8.068264">
        <ele>429.440653</ele>
        <time>2021-11-21T09:19:55.615Z</time>
      </trkpt>
      <trkpt lat="47.584279" lon="8.068165">
        <ele>429.840974</ele>
        <time>2021-11-21T09:19:58.548Z</time>
      </trkpt>
      <trkpt lat="47.584318" lon="8.068107">
        <ele>430.080058</ele>
        <time>2021-11-21T09:20:01.013Z</time>
      </trkpt>
      <trkpt lat="47.584874" lon="8.067572">
        <ele>432.948883</ele>
        <time>2021-11-21T09:20:21.731Z</time>
      </trkpt>
      <trkpt lat="47.585232" lon="8.067099">
        <ele>434.987987</ele>
        <time>2021-11-21T09:20:37.094Z</time>
      </trkpt>
      <trkpt lat="47.585530" lon="8.066367">
        <ele>437.370248</ele>
        <time>2021-11-21T09:20:52.443Z</time>
      </trkpt>
      <trkpt lat="47.586171" lon="8.065140">
        <ele>441.723109</ele>
        <time>2021-11-21T09:21:25.128Z</time>
      </trkpt>
      <trkpt lat="47.586300" lon="8.064866">
        <ele>443.357846</ele>
        <time>2021-11-21T09:21:33.948Z</time>
      </trkpt>
      <trkpt lat="47.586526" lon="8.064430">
        <ele>446.047991</ele>
        <time>2021-11-21T09:21:49.285Z</time>
      </trkpt>
      <trkpt lat="47.586768" lon="8.064082">
        <ele>448.493306</ele>
        <time>2021-11-21T09:22:04.092Z</time>
      </trkpt>
      <trkpt lat="47.587322" lon="8.063441">
        <ele>453.590450</ele>
        <time>2021-11-21T09:22:37.688Z</time>
      </trkpt>
      <trkpt lat="47.588385" lon="8.062490">
        <ele>463.825714</ele>
        <time>2021-11-21T09:23:40.869Z</time>
      </trkpt>
      <trkpt lat="47.588982" lon="8.062103">
        <ele>469.288275</ele>
        <time>2021-11-21T09:24:11.353Z</time>
      </trkpt>
      <trkpt lat="47.589304" lon="8.061913">
        <ele>471.619356</ele>
        <time>2021-11-21T09:24:26.493Z</time>
      </trkpt>
      <trkpt lat="47.589379" lon="8.061884">
        <ele>472.114388</ele>
        <time>2021-11-21T09:24:29.699Z</time>
      </trkpt>
      <trkpt lat="47.589565" lon="8.061807">
        <ele>473.347768</ele>
        <time>2021-11-21T09:24:37.650Z</time>
      </trkpt>
      <trkpt lat="47.589831" lon="8.061768">
        <ele>475.054946</ele>
        <time>2021-11-21T09:24:48.247Z</time>
      </trkpt>
      <trkpt lat="47.589938" lon="8.061742">
        <ele>475.747451</ele>
        <time>2021-11-21T09:24:52.270Z</time>
      </trkpt>
      <trkpt lat="47.590004" lon="8.061716">
        <ele>476.183604</ele>
        <time>2021-11-21T09:24:54.983Z</time>
      </trkpt>
      <trkpt lat="47.590534" lon="8.061506">
        <ele>479.687392</ele>
        <time>2021-11-21T09:25:17.285Z</time>
      </trkpt>
      <trkpt lat="47.590649" lon="8.061473">
        <ele>480.435503</ele>
        <time>2021-11-21T09:25:21.309Z</time>
      </trkpt>
      <trkpt lat="47.590749" lon="8.061458">
        <ele>481.077444</ele>
        <time>2021-11-21T09:25:25.173Z</time>
      </trkpt>
      <trkpt lat="47.590896" lon="8.061451">
        <ele>481.892018</ele>
        <time>2021-11-21T09:25:30.786Z</time>
      </trkpt>
      <trkpt lat="47.591117" lon="8.061554">
        <ele>483.124442</ele>
        <time>2021-11-21T09:25:38.770Z</time>
      </trkpt>
      <trkpt lat="47.591357" lon="8.061643">
        <ele>484.440559</ele>
        <time>2021-11-21T09:25:46.855Z</time>
      </trkpt>
      <trkpt lat="47.591418" lon="8.061708">
        <ele>484.840183</ele>
        <time>2021-11-21T09:25:49.531Z</time>
      </trkpt>
      <trkpt lat="47.591483" lon="8.061686">
        <ele>485.194875</ele>
        <time>2021-11-21T09:25:52.651Z</time>
      </trkpt>
      <trkpt lat="47.592349" lon="8.061287">
        <ele>490.019251</ele>
        <time>2021-11-21T09:26:23.871Z</time>
      </trkpt>
      <trkpt lat="47.592684" lon="8.061253">
        <ele>492.021426</ele>
        <time>2021-11-21T09:26:36.709Z</time>
      </trkpt>
      <trkpt lat="47.593024" lon="8.061322">
        <ele>494.254505</ele>
        <time>2021-11-21T09:26:50.518Z</time>
      </trkpt>
      <trkpt lat="47.593334" lon="8.061386">
        <ele>496.291201</ele>
        <time>2021-11-21T09:27:03.025Z</time>
      </trkpt>
      <trkpt lat="47.593551" lon="8.061391">
        <ele>497.703438</ele>
        <time>2021-11-21T09:27:10.567Z</time>
      </trkpt>
      <trkpt lat="47.593682" lon="8.061366">
        <ele>498.562914</ele>
        <time>2021-11-21T09:27:16.923Z</time>
      </trkpt>
      <trkpt lat="47.593887" lon="8.061332">
        <ele>499.905212</ele>
        <time>2021-11-21T09:27:25.058Z</time>
      </trkpt>
      <trkpt lat="47.594006" lon="8.061362">
        <ele>500.690683</ele>
        <time>2021-11-21T09:27:31.017Z</time>
      </trkpt>
      <trkpt lat="47.594338" lon="8.061466">
        <ele>502.969293</ele>
        <time>2021-11-21T09:27:46.485Z</time>
      </trkpt>
      <trkpt lat="47.594403" lon="8.061507">
        <ele>503.519997</ele>
        <time>2021-11-21T09:27:50.257Z</time>
      </trkpt>
      <trkpt lat="47.594519" lon="8.061486">
        <ele>504.431086</ele>
        <time>2021-11-21T09:27:54.803Z</time>
      </trkpt>
      <trkpt lat="47.594606" lon="8.061501">
        <ele>505.113936</ele>
        <time>2021-11-21T09:27:58.445Z</time>
      </trkpt>
      <trkpt lat="47.594683" lon="8.061515">
        <ele>505.718749</ele>
        <time>2021-11-21T09:28:02.583Z</time>
      </trkpt>
      <trkpt lat="47.595027" lon="8.061716">
        <ele>508.601381</ele>
        <time>2021-11-21T09:28:19.574Z</time>
      </trkpt>
      <trkpt lat="47.595102" lon="8.061781">
        <ele>509.278649</ele>
        <time>2021-11-21T09:28:23.975Z</time>
      </trkpt>
      <trkpt lat="47.595208" lon="8.061913">
        <ele>510.357811</ele>
        <time>2021-11-21T09:28:29.601Z</time>
      </trkpt>
      <trkpt lat="47.595349" lon="8.062082">
        <ele>511.771283</ele>
        <time>2021-11-21T09:28:38.756Z</time>
      </trkpt>
      <trkpt lat="47.595363" lon="8.062099">
        <ele>511.912357</ele>
        <time>2021-11-21T09:28:39.701Z</time>
      </trkpt>
      <trkpt lat="47.595583" lon="8.062360">
        <ele>514.108915</ele>
        <time>2021-11-21T09:28:52.229Z</time>
      </trkpt>
      <trkpt lat="47.595791" lon="8.062463">
        <ele>515.818580</ele>
        <time>2021-11-21T09:29:02.560Z</time>
      </trkpt>
      <trkpt lat="47.595976" lon="8.062483">
        <ele>517.252099</ele>
        <time>2021-11-21T09:29:11.502Z</time>
      </trkpt>
      <trkpt lat="47.596147" lon="8.062473">
        <ele>518.562209</ele>
        <time>2021-11-21T09:29:19.082Z</time>
      </trkpt>
      <trkpt lat="47.596472" lon="8.062411">
        <ele>521.070752</ele>
        <time>2021-11-21T09:29:33.863Z</time>
      </trkpt>
      <trkpt lat="47.596613" lon="8.062312">
        <ele>522.265059</ele>
        <time>2021-11-21T09:29:41.332Z</time>
      </trkpt>
      <trkpt lat="47.596843" lon="8.062143">
        <ele>524.230122</ele>
        <time>2021-11-21T09:29:52.688Z</time>
      </trkpt>
      <trkpt lat="47.597167" lon="8.061926">
        <ele>526.951750</ele>
        <time>2021-11-21T09:30:08.911Z</time>
      </trkpt>
      <trkpt lat="47.598008" lon="8.061370">
        <ele>534.411173</ele>
        <time>2021-11-21T09:30:50.524Z</time>
      </trkpt>
      <trkpt lat="47.598305" lon="8.061203">
        <ele>537.114987</ele>
        <time>2021-11-21T09:31:04.048Z</time>
      </trkpt>
      <trkpt lat="47.598433" lon="8.061131">
        <ele>538.280321</ele>
        <time>2021-11-21T09:31:11.232Z</time>
      </trkpt>
      <trkpt lat="47.598574" lon="8.061034">
        <ele>539.603426</ele>
        <time>2021-11-21T09:31:19.035Z</time>
      </trkpt>
      <trkpt lat="47.598585" lon="8.061025">
        <ele>539.710368</ele>
        <time>2021-11-21T09:31:19.650Z</time>
      </trkpt>
      <trkpt lat="47.598681" lon="8.060936">
        <ele>540.674102</ele>
        <time>2021-11-21T09:31:24.506Z</time>
      </trkpt>
      <trkpt lat="47.598778" lon="8.060822">
        <ele>541.727658</ele>
        <time>2021-11-21T09:31:31.573Z</time>
      </trkpt>
      <trkpt lat="47.599152" lon="8.060267">
        <ele>546.383983</ele>
        <time>2021-11-21T09:31:58.381Z</time>
      </trkpt>
      <trkpt lat="47.599476" lon="8.060117">
        <ele>550.025660</ele>
        <time>2021-11-21T09:32:18.246Z</time>
      </trkpt>
      <trkpt lat="47.599584" lon="8.060139">
        <ele>551.195281</ele>
        <time>2021-11-21T09:32:24.281Z</time>
      </trkpt>
      <trkpt lat="47.599744" lon="8.060234">
        <ele>553.044409</ele>
        <time>2021-11-21T09:32:36.966Z</time>
      </trkpt>
      <trkpt lat="47.599932" lon="8.060524">
        <ele>555.954803</ele>
        <time>2021-11-21T09:32:52.819Z</time>
      </trkpt>
      <trkpt lat="47.600005" lon="8.060808">
        <ele>558.153664</ele>
        <time>2021-11-21T09:33:03.100Z</time>
      </trkpt>
      <trkpt lat="47.600119" lon="8.061435">
        <ele>562.851789</ele>
        <time>2021-11-21T09:33:28.289Z</time>
      </trkpt>
      <trkpt lat="47.600146" lon="8.061582">
        <ele>563.954027</ele>
        <time>2021-11-21T09:33:36.574Z</time>
      </trkpt>
      <trkpt lat="47.600274" lon="8.061963">
        <ele>566.732877</ele>
        <time>2021-11-21T09:33:51.775Z</time>
      </trkpt>
      <trkpt lat="47.600310" lon="8.062040">
        <ele>567.313214</ele>
        <time>2021-11-21T09:33:57.606Z</time>
      </trkpt>
      <trkpt lat="47.600544" lon="8.062457">
        <ele>570.673340</ele>
        <time>2021-11-21T09:34:17.452Z</time>
      </trkpt>
      <trkpt lat="47.601621" lon="8.064000">
        <ele>584.177799</ele>
        <time>2021-11-21T09:35:28.981Z</time>
      </trkpt>
      <trkpt lat="47.601951" lon="8.064377">
        <ele>587.680776</ele>
        <time>2021-11-21T09:35:49.139Z</time>
      </trkpt>
      <trkpt lat="47.602193" lon="8.064568">
        <ele>589.986079</ele>
        <time>2021-11-21T09:36:01.993Z</time>
      </trkpt>
      <trkpt lat="47.602464" lon="8.064709">
        <ele>592.401190</ele>
        <time>2021-11-21T09:36:15.990Z</time>
      </trkpt>
      <trkpt lat="47.602708" lon="8.064730">
        <ele>594.456528</ele>
        <time>2021-11-21T09:36:28.912Z</time>
      </trkpt>
      <trkpt lat="47.603157" lon="8.064743">
        <ele>598.135683</ele>
        <time>2021-11-21T09:36:50.745Z</time>
      </trkpt>
      <trkpt lat="47.604643" lon="8.064490">
        <ele>609.968539</ele>
        <time>2021-11-21T09:38:02.796Z</time>
      </trkpt>
      <trkpt lat="47.604826" lon="8.064383">
        <ele>611.246800</ele>
        <time>2021-11-21T09:38:10.135Z</time>
      </trkpt>
      <trkpt lat="47.605007" lon="8.064219">
        <ele>612.263819</ele>
        <time>2021-11-21T09:38:17.916Z</time>
      </trkpt>
      <trkpt lat="47.605208" lon="8.063962">
        <ele>613.536295</ele>
        <time>2021-11-21T09:38:26.972Z</time>
      </trkpt>
      <trkpt lat="47.605582" lon="8.063236">
        <ele>616.490058</ele>
        <time>2021-11-21T09:38:47.085Z</time>
      </trkpt>
      <trkpt lat="47.606046" lon="8.061983">
        <ele>620.548030</ele>
        <time>2021-11-21T09:39:16.556Z</time>
      </trkpt>
      <trkpt lat="47.606225" lon="8.061315">
        <ele>622.086727</ele>
        <time>2021-11-21T09:39:29.933Z</time>
      </trkpt>
      <trkpt lat="47.606493" lon="8.060596">
        <ele>623.845334</ele>
        <time>2021-11-21T09:39:45.259Z</time>
      </trkpt>
      <trkpt lat="47.606732" lon="8.060223">
        <ele>624.946812</ele>
        <time>2021-11-21T09:39:54.130Z</time>
      </trkpt>
      <trkpt lat="47.607298" lon="8.059551">
        <ele>626.180503</ele>
        <time>2021-11-21T09:40:11.456Z</time>
      </trkpt>
      <trkpt lat="47.607484" lon="8.059398">
        <ele>626.511426</ele>
        <time>2021-11-21T09:40:16.116Z</time>
      </trkpt>
      <trkpt lat="47.607659" lon="8.059344">
        <ele>626.789538</ele>
        <time>2021-11-21T09:40:19.656Z</time>
      </trkpt>
      <trkpt lat="47.607922" lon="8.059421">
        <ele>627.206634</ele>
        <time>2021-11-21T09:40:24.886Z</time>
      </trkpt>
      <trkpt lat="47.608022" lon="8.059501">
        <ele>627.383413</ele>
        <time>2021-11-21T09:40:26.523Z</time>
      </trkpt>
      <trkpt lat="47.608687" lon="8.059898">
        <ele>628.226936</ele>
        <time>2021-11-21T09:40:39.087Z</time>
      </trkpt>
      <trkpt lat="47.608928" lon="8.059951">
        <ele>628.417374</ele>
        <time>2021-11-21T09:40:43.570Z</time>
      </trkpt>
      <trkpt lat="47.609573" lon="8.059819">
        <ele>628.926317</ele>
        <time>2021-11-21T09:40:53.991Z</time>
      </trkpt>
      <trkpt lat="47.609993" lon="8.059799">
        <ele>629.254780</ele>
        <time>2021-11-21T09:41:02.507Z</time>
      </trkpt>
      <trkpt lat="47.610551" lon="8.059949">
        <ele>630.223248</ele>
        <time>2021-11-21T09:41:13.802Z</time>
      </trkpt>
      <trkpt lat="47.610950" lon="8.059922">
        <ele>631.018272</ele>
        <time>2021-11-21T09:41:22.374Z</time>
      </trkpt>
      <trkpt lat="47.611222" lon="8.060034">
        <ele>631.580153</ele>
        <time>2021-11-21T09:41:28.532Z</time>
      </trkpt>
      <trkpt lat="47.611314" lon="8.060105">
        <ele>631.786578</ele>
        <time>2021-11-21T09:41:30.898Z</time>
      </trkpt>
      <trkpt lat="47.611373" lon="8.060182">
        <ele>631.943000</ele>
        <time>2021-11-21T09:41:33.117Z</time>
      </trkpt>
      <trkpt lat="47.611788" lon="8.061004">
        <ele>633.686136</ele>
        <time>2021-11-21T09:41:50.601Z</time>
      </trkpt>
      <trkpt lat="47.612021" lon="8.061323">
        <ele>634.919721</ele>
        <time>2021-11-21T09:41:59.567Z</time>
      </trkpt>
      <trkpt lat="47.612171" lon="8.061421">
        <ele>635.557393</ele>
        <time>2021-11-21T09:42:04.636Z</time>
      </trkpt>
      <trkpt lat="47.612531" lon="8.061447">
        <ele>636.959635</ele>
        <time>2021-11-21T09:42:16.011Z</time>
      </trkpt>
      <trkpt lat="47.612751" lon="8.061412">
        <ele>637.820455</ele>
        <time>2021-11-21T09:42:22.622Z</time>
      </trkpt>
      <trkpt lat="47.613627" lon="8.061178">
        <ele>641.578445</ele>
        <time>2021-11-21T09:42:52.093Z</time>
      </trkpt>
      <trkpt lat="47.613978" lon="8.060933">
        <ele>643.418222</ele>
        <time>2021-11-21T09:43:06.307Z</time>
      </trkpt>
      <trkpt lat="47.614147" lon="8.060535">
        <ele>644.922090</ele>
        <time>2021-11-21T09:43:17.853Z</time>
      </trkpt>
      <trkpt lat="47.614239" lon="8.060060">
        <ele>646.502180</ele>
        <time>2021-11-21T09:43:29.819Z</time>
      </trkpt>
      <trkpt lat="47.614248" lon="8.059802">
        <ele>647.328150</ele>
        <time>2021-11-21T09:43:35.423Z</time>
      </trkpt>
      <trkpt lat="47.614399" lon="8.059755">
        <ele>648.059895</ele>
        <time>2021-11-21T09:43:40.516Z</time>
      </trkpt>
      <trkpt lat="47.614565" lon="8.059680">
        <ele>648.637885</ele>
        <time>2021-11-21T09:43:45.621Z</time>
      </trkpt>
      <trkpt lat="47.615048" lon="8.059219">
        <ele>649.758359</ele>
        <time>2021-11-21T09:44:01.571Z</time>
      </trkpt>
      <trkpt lat="47.615348" lon="8.059227">
        <ele>650.343722</ele>
        <time>2021-11-21T09:44:08.690Z</time>
      </trkpt>
      <trkpt lat="47.615451" lon="8.059291">
        <ele>650.561579</ele>
        <time>2021-11-21T09:44:11.860Z</time>
      </trkpt>
      <trkpt lat="47.615486" lon="8.059322">
        <ele>650.641105</ele>
        <time>2021-11-21T09:44:12.335Z</time>
      </trkpt>
      <trkpt lat="47.615627" lon="8.059482">
        <ele>650.987431</ele>
        <time>2021-11-21T09:44:15.951Z</time>
      </trkpt>
      <trkpt lat="47.615672" lon="8.059665">
        <ele>651.243607</ele>
        <time>2021-11-21T09:44:18.838Z</time>
      </trkpt>
      <trkpt lat="47.615560" lon="8.060605">
        <ele>651.588399</ele>
        <time>2021-11-21T09:44:27.078Z</time>
      </trkpt>
      <trkpt lat="47.615649" lon="8.061223">
        <ele>650.973431</ele>
        <time>2021-11-21T09:44:32.542Z</time>
      </trkpt>
      <trkpt lat="47.615893" lon="8.061708">
        <ele>650.384510</ele>
        <time>2021-11-21T09:44:37.023Z</time>
      </trkpt>
      <trkpt lat="47.616006" lon="8.062039">
        <ele>650.023453</ele>
        <time>2021-11-21T09:44:39.805Z</time>
      </trkpt>
      <trkpt lat="47.616151" lon="8.062583">
        <ele>649.454191</ele>
        <time>2021-11-21T09:44:44.100Z</time>
      </trkpt>
      <trkpt lat="47.616304" lon="8.062945">
        <ele>648.740136</ele>
        <time>2021-11-21T09:44:47.181Z</time>
      </trkpt>
      <trkpt lat="47.616475" lon="8.063255">
        <ele>648.009100</ele>
        <time>2021-11-21T09:44:50.037Z</time>
      </trkpt>
      <trkpt lat="47.616877" lon="8.063786">
        <ele>646.551824</ele>
        <time>2021-11-21T09:44:55.714Z</time>
      </trkpt>
      <trkpt lat="47.616970" lon="8.064104">
        <ele>645.919209</ele>
        <time>2021-11-21T09:44:58.171Z</time>
      </trkpt>
      <trkpt lat="47.616911" lon="8.064532">
        <ele>645.121943</ele>
        <time>2021-11-21T09:45:01.201Z</time>
      </trkpt>
      <trkpt lat="47.616546" lon="8.065501">
        <ele>642.942045</ele>
        <time>2021-11-21T09:45:08.645Z</time>
      </trkpt>
      <trkpt lat="47.616370" lon="8.066435">
        <ele>640.979162</ele>
        <time>2021-11-21T09:45:15.271Z</time>
      </trkpt>
      <trkpt lat="47.616340" lon="8.066594">
        <ele>640.644978</ele>
        <time>2021-11-21T09:45:16.354Z</time>
      </trkpt>
      <trkpt lat="47.616393" lon="8.067205">
        <ele>639.398120</ele>
        <time>2021-11-21T09:45:20.695Z</time>
      </trkpt>
      <trkpt lat="47.616682" lon="8.068707">
        <ele>638.079169</ele>
        <time>2021-11-21T09:45:32.554Z</time>
      </trkpt>
      <trkpt lat="47.616924" lon="8.069947">
        <ele>637.168786</ele>
        <time>2021-11-21T09:45:44.982Z</time>
      </trkpt>
      <trkpt lat="47.616982" lon="8.070184">
        <ele>637.145016</ele>
        <time>2021-11-21T09:45:47.734Z</time>
      </trkpt>
      <trkpt lat="47.617122" lon="8.070498">
        <ele>637.109524</ele>
        <time>2021-11-21T09:45:51.405Z</time>
      </trkpt>
      <trkpt lat="47.617222" lon="8.070610">
        <ele>637.092000</ele>
        <time>2021-11-21T09:45:53.471Z</time>
      </trkpt>
      <trkpt lat="47.617356" lon="8.070721">
        <ele>637.070536</ele>
        <time>2021-11-21T09:45:55.648Z</time>
      </trkpt>
      <trkpt lat="47.617487" lon="8.070818">
        <ele>637.050059</ele>
        <time>2021-11-21T09:45:58.066Z</time>
      </trkpt>
      <trkpt lat="47.617681" lon="8.070905">
        <ele>637.021715</ele>
        <time>2021-11-21T09:46:00.947Z</time>
      </trkpt>
      <trkpt lat="47.617806" lon="8.070985">
        <ele>637.002675</ele>
        <time>2021-11-21T09:46:03.059Z</time>
      </trkpt>
      <trkpt lat="47.618063" lon="8.071006">
        <ele>636.966678</ele>
        <time>2021-11-21T09:46:06.631Z</time>
      </trkpt>
      <trkpt lat="47.618447" lon="8.070893">
        <ele>636.856021</ele>
        <time>2021-11-21T09:46:11.884Z</time>
      </trkpt>
      <trkpt lat="47.618628" lon="8.070987">
        <ele>636.667069</ele>
        <time>2021-11-21T09:46:14.280Z</time>
      </trkpt>
      <trkpt lat="47.618909" lon="8.071464">
        <ele>636.246333</ele>
        <time>2021-11-21T09:46:19.602Z</time>
      </trkpt>
      <trkpt lat="47.619109" lon="8.072083">
        <ele>635.790435</ele>
        <time>2021-11-21T09:46:25.374Z</time>
      </trkpt>
      <trkpt lat="47.619154" lon="8.072283">
        <ele>635.650401</ele>
        <time>2021-11-21T09:46:26.960Z</time>
      </trkpt>
      <trkpt lat="47.619210" lon="8.072542">
        <ele>635.469754</ele>
        <time>2021-11-21T09:46:29.384Z</time>
      </trkpt>
      <trkpt lat="47.619203" lon="8.072857">
        <ele>635.260435</ele>
        <time>2021-11-21T09:46:31.841Z</time>
      </trkpt>
      <trkpt lat="47.619212" lon="8.073576">
        <ele>634.675739</ele>
        <time>2021-11-21T09:46:37.441Z</time>
      </trkpt>
      <trkpt lat="47.619310" lon="8.074140">
        <ele>634.175774</ele>
        <time>2021-11-21T09:46:41.720Z</time>
      </trkpt>
      <trkpt lat="47.619299" lon="8.074448">
        <ele>633.911015</ele>
        <time>2021-11-21T09:46:43.955Z</time>
      </trkpt>
      <trkpt lat="47.619279" lon="8.075018">
        <ele>633.421065</ele>
        <time>2021-11-21T09:46:48.765Z</time>
      </trkpt>
      <trkpt lat="47.619231" lon="8.075298">
        <ele>633.173061</ele>
        <time>2021-11-21T09:46:51.364Z</time>
      </trkpt>
      <trkpt lat="47.619187" lon="8.075531">
        <ele>632.965353</ele>
        <time>2021-11-21T09:46:53.367Z</time>
      </trkpt>
      <trkpt lat="47.619141" lon="8.075753">
        <ele>632.866546</ele>
        <time>2021-11-21T09:46:55.536Z</time>
      </trkpt>
      <trkpt lat="47.619092" lon="8.075973">
        <ele>632.884038</ele>
        <time>2021-11-21T09:46:57.473Z</time>
      </trkpt>
      <trkpt lat="47.619067" lon="8.076161">
        <ele>632.898505</ele>
        <time>2021-11-21T09:46:59.247Z</time>
      </trkpt>
      <trkpt lat="47.619067" lon="8.076308">
        <ele>632.909603</ele>
        <time>2021-11-21T09:47:00.796Z</time>
      </trkpt>
      <trkpt lat="47.619094" lon="8.076402">
        <ele>632.917317</ele>
        <time>2021-11-21T09:47:01.809Z</time>
      </trkpt>
      <trkpt lat="47.619137" lon="8.076502">
        <ele>632.926272</ele>
        <time>2021-11-21T09:47:02.763Z</time>
      </trkpt>
      <trkpt lat="47.619188" lon="8.076589">
        <ele>632.934976</ele>
        <time>2021-11-21T09:47:03.753Z</time>
      </trkpt>
      <trkpt lat="47.619301" lon="8.076688">
        <ele>632.949675</ele>
        <time>2021-11-21T09:47:05.863Z</time>
      </trkpt>
      <trkpt lat="47.619883" lon="8.077003">
        <ele>633.019062</ele>
        <time>2021-11-21T09:47:15.049Z</time>
      </trkpt>
      <trkpt lat="47.620283" lon="8.076996">
        <ele>633.069795</ele>
        <time>2021-11-21T09:47:22.637Z</time>
      </trkpt>
      <trkpt lat="47.620440" lon="8.077023">
        <ele>633.113749</ele>
        <time>2021-11-21T09:47:26.350Z</time>
      </trkpt>
      <trkpt lat="47.620607" lon="8.077057">
        <ele>633.160627</ele>
        <time>2021-11-21T09:47:29.732Z</time>
      </trkpt>
      <trkpt lat="47.620982" lon="8.077127">
        <ele>633.265737</ele>
        <time>2021-11-21T09:47:37.108Z</time>
      </trkpt>
      <trkpt lat="47.621574" lon="8.077230">
        <ele>633.431501</ele>
        <time>2021-11-21T09:47:46.827Z</time>
      </trkpt>
      <trkpt lat="47.622283" lon="8.077256">
        <ele>633.320417</ele>
        <time>2021-11-21T09:47:55.665Z</time>
      </trkpt>
      <trkpt lat="47.622504" lon="8.077241">
        <ele>633.105674</ele>
        <time>2021-11-21T09:47:58.015Z</time>
      </trkpt>
      <trkpt lat="47.623376" lon="8.077254">
        <ele>632.259207</ele>
        <time>2021-11-21T09:48:09.280Z</time>
      </trkpt>
      <trkpt lat="47.623471" lon="8.077274">
        <ele>632.166070</ele>
        <time>2021-11-21T09:48:10.298Z</time>
      </trkpt>
      <trkpt lat="47.623552" lon="8.077247">
        <ele>632.085486</ele>
        <time>2021-11-21T09:48:11.146Z</time>
      </trkpt>
      <trkpt lat="47.623879" lon="8.077124">
        <ele>631.720380</ele>
        <time>2021-11-21T09:48:15.402Z</time>
      </trkpt>
      <trkpt lat="47.624103" lon="8.076894">
        <ele>631.278633</ele>
        <time>2021-11-21T09:48:19.255Z</time>
      </trkpt>
      <trkpt lat="47.624180" lon="8.076759">
        <ele>631.085339</ele>
        <time>2021-11-21T09:48:20.475Z</time>
      </trkpt>
      <trkpt lat="47.624269" lon="8.076430">
        <ele>630.697871</ele>
        <time>2021-11-21T09:48:23.943Z</time>
      </trkpt>
      <trkpt lat="47.624407" lon="8.075284">
        <ele>629.425501</ele>
        <time>2021-11-21T09:48:32.876Z</time>
      </trkpt>
      <trkpt lat="47.624441" lon="8.075001">
        <ele>629.111318</ele>
        <time>2021-11-21T09:48:35.093Z</time>
      </trkpt>
      <trkpt lat="47.624863" lon="8.073640">
        <ele>624.333864</ele>
        <time>2021-11-21T09:48:45.134Z</time>
      </trkpt>
      <trkpt lat="47.624905" lon="8.073105">
        <ele>622.446618</ele>
        <time>2021-11-21T09:48:48.440Z</time>
      </trkpt>
      <trkpt lat="47.624836" lon="8.072281">
        <ele>619.530164</ele>
        <time>2021-11-21T09:48:53.455Z</time>
      </trkpt>
      <trkpt lat="47.624723" lon="8.072004">
        <ele>617.551226</ele>
        <time>2021-11-21T09:48:55.353Z</time>
      </trkpt>
      <trkpt lat="47.624640" lon="8.071914">
        <ele>616.618985</ele>
        <time>2021-11-21T09:48:56.308Z</time>
      </trkpt>
      <trkpt lat="47.624483" lon="8.071745">
        <ele>614.860052</ele>
        <time>2021-11-21T09:48:57.990Z</time>
      </trkpt>
      <trkpt lat="47.624296" lon="8.071666">
        <ele>613.096894</ele>
        <time>2021-11-21T09:48:59.793Z</time>
      </trkpt>
      <trkpt lat="47.624222" lon="8.071648">
        <ele>612.416887</ele>
        <time>2021-11-21T09:49:00.444Z</time>
      </trkpt>
      <trkpt lat="47.624153" lon="8.071526">
        <ele>611.443487</ele>
        <time>2021-11-21T09:49:01.368Z</time>
      </trkpt>
      <trkpt lat="47.624160" lon="8.071361">
        <ele>610.433028</ele>
        <time>2021-11-21T09:49:02.352Z</time>
      </trkpt>
      <trkpt lat="47.624227" lon="8.071252">
        <ele>609.531384</ele>
        <time>2021-11-21T09:49:03.249Z</time>
      </trkpt>
      <trkpt lat="47.624276" lon="8.071247">
        <ele>609.085992</ele>
        <time>2021-11-21T09:49:03.659Z</time>
      </trkpt>
      <trkpt lat="47.624369" lon="8.071278">
        <ele>608.221626</ele>
        <time>2021-11-21T09:49:04.459Z</time>
      </trkpt>
      <trkpt lat="47.624764" lon="8.071624">
        <ele>604.062020</ele>
        <time>2021-11-21T09:49:08.400Z</time>
      </trkpt>
      <trkpt lat="47.624942" lon="8.071721">
        <ele>602.231467</ele>
        <time>2021-11-21T09:49:10.036Z</time>
      </trkpt>
      <trkpt lat="47.625345" lon="8.071941">
        <ele>597.853938</ele>
        <time>2021-11-21T09:49:13.687Z</time>
      </trkpt>
      <trkpt lat="47.625442" lon="8.072011">
        <ele>596.754339</ele>
        <time>2021-11-21T09:49:14.626Z</time>
      </trkpt>
      <trkpt lat="47.625533" lon="8.072131">
        <ele>595.513232</ele>
        <time>2021-11-21T09:49:15.728Z</time>
      </trkpt>
      <trkpt lat="47.625636" lon="8.072295">
        <ele>593.973050</ele>
        <time>2021-11-21T09:49:16.990Z</time>
      </trkpt>
      <trkpt lat="47.626074" lon="8.072927">
        <ele>587.744742</ele>
        <time>2021-11-21T09:49:22.323Z</time>
      </trkpt>
      <trkpt lat="47.626246" lon="8.073821">
        <ele>581.973715</ele>
        <time>2021-11-21T09:49:27.636Z</time>
      </trkpt>
      <trkpt lat="47.626738" lon="8.074978">
        <ele>574.210185</ele>
        <time>2021-11-21T09:49:35.703Z</time>
      </trkpt>
      <trkpt lat="47.626767" lon="8.075031">
        <ele>573.822773</ele>
        <time>2021-11-21T09:49:36.094Z</time>
      </trkpt>
      <trkpt lat="47.626796" lon="8.075092">
        <ele>573.399150</ele>
        <time>2021-11-21T09:49:36.589Z</time>
      </trkpt>
      <trkpt lat="47.626997" lon="8.074933">
        <ele>571.481193</ele>
        <time>2021-11-21T09:49:38.640Z</time>
      </trkpt>
      <trkpt lat="47.627035" lon="8.074922">
        <ele>571.155194</ele>
        <time>2021-11-21T09:49:38.996Z</time>
      </trkpt>
      <trkpt lat="47.627163" lon="8.074907">
        <ele>570.074053</ele>
        <time>2021-11-21T09:49:40.169Z</time>
      </trkpt>
      <trkpt lat="47.627226" lon="8.074926">
        <ele>569.671944</ele>
        <time>2021-11-21T09:49:40.739Z</time>
      </trkpt>
      <trkpt lat="47.627282" lon="8.074981">
        <ele>569.459858</ele>
        <time>2021-11-21T09:49:41.369Z</time>
      </trkpt>
      <trkpt lat="47.627315" lon="8.075027">
        <ele>569.316865</ele>
        <time>2021-11-21T09:49:41.792Z</time>
      </trkpt>
      <trkpt lat="47.627417" lon="8.075251">
        <ele>568.741483</ele>
        <time>2021-11-21T09:49:43.483Z</time>
      </trkpt>
      <trkpt lat="47.627470" lon="8.075586">
        <ele>568.009089</ele>
        <time>2021-11-21T09:49:45.636Z</time>
      </trkpt>
      <trkpt lat="47.627530" lon="8.076797">
        <ele>565.424655</ele>
        <time>2021-11-21T09:49:53.803Z</time>
      </trkpt>
      <trkpt lat="47.627646" lon="8.077902">
        <ele>565.207412</ele>
        <time>2021-11-21T09:50:07.189Z</time>
      </trkpt>
      <trkpt lat="47.627700" lon="8.077989">
        <ele>565.483914</ele>
        <time>2021-11-21T09:50:08.731Z</time>
      </trkpt>
      <trkpt lat="47.627778" lon="8.077982">
        <ele>565.754975</ele>
        <time>2021-11-21T09:50:10.333Z</time>
      </trkpt>
      <trkpt lat="47.627795" lon="8.077963">
        <ele>565.828802</ele>
        <time>2021-11-21T09:50:10.525Z</time>
      </trkpt>
      <trkpt lat="47.627807" lon="8.077901">
        <ele>565.979603</ele>
        <time>2021-11-21T09:50:12.617Z</time>
      </trkpt>
      <trkpt lat="47.627729" lon="8.077183">
        <ele>567.679797</ele>
        <time>2021-11-21T09:50:24.507Z</time>
      </trkpt>
      <trkpt lat="47.627803" lon="8.076266">
        <ele>569.838857</ele>
        <time>2021-11-21T09:50:45.390Z</time>
      </trkpt>
      <trkpt lat="47.627933" lon="8.075583">
        <ele>573.717793</ele>
        <time>2021-11-21T09:51:09.424Z</time>
      </trkpt>
      <trkpt lat="47.628218" lon="8.074738">
        <ele>580.069396</ele>
        <time>2021-11-21T09:51:41.169Z</time>
      </trkpt>
      <trkpt lat="47.628276" lon="8.074619">
        <ele>581.056564</ele>
        <time>2021-11-21T09:51:48.926Z</time>
      </trkpt>
      <trkpt lat="47.628458" lon="8.074266">
        <ele>584.044119</ele>
        <time>2021-11-21T09:52:05.616Z</time>
      </trkpt>
      <trkpt lat="47.628518" lon="8.074136">
        <ele>585.103237</ele>
        <time>2021-11-21T09:52:13.686Z</time>
      </trkpt>
      <trkpt lat="47.629078" lon="8.073298">
        <ele>593.363736</ele>
        <time>2021-11-21T09:53:03.711Z</time>
      </trkpt>
      <trkpt lat="47.629235" lon="8.073162">
        <ele>595.301293</ele>
        <time>2021-11-21T09:53:15.057Z</time>
      </trkpt>
      <trkpt lat="47.629440" lon="8.073070">
        <ele>597.583906</ele>
        <time>2021-11-21T09:53:29.222Z</time>
      </trkpt>
      <trkpt lat="47.629607" lon="8.072989">
        <ele>599.456450</ele>
        <time>2021-11-21T09:53:39.946Z</time>
      </trkpt>
      <trkpt lat="47.629784" lon="8.072768">
        <ele>601.921886</ele>
        <time>2021-11-21T09:53:52.170Z</time>
      </trkpt>
      <trkpt lat="47.629869" lon="8.072569">
        <ele>603.614126</ele>
        <time>2021-11-21T09:54:00.908Z</time>
      </trkpt>
      <trkpt lat="47.630177" lon="8.071986">
        <ele>608.533347</ele>
        <time>2021-11-21T09:54:24.267Z</time>
      </trkpt>
      <trkpt lat="47.630397" lon="8.071513">
        <ele>611.564370</ele>
        <time>2021-11-21T09:54:42.695Z</time>
      </trkpt>
      <trkpt lat="47.630509" lon="8.071288">
        <ele>613.039612</ele>
        <time>2021-11-21T09:54:51.608Z</time>
      </trkpt>
      <trkpt lat="47.630634" lon="8.071025">
        <ele>614.736908</ele>
        <time>2021-11-21T09:54:59.363Z</time>
      </trkpt>
      <trkpt lat="47.630661" lon="8.070938">
        <ele>615.242053</ele>
        <time>2021-11-21T09:55:02.817Z</time>
      </trkpt>
      <trkpt lat="47.630810" lon="8.070444">
        <ele>618.096397</ele>
        <time>2021-11-21T09:55:19.050Z</time>
      </trkpt>
      <trkpt lat="47.630961" lon="8.070003">
        <ele>620.705165</ele>
        <time>2021-11-21T09:55:34.236Z</time>
      </trkpt>
      <trkpt lat="47.631008" lon="8.069932">
        <ele>621.230043</ele>
        <time>2021-11-21T09:55:37.626Z</time>
      </trkpt>
      <trkpt lat="47.631061" lon="8.069919">
        <ele>621.666112</ele>
        <time>2021-11-21T09:55:40.561Z</time>
      </trkpt>
      <trkpt lat="47.631280" lon="8.070030">
        <ele>623.665556</ele>
        <time>2021-11-21T09:55:50.890Z</time>
      </trkpt>
      <trkpt lat="47.631351" lon="8.070073">
        <ele>624.328105</ele>
        <time>2021-11-21T09:55:55.567Z</time>
      </trkpt>
      <trkpt lat="47.631455" lon="8.070023">
        <ele>625.272626</ele>
        <time>2021-11-21T09:56:01.553Z</time>
      </trkpt>
      <trkpt lat="47.631553" lon="8.069983">
        <ele>626.150772</ele>
        <time>2021-11-21T09:56:05.504Z</time>
      </trkpt>
      <trkpt lat="47.631653" lon="8.070013">
        <ele>627.032231</ele>
        <time>2021-11-21T09:56:10.513Z</time>
      </trkpt>
      <trkpt lat="47.632000" lon="8.070310">
        <ele>630.493192</ele>
        <time>2021-11-21T09:56:30.463Z</time>
      </trkpt>
      <trkpt lat="47.632052" lon="8.070390">
        <ele>631.140335</ele>
        <time>2021-11-21T09:56:34.337Z</time>
      </trkpt>
      <trkpt lat="47.632052" lon="8.070390">
        <ele>631.140335</ele>
        <time>2021-11-21T09:56:34.522Z</time>
      </trkpt>
      <trkpt lat="47.632081" lon="8.070488">
        <ele>631.763505</ele>
        <time>2021-11-21T09:56:37.731Z</time>
      </trkpt>
      <trkpt lat="47.632159" lon="8.070941">
        <ele>634.485721</ele>
        <time>2021-11-21T09:56:53.555Z</time>
      </trkpt>
      <trkpt lat="47.632204" lon="8.071159">
        <ele>635.813182</ele>
        <time>2021-11-21T09:56:59.885Z</time>
      </trkpt>
      <trkpt lat="47.632237" lon="8.071288">
        <ele>636.616547</ele>
        <time>2021-11-21T09:57:05.000Z</time>
      </trkpt>
      <trkpt lat="47.632306" lon="8.071469">
        <ele>637.686277</ele>
        <time>2021-11-21T09:57:13.861Z</time>
      </trkpt>
      <trkpt lat="47.632452" lon="8.071633">
        <ele>638.985050</ele>
        <time>2021-11-21T09:57:22.452Z</time>
      </trkpt>
      <trkpt lat="47.632702" lon="8.071664">
        <ele>640.764424</ele>
        <time>2021-11-21T09:57:35.571Z</time>
      </trkpt>
      <trkpt lat="47.632880" lon="8.071504">
        <ele>642.240495</ele>
        <time>2021-11-21T09:57:44.306Z</time>
      </trkpt>
      <trkpt lat="47.633316" lon="8.070774">
        <ele>646.902832</ele>
        <time>2021-11-21T09:58:12.714Z</time>
      </trkpt>
      <trkpt lat="47.633424" lon="8.070724">
        <ele>647.705265</ele>
        <time>2021-11-21T09:58:17.295Z</time>
      </trkpt>
      <trkpt lat="47.633465" lon="8.070820">
        <ele>648.248500</ele>
        <time>2021-11-21T09:58:20.861Z</time>
      </trkpt>
      <trkpt lat="47.633602" lon="8.070959">
        <ele>649.425617</ele>
        <time>2021-11-21T09:58:24.981Z</time>
      </trkpt>
      <trkpt lat="47.633800" lon="8.071024">
        <ele>650.174248</ele>
        <time>2021-11-21T09:58:33.152Z</time>
      </trkpt>
      <trkpt lat="47.634040" lon="8.070944">
        <ele>650.791068</ele>
        <time>2021-11-21T09:58:39.878Z</time>
      </trkpt>
      <trkpt lat="47.634117" lon="8.070874">
        <ele>651.017504</ele>
        <time>2021-11-21T09:58:43.983Z</time>
      </trkpt>
      <trkpt lat="47.634145" lon="8.070841">
        <ele>651.107166</ele>
        <time>2021-11-21T09:58:44.968Z</time>
      </trkpt>
      <trkpt lat="47.634167" lon="8.070797">
        <ele>651.199748</ele>
        <time>2021-11-21T09:58:45.818Z</time>
      </trkpt>
      <trkpt lat="47.634207" lon="8.070680">
        <ele>651.421440</ele>
        <time>2021-11-21T09:58:47.824Z</time>
      </trkpt>
      <trkpt lat="47.634455" lon="8.069272">
        <ele>653.880571</ele>
        <time>2021-11-21T09:59:12.194Z</time>
      </trkpt>
      <trkpt lat="47.634714" lon="8.068924">
        <ele>653.697585</ele>
        <time>2021-11-21T09:59:16.449Z</time>
      </trkpt>
      <trkpt lat="47.635007" lon="8.068709">
        <ele>652.585377</ele>
        <time>2021-11-21T09:59:19.855Z</time>
      </trkpt>
      <trkpt lat="47.635064" lon="8.068670">
        <ele>652.371802</ele>
        <time>2021-11-21T09:59:20.521Z</time>
      </trkpt>
      <trkpt lat="47.635593" lon="8.068280">
        <ele>650.361900</ele>
        <time>2021-11-21T09:59:26.305Z</time>
      </trkpt>
      <trkpt lat="47.636030" lon="8.067758">
        <ele>648.453078</ele>
        <time>2021-11-21T09:59:31.596Z</time>
      </trkpt>
      <trkpt lat="47.636255" lon="8.067645">
        <ele>647.416913</ele>
        <time>2021-11-21T09:59:33.807Z</time>
      </trkpt>
      <trkpt lat="47.636473" lon="8.067576">
        <ele>646.339691</ele>
        <time>2021-11-21T09:59:35.835Z</time>
      </trkpt>
      <trkpt lat="47.637095" lon="8.067604">
        <ele>643.332372</ele>
        <time>2021-11-21T09:59:41.627Z</time>
      </trkpt>
      <trkpt lat="47.637446" lon="8.067533">
        <ele>641.620412</ele>
        <time>2021-11-21T09:59:45.000Z</time>
      </trkpt>
      <trkpt lat="47.637907" lon="8.066783">
        <ele>638.910994</ele>
        <time>2021-11-21T09:59:51.783Z</time>
      </trkpt>
      <trkpt lat="47.638098" lon="8.066683">
        <ele>638.426779</ele>
        <time>2021-11-21T09:59:53.757Z</time>
      </trkpt>
      <trkpt lat="47.638245" lon="8.066779">
        <ele>638.042818</ele>
        <time>2021-11-21T09:59:55.582Z</time>
      </trkpt>
      <trkpt lat="47.638315" lon="8.066947">
        <ele>637.724622</ele>
        <time>2021-11-21T09:59:56.902Z</time>
      </trkpt>
      <trkpt lat="47.638358" lon="8.067054">
        <ele>637.523927</ele>
        <time>2021-11-21T09:59:57.758Z</time>
      </trkpt>
      <trkpt lat="47.638398" lon="8.067564">
        <ele>636.696819</ele>
        <time>2021-11-21T10:00:01.484Z</time>
      </trkpt>
      <trkpt lat="47.638387" lon="8.067918">
        <ele>636.125953</ele>
        <time>2021-11-21T10:00:04.298Z</time>
      </trkpt>
      <trkpt lat="47.638331" lon="8.068124">
        <ele>635.768117</ele>
        <time>2021-11-21T10:00:05.938Z</time>
      </trkpt>
      <trkpt lat="47.637673" lon="8.068998">
        <ele>635.398350</ele>
        <time>2021-11-21T10:00:16.830Z</time>
      </trkpt>
      <trkpt lat="47.637473" lon="8.069474">
        <ele>635.518006</ele>
        <time>2021-11-21T10:00:22.201Z</time>
      </trkpt>
      <trkpt lat="47.637243" lon="8.070350">
        <ele>635.718546</ele>
        <time>2021-11-21T10:00:33.691Z</time>
      </trkpt>
      <trkpt lat="47.637005" lon="8.071906">
        <ele>639.607629</ele>
        <time>2021-11-21T10:01:03.543Z</time>
      </trkpt>
      <trkpt lat="47.637014" lon="8.072696">
        <ele>641.805103</ele>
        <time>2021-11-21T10:01:22.165Z</time>
      </trkpt>
      <trkpt lat="47.637086" lon="8.073086">
        <ele>642.929750</ele>
        <time>2021-11-21T10:01:32.450Z</time>
      </trkpt>
      <trkpt lat="47.637325" lon="8.073264">
        <ele>644.604398</ele>
        <time>2021-11-21T10:01:42.799Z</time>
      </trkpt>
      <trkpt lat="47.638036" lon="8.073031">
        <ele>649.639209</ele>
        <time>2021-11-21T10:02:12.714Z</time>
      </trkpt>
      <trkpt lat="47.638244" lon="8.073065">
        <ele>651.086172</ele>
        <time>2021-11-21T10:02:22.545Z</time>
      </trkpt>
      <trkpt lat="47.638400" lon="8.073182">
        <ele>652.294789</ele>
        <time>2021-11-21T10:02:30.029Z</time>
      </trkpt>
      <trkpt lat="47.638597" lon="8.073597">
        <ele>654.660010</ele>
        <time>2021-11-21T10:02:45.791Z</time>
      </trkpt>
      <trkpt lat="47.638677" lon="8.074518">
        <ele>659.149771</ele>
        <time>2021-11-21T10:03:13.948Z</time>
      </trkpt>
      <trkpt lat="47.638725" lon="8.074712">
        <ele>660.159396</ele>
        <time>2021-11-21T10:03:20.493Z</time>
      </trkpt>
      <trkpt lat="47.638803" lon="8.074901">
        <ele>661.242144</ele>
        <time>2021-11-21T10:03:27.177Z</time>
      </trkpt>
      <trkpt lat="47.639086" lon="8.075219">
        <ele>663.815760</ele>
        <time>2021-11-21T10:03:43.102Z</time>
      </trkpt>
      <trkpt lat="47.639260" lon="8.075325">
        <ele>665.179464</ele>
        <time>2021-11-21T10:03:51.559Z</time>
      </trkpt>
      <trkpt lat="47.639372" lon="8.075344">
        <ele>665.996790</ele>
        <time>2021-11-21T10:03:56.532Z</time>
      </trkpt>
      <trkpt lat="47.639498" lon="8.075360">
        <ele>666.913671</ele>
        <time>2021-11-21T10:04:01.525Z</time>
      </trkpt>
      <trkpt lat="47.639645" lon="8.075337">
        <ele>667.985377</ele>
        <time>2021-11-21T10:04:08.229Z</time>
      </trkpt>
      <trkpt lat="47.639818" lon="8.075303">
        <ele>668.972922</ele>
        <time>2021-11-21T10:04:15.340Z</time>
      </trkpt>
      <trkpt lat="47.639948" lon="8.075277">
        <ele>669.472256</ele>
        <time>2021-11-21T10:04:20.856Z</time>
      </trkpt>
      <trkpt lat="47.640299" lon="8.075205">
        <ele>670.821083</ele>
        <time>2021-11-21T10:04:34.255Z</time>
      </trkpt>
      <trkpt lat="47.640423" lon="8.075250">
        <ele>671.307010</ele>
        <time>2021-11-21T10:04:38.391Z</time>
      </trkpt>
      <trkpt lat="47.640552" lon="8.075324">
        <ele>671.833467</ele>
        <time>2021-11-21T10:04:42.272Z</time>
      </trkpt>
      <trkpt lat="47.640704" lon="8.075518">
        <ele>672.596597</ele>
        <time>2021-11-21T10:04:48.657Z</time>
      </trkpt>
      <trkpt lat="47.640775" lon="8.075712">
        <ele>673.162836</ele>
        <time>2021-11-21T10:04:52.139Z</time>
      </trkpt>
      <trkpt lat="47.640836" lon="8.075921">
        <ele>673.747014</ele>
        <time>2021-11-21T10:04:55.846Z</time>
      </trkpt>
      <trkpt lat="47.641006" lon="8.076502">
        <ele>675.371615</ele>
        <time>2021-11-21T10:05:04.934Z</time>
      </trkpt>
      <trkpt lat="47.641038" lon="8.076611">
        <ele>675.543563</ele>
        <time>2021-11-21T10:05:06.466Z</time>
      </trkpt>
      <trkpt lat="47.641055" lon="8.076690">
        <ele>675.583624</ele>
        <time>2021-11-21T10:05:07.502Z</time>
      </trkpt>
      <trkpt lat="47.641113" lon="8.077040">
        <ele>675.757737</ele>
        <time>2021-11-21T10:05:12.560Z</time>
      </trkpt>
      <trkpt lat="47.641140" lon="8.077438">
        <ele>675.950970</ele>
        <time>2021-11-21T10:05:17.460Z</time>
      </trkpt>
      <trkpt lat="47.641168" lon="8.077834">
        <ele>676.143316</ele>
        <time>2021-11-21T10:05:22.495Z</time>
      </trkpt>
      <trkpt lat="47.641173" lon="8.078162">
        <ele>676.301803</ele>
        <time>2021-11-21T10:05:26.149Z</time>
      </trkpt>
      <trkpt lat="47.641183" lon="8.078369">
        <ele>676.402054</ele>
        <time>2021-11-21T10:05:28.464Z</time>
      </trkpt>
      <trkpt lat="47.641234" lon="8.078534">
        <ele>676.489748</ele>
        <time>2021-11-21T10:05:30.255Z</time>
      </trkpt>
      <trkpt lat="47.641346" lon="8.078436">
        <ele>676.582963</ele>
        <time>2021-11-21T10:05:32.350Z</time>
      </trkpt>
      <trkpt lat="47.641535" lon="8.078330">
        <ele>676.727821</ele>
        <time>2021-11-21T10:05:35.260Z</time>
      </trkpt>
      <trkpt lat="47.641566" lon="8.078312">
        <ele>676.751687</ele>
        <time>2021-11-21T10:05:35.708Z</time>
      </trkpt>
      <trkpt lat="47.641645" lon="8.078278">
        <ele>676.797299</ele>
        <time>2021-11-21T10:05:36.953Z</time>
      </trkpt>
      <trkpt lat="47.642173" lon="8.078036">
        <ele>676.563567</ele>
        <time>2021-11-21T10:05:45.575Z</time>
      </trkpt>
      <trkpt lat="47.642278" lon="8.077985">
        <ele>676.516838</ele>
        <time>2021-11-21T10:05:47.086Z</time>
      </trkpt>
      <trkpt lat="47.642338" lon="8.077947">
        <ele>676.489246</ele>
        <time>2021-11-21T10:05:48.068Z</time>
      </trkpt>
      <trkpt lat="47.642505" lon="8.077864">
        <ele>676.414756</ele>
        <time>2021-11-21T10:05:50.744Z</time>
      </trkpt>
      <trkpt lat="47.642673" lon="8.077700">
        <ele>676.329706</ele>
        <time>2021-11-21T10:05:53.459Z</time>
      </trkpt>
      <trkpt lat="47.642756" lon="8.077585">
        <ele>676.281680</ele>
        <time>2021-11-21T10:05:55.068Z</time>
      </trkpt>
      <trkpt lat="47.642783" lon="8.077565">
        <ele>676.268917</ele>
        <time>2021-11-21T10:05:55.415Z</time>
      </trkpt>
      <trkpt lat="47.642883" lon="8.077532">
        <ele>676.225587</ele>
        <time>2021-11-21T10:05:56.551Z</time>
      </trkpt>
      <trkpt lat="47.642958" lon="8.077563">
        <ele>676.192658</ele>
        <time>2021-11-21T10:05:57.383Z</time>
      </trkpt>
      <trkpt lat="47.643023" lon="8.077678">
        <ele>676.149881</ele>
        <time>2021-11-21T10:05:58.506Z</time>
      </trkpt>
      <trkpt lat="47.643089" lon="8.077859">
        <ele>676.091231</ele>
        <time>2021-11-21T10:06:00.332Z</time>
      </trkpt>
      <trkpt lat="47.643222" lon="8.078217">
        <ele>676.258778</ele>
        <time>2021-11-21T10:06:03.413Z</time>
      </trkpt>
      <trkpt lat="47.643394" lon="8.078693">
        <ele>676.759747</ele>
        <time>2021-11-21T10:06:08.141Z</time>
      </trkpt>
      <trkpt lat="47.643585" lon="8.079161">
        <ele>677.267234</ele>
        <time>2021-11-21T10:06:15.223Z</time>
      </trkpt>
      <trkpt lat="47.643706" lon="8.079483">
        <ele>677.609193</ele>
        <time>2021-11-21T10:06:20.484Z</time>
      </trkpt>
      <trkpt lat="47.643796" lon="8.079638">
        <ele>677.798973</ele>
        <time>2021-11-21T10:06:23.602Z</time>
      </trkpt>
      <trkpt lat="47.643796" lon="8.079638">
        <ele>677.798973</ele>
        <time>2021-11-21T10:06:23.766Z</time>
      </trkpt>
      <trkpt lat="47.643914" lon="8.079755">
        <ele>677.994325</ele>
        <time>2021-11-21T10:06:26.875Z</time>
      </trkpt>
      <trkpt lat="47.644263" lon="8.079812">
        <ele>678.477662</ele>
        <time>2021-11-21T10:06:36.753Z</time>
      </trkpt>
      <trkpt lat="47.644475" lon="8.079742">
        <ele>679.512141</ele>
        <time>2021-11-21T10:06:43.060Z</time>
      </trkpt>
      <trkpt lat="47.644537" lon="8.079719">
        <ele>679.849838</ele>
        <time>2021-11-21T10:06:45.533Z</time>
      </trkpt>
      <trkpt lat="47.644785" lon="8.079581">
        <ele>681.249379</ele>
        <time>2021-11-21T10:06:54.836Z</time>
      </trkpt>
      <trkpt lat="47.644963" lon="8.079483">
        <ele>682.252584</ele>
        <time>2021-11-21T10:07:01.502Z</time>
      </trkpt>
      <trkpt lat="47.645434" lon="8.079222">
        <ele>684.909223</ele>
        <time>2021-11-21T10:07:22.985Z</time>
      </trkpt>
      <trkpt lat="47.645677" lon="8.079047">
        <ele>686.336435</ele>
        <time>2021-11-21T10:07:33.633Z</time>
      </trkpt>
      <trkpt lat="47.645889" lon="8.078784">
        <ele>687.796428</ele>
        <time>2021-11-21T10:07:43.961Z</time>
      </trkpt>
      <trkpt lat="47.645950" lon="8.078629">
        <ele>688.222090</ele>
        <time>2021-11-21T10:07:48.898Z</time>
      </trkpt>
      <trkpt lat="47.645950" lon="8.078629">
        <ele>688.222090</ele>
        <time>2021-11-21T10:07:48.924Z</time>
      </trkpt>
      <trkpt lat="47.645989" lon="8.078503">
        <ele>688.461047</ele>
        <time>2021-11-21T10:07:51.847Z</time>
      </trkpt>
      <trkpt lat="47.646023" lon="8.078200">
        <ele>688.990401</ele>
        <time>2021-11-21T10:07:57.820Z</time>
      </trkpt>
      <trkpt lat="47.646012" lon="8.077846">
        <ele>689.601100</ele>
        <time>2021-11-21T10:08:04.450Z</time>
      </trkpt>
      <trkpt lat="47.645976" lon="8.077110">
        <ele>690.872791</ele>
        <time>2021-11-21T10:08:17.242Z</time>
      </trkpt>
      <trkpt lat="47.645969" lon="8.076522">
        <ele>691.886254</ele>
        <time>2021-11-21T10:08:24.912Z</time>
      </trkpt>
      <trkpt lat="47.646103" lon="8.074933">
        <ele>692.956589</ele>
        <time>2021-11-21T10:08:41.582Z</time>
      </trkpt>
      <trkpt lat="47.646078" lon="8.074303">
        <ele>693.136069</ele>
        <time>2021-11-21T10:08:47.631Z</time>
      </trkpt>
      <trkpt lat="47.646056" lon="8.073911">
        <ele>693.247939</ele>
        <time>2021-11-21T10:08:52.090Z</time>
      </trkpt>
      <trkpt lat="47.646054" lon="8.073484">
        <ele>693.369379</ele>
        <time>2021-11-21T10:08:57.250Z</time>
      </trkpt>
      <trkpt lat="47.646089" lon="8.073135">
        <ele>693.998890</ele>
        <time>2021-11-21T10:09:01.825Z</time>
      </trkpt>
      <trkpt lat="47.646124" lon="8.072937">
        <ele>694.408113</ele>
        <time>2021-11-21T10:09:04.738Z</time>
      </trkpt>
      <trkpt lat="47.646186" lon="8.072687">
        <ele>694.940678</ele>
        <time>2021-11-21T10:09:08.490Z</time>
      </trkpt>
      <trkpt lat="47.646327" lon="8.072312">
        <ele>695.799195</ele>
        <time>2021-11-21T10:09:15.225Z</time>
      </trkpt>
      <trkpt lat="47.647075" lon="8.070722">
        <ele>700.695386</ele>
        <time>2021-11-21T10:09:55.990Z</time>
      </trkpt>
      <trkpt lat="47.647265" lon="8.070085">
        <ele>703.571621</ele>
        <time>2021-11-21T10:10:13.996Z</time>
      </trkpt>
      <trkpt lat="47.647321" lon="8.068746">
        <ele>709.110608</ele>
        <time>2021-11-21T10:10:50.711Z</time>
      </trkpt>
      <trkpt lat="47.647376" lon="8.068531">
        <ele>710.208895</ele>
        <time>2021-11-21T10:10:58.238Z</time>
      </trkpt>
      <trkpt lat="47.647469" lon="8.068356">
        <ele>711.559639</ele>
        <time>2021-11-21T10:11:05.223Z</time>
      </trkpt>
      <trkpt lat="47.647725" lon="8.068128">
        <ele>714.245138</ele>
        <time>2021-11-21T10:11:21.132Z</time>
      </trkpt>
      <trkpt lat="47.648545" lon="8.067800">
        <ele>721.884387</ele>
        <time>2021-11-21T10:12:04.852Z</time>
      </trkpt>
      <trkpt lat="47.648738" lon="8.067667">
        <ele>723.798437</ele>
        <time>2021-11-21T10:12:16.635Z</time>
      </trkpt>
      <trkpt lat="47.648808" lon="8.067613">
        <ele>724.508061</ele>
        <time>2021-11-21T10:12:20.365Z</time>
      </trkpt>
      <trkpt lat="47.649093" lon="8.067348">
        <ele>727.585744</ele>
        <time>2021-11-21T10:12:38.262Z</time>
      </trkpt>
      <trkpt lat="47.649584" lon="8.066823">
        <ele>733.206584</ele>
        <time>2021-11-21T10:13:10.697Z</time>
      </trkpt>
      <trkpt lat="47.649937" lon="8.066330">
        <ele>737.708649</ele>
        <time>2021-11-21T10:13:37.108Z</time>
      </trkpt>
      <trkpt lat="47.650216" lon="8.065792">
        <ele>741.957161</ele>
        <time>2021-11-21T10:13:59.400Z</time>
      </trkpt>
      <trkpt lat="47.650692" lon="8.064505">
        <ele>750.162407</ele>
        <time>2021-11-21T10:14:47.419Z</time>
      </trkpt>
      <trkpt lat="47.650976" lon="8.063919">
        <ele>754.158674</ele>
        <time>2021-11-21T10:15:10.610Z</time>
      </trkpt>
      <trkpt lat="47.651272" lon="8.063423">
        <ele>757.739153</ele>
        <time>2021-11-21T10:15:31.557Z</time>
      </trkpt>
      <trkpt lat="47.651438" lon="8.063140">
        <ele>759.379912</ele>
        <time>2021-11-21T10:15:42.438Z</time>
      </trkpt>
      <trkpt lat="47.651791" lon="8.062577">
        <ele>762.742885</ele>
        <time>2021-11-21T10:16:05.181Z</time>
      </trkpt>
      <trkpt lat="47.652042" lon="8.062098">
        <ele>765.396303</ele>
        <time>2021-11-21T10:16:21.991Z</time>
      </trkpt>
      <trkpt lat="47.652230" lon="8.061579">
        <ele>767.972848</ele>
        <time>2021-11-21T10:16:36.949Z</time>
      </trkpt>
      <trkpt lat="47.652273" lon="8.061463">
        <ele>768.551764</ele>
        <time>2021-11-21T10:16:39.769Z</time>
      </trkpt>
      <trkpt lat="47.652355" lon="8.061236">
        <ele>769.493686</ele>
        <time>2021-11-21T10:16:46.054Z</time>
      </trkpt>
      <trkpt lat="47.653089" lon="8.057595">
        <ele>782.020875</ele>
        <time>2021-11-21T10:18:08.078Z</time>
      </trkpt>
      <trkpt lat="47.653505" lon="8.056149">
        <ele>788.004573</ele>
        <time>2021-11-21T10:18:53.687Z</time>
      </trkpt>
      <trkpt lat="47.653801" lon="8.055612">
        <ele>790.347380</ele>
        <time>2021-11-21T10:19:13.680Z</time>
      </trkpt>
      <trkpt lat="47.653924" lon="8.055478">
        <ele>791.112105</ele>
        <time>2021-11-21T10:19:18.814Z</time>
      </trkpt>
      <trkpt lat="47.654091" lon="8.055337">
        <ele>792.075087</ele>
        <time>2021-11-21T10:19:26.604Z</time>
      </trkpt>
      <trkpt lat="47.654374" lon="8.055215">
        <ele>793.552198</ele>
        <time>2021-11-21T10:19:36.240Z</time>
      </trkpt>
      <trkpt lat="47.654649" lon="8.055178">
        <ele>794.936260</ele>
        <time>2021-11-21T10:19:43.752Z</time>
      </trkpt>
      <trkpt lat="47.654776" lon="8.055166">
        <ele>795.574125</ele>
        <time>2021-11-21T10:19:48.546Z</time>
      </trkpt>
      <trkpt lat="47.654902" lon="8.055142">
        <ele>796.210866</ele>
        <time>2021-11-21T10:19:51.062Z</time>
      </trkpt>
      <trkpt lat="47.655044" lon="8.055120">
        <ele>796.557742</ele>
        <time>2021-11-21T10:19:55.230Z</time>
      </trkpt>
      <trkpt lat="47.655228" lon="8.055083">
        <ele>796.766641</ele>
        <time>2021-11-21T10:19:59.852Z</time>
      </trkpt>
      <trkpt lat="47.655663" lon="8.054877">
        <ele>797.280334</ele>
        <time>2021-11-21T10:20:09.300Z</time>
      </trkpt>
      <trkpt lat="47.656028" lon="8.054401">
        <ele>797.826911</ele>
        <time>2021-11-21T10:20:16.161Z</time>
      </trkpt>
      <trkpt lat="47.656691" lon="8.052442">
        <ele>801.180330</ele>
        <time>2021-11-21T10:20:41.765Z</time>
      </trkpt>
      <trkpt lat="47.657233" lon="8.051128">
        <ele>804.938633</ele>
        <time>2021-11-21T10:21:17.424Z</time>
      </trkpt>
      <trkpt lat="47.657270" lon="8.051054">
        <ele>805.409114</ele>
        <time>2021-11-21T10:21:21.145Z</time>
      </trkpt>
      <trkpt lat="47.657744" lon="8.050107">
        <ele>811.432230</ele>
        <time>2021-11-21T10:21:55.712Z</time>
      </trkpt>
      <trkpt lat="47.658710" lon="8.048656">
        <ele>822.985505</ele>
        <time>2021-11-21T10:23:03.936Z</time>
      </trkpt>
      <trkpt lat="47.658773" lon="8.048582">
        <ele>823.754072</ele>
        <time>2021-11-21T10:23:09.144Z</time>
      </trkpt>
      <trkpt lat="47.659082" lon="8.048252">
        <ele>827.395765</ele>
        <time>2021-11-21T10:23:28.867Z</time>
      </trkpt>
      <trkpt lat="47.659595" lon="8.047880">
        <ele>832.857944</ele>
        <time>2021-11-21T10:24:00.430Z</time>
      </trkpt>
      <trkpt lat="47.660086" lon="8.047760">
        <ele>837.539149</ele>
        <time>2021-11-21T10:24:28.860Z</time>
      </trkpt>
      <trkpt lat="47.660317" lon="8.047787">
        <ele>839.695261</ele>
        <time>2021-11-21T10:24:40.862Z</time>
      </trkpt>
      <trkpt lat="47.660542" lon="8.047857">
        <ele>841.834361</ele>
        <time>2021-11-21T10:24:52.809Z</time>
      </trkpt>
      <trkpt lat="47.660765" lon="8.047957">
        <ele>844.001960</ele>
        <time>2021-11-21T10:25:03.772Z</time>
      </trkpt>
      <trkpt lat="47.661195" lon="8.048211">
        <ele>848.308147</ele>
        <time>2021-11-21T10:25:28.161Z</time>
      </trkpt>
      <trkpt lat="47.661239" lon="8.048237">
        <ele>848.748802</ele>
        <time>2021-11-21T10:25:30.778Z</time>
      </trkpt>
      <trkpt lat="47.661276" lon="8.048259">
        <ele>849.119669</ele>
        <time>2021-11-21T10:25:33.164Z</time>
      </trkpt>
      <trkpt lat="47.661724" lon="8.048774">
        <ele>853.561848</ele>
        <time>2021-11-21T10:26:01.316Z</time>
      </trkpt>
      <trkpt lat="47.661762" lon="8.048820">
        <ele>853.889252</ele>
        <time>2021-11-21T10:26:04.670Z</time>
      </trkpt>
      <trkpt lat="47.661813" lon="8.048882">
        <ele>854.329411</ele>
        <time>2021-11-21T10:26:07.664Z</time>
      </trkpt>
      <trkpt lat="47.662121" lon="8.049064">
        <ele>856.543058</ele>
        <time>2021-11-21T10:26:22.328Z</time>
      </trkpt>
      <trkpt lat="47.662274" lon="8.049092">
        <ele>857.572487</ele>
        <time>2021-11-21T10:26:27.954Z</time>
      </trkpt>
      <trkpt lat="47.662352" lon="8.049105">
        <ele>858.096623</ele>
        <time>2021-11-21T10:26:30.517Z</time>
      </trkpt>
      <trkpt lat="47.662508" lon="8.049079">
        <ele>859.144896</ele>
        <time>2021-11-21T10:26:37.753Z</time>
      </trkpt>
      <trkpt lat="47.662870" lon="8.048875">
        <ele>861.730498</ele>
        <time>2021-11-21T10:26:52.151Z</time>
      </trkpt>
      <trkpt lat="47.662987" lon="8.048787">
        <ele>862.606319</ele>
        <time>2021-11-21T10:26:56.195Z</time>
      </trkpt>
      <trkpt lat="47.663168" lon="8.048652">
        <ele>863.752390</ele>
        <time>2021-11-21T10:27:04.079Z</time>
      </trkpt>
      <trkpt lat="47.663538" lon="8.048209">
        <ele>865.603327</ele>
        <time>2021-11-21T10:27:17.511Z</time>
      </trkpt>
      <trkpt lat="47.663701" lon="8.047882">
        <ele>866.670295</ele>
        <time>2021-11-21T10:27:25.817Z</time>
      </trkpt>
      <trkpt lat="47.663756" lon="8.047691">
        <ele>867.215093</ele>
        <time>2021-11-21T10:27:29.865Z</time>
      </trkpt>
      <trkpt lat="47.663810" lon="8.047427">
        <ele>867.938707</ele>
        <time>2021-11-21T10:27:35.171Z</time>
      </trkpt>
      <trkpt lat="47.663895" lon="8.046633">
        <ele>870.047247</ele>
        <time>2021-11-21T10:27:51.019Z</time>
      </trkpt>
      <trkpt lat="47.663939" lon="8.046061">
        <ele>871.707243</ele>
        <time>2021-11-21T10:28:02.127Z</time>
      </trkpt>
      <trkpt lat="47.664016" lon="8.045043">
        <ele>874.764012</ele>
        <time>2021-11-21T10:28:25.018Z</time>
      </trkpt>
      <trkpt lat="47.664042" lon="8.044519">
        <ele>876.331843</ele>
        <time>2021-11-21T10:28:37.287Z</time>
      </trkpt>
      <trkpt lat="47.663981" lon="8.043746">
        <ele>878.573628</ele>
        <time>2021-11-21T10:28:55.388Z</time>
      </trkpt>
      <trkpt lat="47.663905" lon="8.043336">
        <ele>879.371861</ele>
        <time>2021-11-21T10:29:05.171Z</time>
      </trkpt>
      <trkpt lat="47.663729" lon="8.042678">
        <ele>880.700847</ele>
        <time>2021-11-21T10:29:18.342Z</time>
      </trkpt>
      <trkpt lat="47.663654" lon="8.042301">
        <ele>881.438749</ele>
        <time>2021-11-21T10:29:24.944Z</time>
      </trkpt>
      <trkpt lat="47.663632" lon="8.041681">
        <ele>882.604176</ele>
        <time>2021-11-21T10:29:34.234Z</time>
      </trkpt>
      <trkpt lat="47.663626" lon="8.041348">
        <ele>883.229480</ele>
        <time>2021-11-21T10:29:39.348Z</time>
      </trkpt>
      <trkpt lat="47.663604" lon="8.040960">
        <ele>883.665740</ele>
        <time>2021-11-21T10:29:43.971Z</time>
      </trkpt>
      <trkpt lat="47.663465" lon="8.040394">
        <ele>884.143641</ele>
        <time>2021-11-21T10:29:51.151Z</time>
      </trkpt>
      <trkpt lat="47.663389" lon="8.040182">
        <ele>884.334152</ele>
        <time>2021-11-21T10:29:53.943Z</time>
      </trkpt>
      <trkpt lat="47.663346" lon="8.040076">
        <ele>884.432313</ele>
        <time>2021-11-21T10:29:55.479Z</time>
      </trkpt>
      <trkpt lat="47.663165" lon="8.039787">
        <ele>884.745373</ele>
        <time>2021-11-21T10:30:00.195Z</time>
      </trkpt>
      <trkpt lat="47.662994" lon="8.039590">
        <ele>885.000299</ele>
        <time>2021-11-21T10:30:04.582Z</time>
      </trkpt>
      <trkpt lat="47.662607" lon="8.039318">
        <ele>885.504613</ele>
        <time>2021-11-21T10:30:12.467Z</time>
      </trkpt>
      <trkpt lat="47.662539" lon="8.039274">
        <ele>885.611354</ele>
        <time>2021-11-21T10:30:14.067Z</time>
      </trkpt>
      <trkpt lat="47.662271" lon="8.039086">
        <ele>886.249946</ele>
        <time>2021-11-21T10:30:20.915Z</time>
      </trkpt>
      <trkpt lat="47.661891" lon="8.038641">
        <ele>887.292636</ele>
        <time>2021-11-21T10:30:33.555Z</time>
      </trkpt>
      <trkpt lat="47.661789" lon="8.038453">
        <ele>887.642935</ele>
        <time>2021-11-21T10:30:38.026Z</time>
      </trkpt>
      <trkpt lat="47.661689" lon="8.038216">
        <ele>888.048746</ele>
        <time>2021-11-21T10:30:42.866Z</time>
      </trkpt>
      <trkpt lat="47.661582" lon="8.037913">
        <ele>888.545182</ele>
        <time>2021-11-21T10:30:48.904Z</time>
      </trkpt>
      <trkpt lat="47.661241" lon="8.036936">
        <ele>889.345288</ele>
        <time>2021-11-21T10:31:04.814Z</time>
      </trkpt>
      <trkpt lat="47.660975" lon="8.036110">
        <ele>889.157990</ele>
        <time>2021-11-21T10:31:14.843Z</time>
      </trkpt>
      <trkpt lat="47.660914" lon="8.035843">
        <ele>889.100313</ele>
        <time>2021-11-21T10:31:17.095Z</time>
      </trkpt>
      <trkpt lat="47.660862" lon="8.035538">
        <ele>889.035950</ele>
        <time>2021-11-21T10:31:19.814Z</time>
      </trkpt>
      <trkpt lat="47.660815" lon="8.035030">
        <ele>888.931051</ele>
        <time>2021-11-21T10:31:23.644Z</time>
      </trkpt>
      <trkpt lat="47.660720" lon="8.034012">
        <ele>888.030990</ele>
        <time>2021-11-21T10:31:30.878Z</time>
      </trkpt>
      <trkpt lat="47.660704" lon="8.033736">
        <ele>887.752955</ele>
        <time>2021-11-21T10:31:32.863Z</time>
      </trkpt>
      <trkpt lat="47.660712" lon="8.033348">
        <ele>887.363351</ele>
        <time>2021-11-21T10:31:35.764Z</time>
      </trkpt>
      <trkpt lat="47.660722" lon="8.032994">
        <ele>887.007743</ele>
        <time>2021-11-21T10:31:38.472Z</time>
      </trkpt>
      <trkpt lat="47.660779" lon="8.031884">
        <ele>886.484970</ele>
        <time>2021-11-21T10:31:48.772Z</time>
      </trkpt>
      <trkpt lat="47.660771" lon="8.031434">
        <ele>886.855439</ele>
        <time>2021-11-21T10:31:53.785Z</time>
      </trkpt>
      <trkpt lat="47.660640" lon="8.030360">
        <ele>887.753695</ele>
        <time>2021-11-21T10:32:10.099Z</time>
      </trkpt>
      <trkpt lat="47.660555" lon="8.029987">
        <ele>888.077761</ele>
        <time>2021-11-21T10:32:16.624Z</time>
      </trkpt>
      <trkpt lat="47.660422" lon="8.029481">
        <ele>888.461747</ele>
        <time>2021-11-21T10:32:24.776Z</time>
      </trkpt>
      <trkpt lat="47.660383" lon="8.029332">
        <ele>888.517848</ele>
        <time>2021-11-21T10:32:26.746Z</time>
      </trkpt>
      <trkpt lat="47.660363" lon="8.029257">
        <ele>888.546156</ele>
        <time>2021-11-21T10:32:27.980Z</time>
      </trkpt>
      <trkpt lat="47.660281" lon="8.028754">
        <ele>888.727777</ele>
        <time>2021-11-21T10:32:34.612Z</time>
      </trkpt>
      <trkpt lat="47.660275" lon="8.028464">
        <ele>888.829599</ele>
        <time>2021-11-21T10:32:38.252Z</time>
      </trkpt>
      <trkpt lat="47.660285" lon="8.028026">
        <ele>888.983400</ele>
        <time>2021-11-21T10:32:43.404Z</time>
      </trkpt>
      <trkpt lat="47.660294" lon="8.027599">
        <ele>889.133326</ele>
        <time>2021-11-21T10:32:47.737Z</time>
      </trkpt>
      <trkpt lat="47.660254" lon="8.027140">
        <ele>889.295751</ele>
        <time>2021-11-21T10:32:52.174Z</time>
      </trkpt>
      <trkpt lat="47.660118" lon="8.026493">
        <ele>888.602367</ele>
        <time>2021-11-21T10:32:57.728Z</time>
      </trkpt>
      <trkpt lat="47.660079" lon="8.026313">
        <ele>888.328320</ele>
        <time>2021-11-21T10:32:59.245Z</time>
      </trkpt>
      <trkpt lat="47.660046" lon="8.026048">
        <ele>887.937737</ele>
        <time>2021-11-21T10:33:01.380Z</time>
      </trkpt>
      <trkpt lat="47.659981" lon="8.025033">
        <ele>886.460026</ele>
        <time>2021-11-21T10:33:08.861Z</time>
      </trkpt>
      <trkpt lat="47.659926" lon="8.024521">
        <ele>885.708587</ele>
        <time>2021-11-21T10:33:12.337Z</time>
      </trkpt>
      <trkpt lat="47.659919" lon="8.024478">
        <ele>885.644471</ele>
        <time>2021-11-21T10:33:12.652Z</time>
      </trkpt>
      <trkpt lat="47.659904" lon="8.024399">
        <ele>885.525510</ele>
        <time>2021-11-21T10:33:13.147Z</time>
      </trkpt>
      <trkpt lat="47.659572" lon="8.023543">
        <ele>882.846720</ele>
        <time>2021-11-21T10:33:19.665Z</time>
      </trkpt>
      <trkpt lat="47.659265" lon="8.023143">
        <ele>881.177920</ele>
        <time>2021-11-21T10:33:23.548Z</time>
      </trkpt>
      <trkpt lat="47.659130" lon="8.023024">
        <ele>880.536468</ele>
        <time>2021-11-21T10:33:25.023Z</time>
      </trkpt>
      <trkpt lat="47.659037" lon="8.022943">
        <ele>880.095946</ele>
        <time>2021-11-21T10:33:26.186Z</time>
      </trkpt>
      <trkpt lat="47.658991" lon="8.022915">
        <ele>879.892824</ele>
        <time>2021-11-21T10:33:26.683Z</time>
      </trkpt>
      <trkpt lat="47.658648" lon="8.022676">
        <ele>878.344779</ele>
        <time>2021-11-21T10:33:30.408Z</time>
      </trkpt>
      <trkpt lat="47.658383" lon="8.022443">
        <ele>877.184398</ele>
        <time>2021-11-21T10:33:33.382Z</time>
      </trkpt>
      <trkpt lat="47.658056" lon="8.022001">
        <ele>875.546711</ele>
        <time>2021-11-21T10:33:37.731Z</time>
      </trkpt>
      <trkpt lat="47.658001" lon="8.021883">
        <ele>875.188771</ele>
        <time>2021-11-21T10:33:38.606Z</time>
      </trkpt>
      <trkpt lat="47.657916" lon="8.021656">
        <ele>874.540929</ele>
        <time>2021-11-21T10:33:40.298Z</time>
      </trkpt>
      <trkpt lat="47.657842" lon="8.021387">
        <ele>873.816132</ele>
        <time>2021-11-21T10:33:42.206Z</time>
      </trkpt>
      <trkpt lat="47.657823" lon="8.021288">
        <ele>873.559358</ele>
        <time>2021-11-21T10:33:42.980Z</time>
      </trkpt>
      <trkpt lat="47.657753" lon="8.020920">
        <ele>872.605518</ele>
        <time>2021-11-21T10:33:45.555Z</time>
      </trkpt>
      <trkpt lat="47.657717" lon="8.020646">
        <ele>871.909172</ele>
        <time>2021-11-21T10:33:47.506Z</time>
      </trkpt>
      <trkpt lat="47.657715" lon="8.020617">
        <ele>871.836456</ele>
        <time>2021-11-21T10:33:47.695Z</time>
      </trkpt>
      <trkpt lat="47.657668" lon="8.019942">
        <ele>870.904510</ele>
        <time>2021-11-21T10:33:52.483Z</time>
      </trkpt>
      <trkpt lat="47.657664" lon="8.019541">
        <ele>870.477079</ele>
        <time>2021-11-21T10:33:55.340Z</time>
      </trkpt>
      <trkpt lat="47.657680" lon="8.019137">
        <ele>870.045754</ele>
        <time>2021-11-21T10:33:58.646Z</time>
      </trkpt>
      <trkpt lat="47.657833" lon="8.017983">
        <ele>868.792227</ele>
        <time>2021-11-21T10:34:08.342Z</time>
      </trkpt>
      <trkpt lat="47.657881" lon="8.017777">
        <ele>868.584466</ele>
        <time>2021-11-21T10:34:10.168Z</time>
      </trkpt>
      <trkpt lat="47.658036" lon="8.017215">
        <ele>868.177726</ele>
        <time>2021-11-21T10:34:15.398Z</time>
      </trkpt>
      <trkpt lat="47.658084" lon="8.017056">
        <ele>868.061027</ele>
        <time>2021-11-21T10:34:17.344Z</time>
      </trkpt>
      <trkpt lat="47.658204" lon="8.016720">
        <ele>867.806309</ele>
        <time>2021-11-21T10:34:20.955Z</time>
      </trkpt>
      <trkpt lat="47.658294" lon="8.016461">
        <ele>867.611116</ele>
        <time>2021-11-21T10:34:23.499Z</time>
      </trkpt>
      <trkpt lat="47.658385" lon="8.016199">
        <ele>867.413682</ele>
        <time>2021-11-21T10:34:26.054Z</time>
      </trkpt>
      <trkpt lat="47.658623" lon="8.015519">
        <ele>866.900429</ele>
        <time>2021-11-21T10:34:31.813Z</time>
      </trkpt>
      <trkpt lat="47.658807" lon="8.014878">
        <ele>865.778591</ele>
        <time>2021-11-21T10:34:37.080Z</time>
      </trkpt>
      <trkpt lat="47.658859" lon="8.014690">
        <ele>865.421585</ele>
        <time>2021-11-21T10:34:38.566Z</time>
      </trkpt>
      <trkpt lat="47.659203" lon="8.013313">
        <ele>862.841707</ele>
        <time>2021-11-21T10:34:48.705Z</time>
      </trkpt>
      <trkpt lat="47.658947" lon="8.013116">
        <ele>862.070910</ele>
        <time>2021-11-21T10:34:51.760Z</time>
      </trkpt>
      <trkpt lat="47.658746" lon="8.012848">
        <ele>861.133552</ele>
        <time>2021-11-21T10:34:54.466Z</time>
      </trkpt>
      <trkpt lat="47.658620" lon="8.012560">
        <ele>860.330977</ele>
        <time>2021-11-21T10:34:56.772Z</time>
      </trkpt>
      <trkpt lat="47.658507" lon="8.012334">
        <ele>859.673195</ele>
        <time>2021-11-21T10:34:58.690Z</time>
      </trkpt>
      <trkpt lat="47.658460" lon="8.012239">
        <ele>859.397725</ele>
        <time>2021-11-21T10:34:59.411Z</time>
      </trkpt>
      <trkpt lat="47.658460" lon="8.012239">
        <ele>859.397725</ele>
        <time>2021-11-21T10:34:59.418Z</time>
      </trkpt>
      <trkpt lat="47.658202" lon="8.011892">
        <ele>858.189847</ele>
        <time>2021-11-21T10:35:02.957Z</time>
      </trkpt>
      <trkpt lat="47.657873" lon="8.011642">
        <ele>856.907492</ele>
        <time>2021-11-21T10:35:06.763Z</time>
      </trkpt>
      <trkpt lat="47.657300" lon="8.011543">
        <ele>855.108570</ele>
        <time>2021-11-21T10:35:12.440Z</time>
      </trkpt>
      <trkpt lat="47.657021" lon="8.011540">
        <ele>854.336675</ele>
        <time>2021-11-21T10:35:15.102Z</time>
      </trkpt>
      <trkpt lat="47.656912" lon="8.011553">
        <ele>854.034146</ele>
        <time>2021-11-21T10:35:16.313Z</time>
      </trkpt>
      <trkpt lat="47.656296" lon="8.011585">
        <ele>852.328892</ele>
        <time>2021-11-21T10:35:22.854Z</time>
      </trkpt>
      <trkpt lat="47.656095" lon="8.011596">
        <ele>851.772433</ele>
        <time>2021-11-21T10:35:25.092Z</time>
      </trkpt>
      <trkpt lat="47.655654" lon="8.011463">
        <ele>850.473700</ele>
        <time>2021-11-21T10:35:29.921Z</time>
      </trkpt>
      <trkpt lat="47.655421" lon="8.011331">
        <ele>849.691565</ele>
        <time>2021-11-21T10:35:32.743Z</time>
      </trkpt>
      <trkpt lat="47.655159" lon="8.011068">
        <ele>848.699671</ele>
        <time>2021-11-21T10:35:36.319Z</time>
      </trkpt>
      <trkpt lat="47.654909" lon="8.010618">
        <ele>847.467416</ele>
        <time>2021-11-21T10:35:40.547Z</time>
      </trkpt>
      <trkpt lat="47.654667" lon="8.009807">
        <ele>845.593564</ele>
        <time>2021-11-21T10:35:46.479Z</time>
      </trkpt>
      <trkpt lat="47.654406" lon="8.009271">
        <ele>842.520039</ele>
        <time>2021-11-21T10:35:50.559Z</time>
      </trkpt>
      <trkpt lat="47.653890" lon="8.008724">
        <ele>837.480323</ele>
        <time>2021-11-21T10:35:56.136Z</time>
      </trkpt>
      <trkpt lat="47.653433" lon="8.008511">
        <ele>833.673064</ele>
        <time>2021-11-21T10:36:00.283Z</time>
      </trkpt>
      <trkpt lat="47.653079" lon="8.008399">
        <ele>830.782710</ele>
        <time>2021-11-21T10:36:03.425Z</time>
      </trkpt>
      <trkpt lat="47.652961" lon="8.008365">
        <ele>829.762015</ele>
        <time>2021-11-21T10:36:04.485Z</time>
      </trkpt>
      <trkpt lat="47.652247" lon="8.008164">
        <ele>823.591038</ele>
        <time>2021-11-21T10:36:10.800Z</time>
      </trkpt>
      <trkpt lat="47.652087" lon="8.008133">
        <ele>822.220877</ele>
        <time>2021-11-21T10:36:12.205Z</time>
      </trkpt>
      <trkpt lat="47.651879" lon="8.008189">
        <ele>820.425834</ele>
        <time>2021-11-21T10:36:14.044Z</time>
      </trkpt>
      <trkpt lat="47.651438" lon="8.008748">
        <ele>815.591583</ele>
        <time>2021-11-21T10:36:19.161Z</time>
      </trkpt>
      <trkpt lat="47.651228" lon="8.008918">
        <ele>814.399931</ele>
        <time>2021-11-21T10:36:21.422Z</time>
      </trkpt>
      <trkpt lat="47.651195" lon="8.008934">
        <ele>814.226981</ele>
        <time>2021-11-21T10:36:21.727Z</time>
      </trkpt>
      <trkpt lat="47.651119" lon="8.008974">
        <ele>813.825263</ele>
        <time>2021-11-21T10:36:22.423Z</time>
      </trkpt>
      <trkpt lat="47.650513" lon="8.009097">
        <ele>810.778136</ele>
        <time>2021-11-21T10:36:28.349Z</time>
      </trkpt>
      <trkpt lat="47.650285" lon="8.009248">
        <ele>809.534341</ele>
        <time>2021-11-21T10:36:30.688Z</time>
      </trkpt>
      <trkpt lat="47.648808" lon="8.011136">
        <ele>801.734655</ele>
        <time>2021-11-21T10:36:49.928Z</time>
      </trkpt>
      <trkpt lat="47.648498" lon="8.011376">
        <ele>800.472779</ele>
        <time>2021-11-21T10:36:53.458Z</time>
      </trkpt>
      <trkpt lat="47.648139" lon="8.011511">
        <ele>799.581925</ele>
        <time>2021-11-21T10:36:57.236Z</time>
      </trkpt>
      <trkpt lat="47.647931" lon="8.011553">
        <ele>799.122964</ele>
        <time>2021-11-21T10:36:59.384Z</time>
      </trkpt>
      <trkpt lat="47.647700" lon="8.011578">
        <ele>798.616564</ele>
        <time>2021-11-21T10:37:01.840Z</time>
      </trkpt>
      <trkpt lat="47.647461" lon="8.011563">
        <ele>798.093547</ele>
        <time>2021-11-21T10:37:04.446Z</time>
      </trkpt>
      <trkpt lat="47.647254" lon="8.011528">
        <ele>797.638034</ele>
        <time>2021-11-21T10:37:06.713Z</time>
      </trkpt>
      <trkpt lat="47.647129" lon="8.011490">
        <ele>797.359061</ele>
        <time>2021-11-21T10:37:08.171Z</time>
      </trkpt>
      <trkpt lat="47.646783" lon="8.011351">
        <ele>796.575348</ele>
        <time>2021-11-21T10:37:12.276Z</time>
      </trkpt>
      <trkpt lat="47.646418" lon="8.011132">
        <ele>796.299498</ele>
        <time>2021-11-21T10:37:16.951Z</time>
      </trkpt>
      <trkpt lat="47.646246" lon="8.010992">
        <ele>796.275355</ele>
        <time>2021-11-21T10:37:19.489Z</time>
      </trkpt>
      <trkpt lat="47.646056" lon="8.010808">
        <ele>796.247433</ele>
        <time>2021-11-21T10:37:22.705Z</time>
      </trkpt>
      <trkpt lat="47.645893" lon="8.010578">
        <ele>796.219752</ele>
        <time>2021-11-21T10:37:25.864Z</time>
      </trkpt>
      <trkpt lat="47.645752" lon="8.010251">
        <ele>796.187559</ele>
        <time>2021-11-21T10:37:30.063Z</time>
      </trkpt>
      <trkpt lat="47.645630" lon="8.009847">
        <ele>796.150848</ele>
        <time>2021-11-21T10:37:35.265Z</time>
      </trkpt>
      <trkpt lat="47.645380" lon="8.008349">
        <ele>796.480315</ele>
        <time>2021-11-21T10:37:53.629Z</time>
      </trkpt>
      <trkpt lat="47.645208" lon="8.007812">
        <ele>796.681232</ele>
        <time>2021-11-21T10:38:00.096Z</time>
      </trkpt>
      <trkpt lat="47.645005" lon="8.007361">
        <ele>796.864510</ele>
        <time>2021-11-21T10:38:05.920Z</time>
      </trkpt>
      <trkpt lat="47.644813" lon="8.006998">
        <ele>797.026900</ele>
        <time>2021-11-21T10:38:10.986Z</time>
      </trkpt>
      <trkpt lat="47.644652" lon="8.006827">
        <ele>797.246309</ele>
        <time>2021-11-21T10:38:14.146Z</time>
      </trkpt>
      <trkpt lat="47.644119" lon="8.006394">
        <ele>797.919708</ele>
        <time>2021-11-21T10:38:24.711Z</time>
      </trkpt>
      <trkpt lat="47.643978" lon="8.006145">
        <ele>798.162580</ele>
        <time>2021-11-21T10:38:28.624Z</time>
      </trkpt>
      <trkpt lat="47.643811" lon="8.005674">
        <ele>798.559995</ele>
        <time>2021-11-21T10:38:35.294Z</time>
      </trkpt>
      <trkpt lat="47.643684" lon="8.005510">
        <ele>798.746560</ele>
        <time>2021-11-21T10:38:39.625Z</time>
      </trkpt>
      <trkpt lat="47.642796" lon="8.004845">
        <ele>800.243597</ele>
        <time>2021-11-21T10:39:03.777Z</time>
      </trkpt>
      <trkpt lat="47.642427" lon="8.004770">
        <ele>800.850243</ele>
        <time>2021-11-21T10:39:11.818Z</time>
      </trkpt>
      <trkpt lat="47.642337" lon="8.004796">
        <ele>800.999588</ele>
        <time>2021-11-21T10:39:14.786Z</time>
      </trkpt>
      <trkpt lat="47.642209" lon="8.004861">
        <ele>801.219943</ele>
        <time>2021-11-21T10:39:16.652Z</time>
      </trkpt>
      <trkpt lat="47.641961" lon="8.005163">
        <ele>801.742455</ele>
        <time>2021-11-21T10:39:22.536Z</time>
      </trkpt>
      <trkpt lat="47.641834" lon="8.005484">
        <ele>801.693532</ele>
        <time>2021-11-21T10:39:27.816Z</time>
      </trkpt>
      <trkpt lat="47.641804" lon="8.005576">
        <ele>801.564567</ele>
        <time>2021-11-21T10:39:28.510Z</time>
      </trkpt>
      <trkpt lat="47.641616" lon="8.005980">
        <ele>800.945041</ele>
        <time>2021-11-21T10:39:33.952Z</time>
      </trkpt>
      <trkpt lat="47.641404" lon="8.006152">
        <ele>800.492574</ele>
        <time>2021-11-21T10:39:36.945Z</time>
      </trkpt>
      <trkpt lat="47.640890" lon="8.006404">
        <ele>799.478828</ele>
        <time>2021-11-21T10:39:42.825Z</time>
      </trkpt>
      <trkpt lat="47.640257" lon="8.007048">
        <ele>797.241580</ele>
        <time>2021-11-21T10:39:50.170Z</time>
      </trkpt>
      <trkpt lat="47.640044" lon="8.007144">
        <ele>796.193273</ele>
        <time>2021-11-21T10:39:52.280Z</time>
      </trkpt>
      <trkpt lat="47.639834" lon="8.007071">
        <ele>795.177561</ele>
        <time>2021-11-21T10:39:54.406Z</time>
      </trkpt>
      <trkpt lat="47.639742" lon="8.006994">
        <ele>794.680165</ele>
        <time>2021-11-21T10:39:55.358Z</time>
      </trkpt>
      <trkpt lat="47.639631" lon="8.006838">
        <ele>793.960256</ele>
        <time>2021-11-21T10:39:56.784Z</time>
      </trkpt>
      <trkpt lat="47.639507" lon="8.006630">
        <ele>793.079009</ele>
        <time>2021-11-21T10:39:58.570Z</time>
      </trkpt>
      <trkpt lat="47.639324" lon="8.006323">
        <ele>791.778381</ele>
        <time>2021-11-21T10:40:01.266Z</time>
      </trkpt>
      <trkpt lat="47.639248" lon="8.006245">
        <ele>791.343235</ele>
        <time>2021-11-21T10:40:02.089Z</time>
      </trkpt>
      <trkpt lat="47.639158" lon="8.006154">
        <ele>790.830387</ele>
        <time>2021-11-21T10:40:03.117Z</time>
      </trkpt>
      <trkpt lat="47.638830" lon="8.006018">
        <ele>789.317709</ele>
        <time>2021-11-21T10:40:06.370Z</time>
      </trkpt>
      <trkpt lat="47.638494" lon="8.006004">
        <ele>787.899995</ele>
        <time>2021-11-21T10:40:09.548Z</time>
      </trkpt>
      <trkpt lat="47.638358" lon="8.005969">
        <ele>787.317825</ele>
        <time>2021-11-21T10:40:10.869Z</time>
      </trkpt>
      <trkpt lat="47.638215" lon="8.005891">
        <ele>786.675244</ele>
        <time>2021-11-21T10:40:12.260Z</time>
      </trkpt>
      <trkpt lat="47.638107" lon="8.005814">
        <ele>786.169894</ele>
        <time>2021-11-21T10:40:13.491Z</time>
      </trkpt>
      <trkpt lat="47.637957" lon="8.005580">
        <ele>785.252013</ele>
        <time>2021-11-21T10:40:15.578Z</time>
      </trkpt>
      <trkpt lat="47.637787" lon="8.004794">
        <ele>782.905976</ele>
        <time>2021-11-21T10:40:21.201Z</time>
      </trkpt>
      <trkpt lat="47.637523" lon="8.004214">
        <ele>781.320666</ele>
        <time>2021-11-21T10:40:25.904Z</time>
      </trkpt>
      <trkpt lat="47.637184" lon="8.003698">
        <ele>779.790648</ele>
        <time>2021-11-21T10:40:30.711Z</time>
      </trkpt>
      <trkpt lat="47.636315" lon="8.003463">
        <ele>777.007555</ele>
        <time>2021-11-21T10:40:39.625Z</time>
      </trkpt>
      <trkpt lat="47.636070" lon="8.003329">
        <ele>776.616762</ele>
        <time>2021-11-21T10:40:42.478Z</time>
      </trkpt>
      <trkpt lat="47.635796" lon="8.002999">
        <ele>776.230995</ele>
        <time>2021-11-21T10:40:46.731Z</time>
      </trkpt>
      <trkpt lat="47.635608" lon="8.002439">
        <ele>775.770112</ele>
        <time>2021-11-21T10:40:53.078Z</time>
      </trkpt>
      <trkpt lat="47.635108" lon="8.000327">
        <ele>773.528783</ele>
        <time>2021-11-21T10:41:11.728Z</time>
      </trkpt>
      <trkpt lat="47.634953" lon="7.999648">
        <ele>772.588483</ele>
        <time>2021-11-21T10:41:16.980Z</time>
      </trkpt>
      <trkpt lat="47.634762" lon="7.999174">
        <ele>771.864099</ele>
        <time>2021-11-21T10:41:20.873Z</time>
      </trkpt>
      <trkpt lat="47.634587" lon="7.998962">
        <ele>771.424387</ele>
        <time>2021-11-21T10:41:23.239Z</time>
      </trkpt>
      <trkpt lat="47.634410" lon="7.998818">
        <ele>771.158191</ele>
        <time>2021-11-21T10:41:25.238Z</time>
      </trkpt>
      <trkpt lat="47.633905" lon="7.998683">
        <ele>770.523568</ele>
        <time>2021-11-21T10:41:30.419Z</time>
      </trkpt>
      <trkpt lat="47.633717" lon="7.998578">
        <ele>770.275132</ele>
        <time>2021-11-21T10:41:32.626Z</time>
      </trkpt>
      <trkpt lat="47.633574" lon="7.998408">
        <ele>770.048520</ele>
        <time>2021-11-21T10:41:34.858Z</time>
      </trkpt>
      <trkpt lat="47.633477" lon="7.998164">
        <ele>769.812416</ele>
        <time>2021-11-21T10:41:37.434Z</time>
      </trkpt>
      <trkpt lat="47.633385" lon="7.997544">
        <ele>769.283312</ele>
        <time>2021-11-21T10:41:45.920Z</time>
      </trkpt>
      <trkpt lat="47.633251" lon="7.995948">
        <ele>769.503687</ele>
        <time>2021-11-21T10:42:05.144Z</time>
      </trkpt>
      <trkpt lat="47.633236" lon="7.995517">
        <ele>769.607353</ele>
        <time>2021-11-21T10:42:10.130Z</time>
      </trkpt>
      <trkpt lat="47.633225" lon="7.995204">
        <ele>769.682640</ele>
        <time>2021-11-21T10:42:12.781Z</time>
      </trkpt>
      <trkpt lat="47.633165" lon="7.994756">
        <ele>769.792357</ele>
        <time>2021-11-21T10:42:17.597Z</time>
      </trkpt>
      <trkpt lat="47.633096" lon="7.994417">
        <ele>769.655482</ele>
        <time>2021-11-21T10:42:21.165Z</time>
      </trkpt>
      <trkpt lat="47.633034" lon="7.994185">
        <ele>769.552776</ele>
        <time>2021-11-21T10:42:23.111Z</time>
      </trkpt>
      <trkpt lat="47.632976" lon="7.993592">
        <ele>769.306188</ele>
        <time>2021-11-21T10:42:28.228Z</time>
      </trkpt>
      <trkpt lat="47.633263" lon="7.990675">
        <ele>768.569205</ele>
        <time>2021-11-21T10:42:53.662Z</time>
      </trkpt>
      <trkpt lat="47.633206" lon="7.989849">
        <ele>768.496796</ele>
        <time>2021-11-21T10:43:03.398Z</time>
      </trkpt>
      <trkpt lat="47.633172" lon="7.989666">
        <ele>768.480242</ele>
        <time>2021-11-21T10:43:05.796Z</time>
      </trkpt>
      <trkpt lat="47.633147" lon="7.989515">
        <ele>768.466683</ele>
        <time>2021-11-21T10:43:07.498Z</time>
      </trkpt>
      <trkpt lat="47.632909" lon="7.988820">
        <ele>768.400316</ele>
        <time>2021-11-21T10:43:16.082Z</time>
      </trkpt>
      <trkpt lat="47.632690" lon="7.988422">
        <ele>768.356609</ele>
        <time>2021-11-21T10:43:21.508Z</time>
      </trkpt>
      <trkpt lat="47.632504" lon="7.988217">
        <ele>768.327364</ele>
        <time>2021-11-21T10:43:24.861Z</time>
      </trkpt>
      <trkpt lat="47.632324" lon="7.988059">
        <ele>768.300966</ele>
        <time>2021-11-21T10:43:27.866Z</time>
      </trkpt>
      <trkpt lat="47.632243" lon="7.988006">
        <ele>768.289792</ele>
        <time>2021-11-21T10:43:29.045Z</time>
      </trkpt>
      <trkpt lat="47.632056" lon="7.987880">
        <ele>768.263868</ele>
        <time>2021-11-21T10:43:31.683Z</time>
      </trkpt>
      <trkpt lat="47.631642" lon="7.987687">
        <ele>767.761636</ele>
        <time>2021-11-21T10:43:37.013Z</time>
      </trkpt>
      <trkpt lat="47.631355" lon="7.987648">
        <ele>767.151037</ele>
        <time>2021-11-21T10:43:40.350Z</time>
      </trkpt>
      <trkpt lat="47.631277" lon="7.987638">
        <ele>766.985166</ele>
        <time>2021-11-21T10:43:41.251Z</time>
      </trkpt>
      <trkpt lat="47.630656" lon="7.987791">
        <ele>765.651467</ele>
        <time>2021-11-21T10:43:48.067Z</time>
      </trkpt>
      <trkpt lat="47.628500" lon="7.989076">
        <ele>758.788323</ele>
        <time>2021-11-21T10:44:11.670Z</time>
      </trkpt>
      <trkpt lat="47.627783" lon="7.989478">
        <ele>756.230584</ele>
        <time>2021-11-21T10:44:19.266Z</time>
      </trkpt>
      <trkpt lat="47.627745" lon="7.989499">
        <ele>756.094946</ele>
        <time>2021-11-21T10:44:19.669Z</time>
      </trkpt>
      <trkpt lat="47.627368" lon="7.989707">
        <ele>754.749542</ele>
        <time>2021-11-21T10:44:23.674Z</time>
      </trkpt>
      <trkpt lat="47.627037" lon="7.989869">
        <ele>753.583685</ele>
        <time>2021-11-21T10:44:27.187Z</time>
      </trkpt>
      <trkpt lat="47.626890" lon="7.989948">
        <ele>753.060717</ele>
        <time>2021-11-21T10:44:28.757Z</time>
      </trkpt>
      <trkpt lat="47.626641" lon="7.990055">
        <ele>752.427638</ele>
        <time>2021-11-21T10:44:31.408Z</time>
      </trkpt>
      <trkpt lat="47.626285" lon="7.990191">
        <ele>751.906551</ele>
        <time>2021-11-21T10:44:35.282Z</time>
      </trkpt>
      <trkpt lat="47.626059" lon="7.990262">
        <ele>751.579094</ele>
        <time>2021-11-21T10:44:37.836Z</time>
      </trkpt>
      <trkpt lat="47.626001" lon="7.990279">
        <ele>751.495291</ele>
        <time>2021-11-21T10:44:38.461Z</time>
      </trkpt>
      <trkpt lat="47.625865" lon="7.990306">
        <ele>751.300793</ele>
        <time>2021-11-21T10:44:40.040Z</time>
      </trkpt>
      <trkpt lat="47.625484" lon="7.990308">
        <ele>750.760723</ele>
        <time>2021-11-21T10:44:44.551Z</time>
      </trkpt>
      <trkpt lat="47.625484" lon="7.990308">
        <ele>750.760723</ele>
        <time>2021-11-21T10:44:44.556Z</time>
      </trkpt>
      <trkpt lat="47.625165" lon="7.990242">
        <ele>750.304166</ele>
        <time>2021-11-21T10:44:48.952Z</time>
      </trkpt>
      <trkpt lat="47.625082" lon="7.990226">
        <ele>750.185525</ele>
        <time>2021-11-21T10:44:50.235Z</time>
      </trkpt>
      <trkpt lat="47.624491" lon="7.989945">
        <ele>750.757685</ele>
        <time>2021-11-21T10:45:01.354Z</time>
      </trkpt>
      <trkpt lat="47.624001" lon="7.989485">
        <ele>751.538910</ele>
        <time>2021-11-21T10:45:13.485Z</time>
      </trkpt>
      <trkpt lat="47.623838" lon="7.989292">
        <ele>751.819879</ele>
        <time>2021-11-21T10:45:18.362Z</time>
      </trkpt>
      <trkpt lat="47.623561" lon="7.988865">
        <ele>752.358050</ele>
        <time>2021-11-21T10:45:27.526Z</time>
      </trkpt>
      <trkpt lat="47.623508" lon="7.988782">
        <ele>752.461875</ele>
        <time>2021-11-21T10:45:29.208Z</time>
      </trkpt>
      <trkpt lat="47.623303" lon="7.988291">
        <ele>752.937413</ele>
        <time>2021-11-21T10:45:38.017Z</time>
      </trkpt>
      <trkpt lat="47.623087" lon="7.987725">
        <ele>753.471690</ele>
        <time>2021-11-21T10:45:47.972Z</time>
      </trkpt>
      <trkpt lat="47.622073" lon="7.985033">
        <ele>754.285289</ele>
        <time>2021-11-21T10:46:23.510Z</time>
      </trkpt>
      <trkpt lat="47.622067" lon="7.985017">
        <ele>754.281019</ele>
        <time>2021-11-21T10:46:23.663Z</time>
      </trkpt>
      <trkpt lat="47.621842" lon="7.984392">
        <ele>754.115774</ele>
        <time>2021-11-21T10:46:29.422Z</time>
      </trkpt>
      <trkpt lat="47.621773" lon="7.984199">
        <ele>754.064824</ele>
        <time>2021-11-21T10:46:31.059Z</time>
      </trkpt>
      <trkpt lat="47.621453" lon="7.983289">
        <ele>751.722456</ele>
        <time>2021-11-21T10:46:38.423Z</time>
      </trkpt>
      <trkpt lat="47.621414" lon="7.983181">
        <ele>751.417911</ele>
        <time>2021-11-21T10:46:39.233Z</time>
      </trkpt>
      <trkpt lat="47.621287" lon="7.982952">
        <ele>750.680796</ele>
        <time>2021-11-21T10:46:41.254Z</time>
      </trkpt>
      <trkpt lat="47.621148" lon="7.982684">
        <ele>749.840258</ele>
        <time>2021-11-21T10:46:43.457Z</time>
      </trkpt>
      <trkpt lat="47.620712" lon="7.982017">
        <ele>747.530742</ele>
        <time>2021-11-21T10:46:49.395Z</time>
      </trkpt>
      <trkpt lat="47.620533" lon="7.981699">
        <ele>746.213384</ele>
        <time>2021-11-21T10:46:51.949Z</time>
      </trkpt>
      <trkpt lat="47.620263" lon="7.981105">
        <ele>743.869461</ele>
        <time>2021-11-21T10:46:56.449Z</time>
      </trkpt>
      <trkpt lat="47.619965" lon="7.980295">
        <ele>740.850407</ele>
        <time>2021-11-21T10:47:02.331Z</time>
      </trkpt>
      <trkpt lat="47.619797" lon="7.980012">
        <ele>739.616647</ele>
        <time>2021-11-21T10:47:04.862Z</time>
      </trkpt>
      <trkpt lat="47.619731" lon="7.979949">
        <ele>739.235721</ele>
        <time>2021-11-21T10:47:05.560Z</time>
      </trkpt>
      <trkpt lat="47.619309" lon="7.979839">
        <ele>737.590815</ele>
        <time>2021-11-21T10:47:09.753Z</time>
      </trkpt>
      <trkpt lat="47.619073" lon="7.979702">
        <ele>736.711627</ele>
        <time>2021-11-21T10:47:12.322Z</time>
      </trkpt>
      <trkpt lat="47.618976" lon="7.979589">
        <ele>736.283762</ele>
        <time>2021-11-21T10:47:13.601Z</time>
      </trkpt>
      <trkpt lat="47.618419" lon="7.978768">
        <ele>733.559791</ele>
        <time>2021-11-21T10:47:21.611Z</time>
      </trkpt>
      <trkpt lat="47.617897" lon="7.977926">
        <ele>730.987109</ele>
        <time>2021-11-21T10:47:29.362Z</time>
      </trkpt>
      <trkpt lat="47.617863" lon="7.977860">
        <ele>730.805653</ele>
        <time>2021-11-21T10:47:29.826Z</time>
      </trkpt>
      <trkpt lat="47.617183" lon="7.976739">
        <ele>727.511318</ele>
        <time>2021-11-21T10:47:40.091Z</time>
      </trkpt>
      <trkpt lat="47.617143" lon="7.976643">
        <ele>727.264779</ele>
        <time>2021-11-21T10:47:40.745Z</time>
      </trkpt>
      <trkpt lat="47.617122" lon="7.976576">
        <ele>727.103371</ele>
        <time>2021-11-21T10:47:41.433Z</time>
      </trkpt>
      <trkpt lat="47.617087" lon="7.976456">
        <ele>726.817747</ele>
        <time>2021-11-21T10:47:42.512Z</time>
      </trkpt>
      <trkpt lat="47.617050" lon="7.976280">
        <ele>726.669027</ele>
        <time>2021-11-21T10:47:45.225Z</time>
      </trkpt>
      <trkpt lat="47.617035" lon="7.976194">
        <ele>726.725903</ele>
        <time>2021-11-21T10:47:45.757Z</time>
      </trkpt>
      <trkpt lat="47.616932" lon="7.975644">
        <ele>727.091390</ele>
        <time>2021-11-21T10:47:50.754Z</time>
      </trkpt>
      <trkpt lat="47.616823" lon="7.975315">
        <ele>727.326108</ele>
        <time>2021-11-21T10:47:55.869Z</time>
      </trkpt>
      <trkpt lat="47.616605" lon="7.975163">
        <ele>727.554904</ele>
        <time>2021-11-21T10:47:59.304Z</time>
      </trkpt>
      <trkpt lat="47.616374" lon="7.975153">
        <ele>727.774410</ele>
        <time>2021-11-21T10:48:03.824Z</time>
      </trkpt>
      <trkpt lat="47.615835" lon="7.975151">
        <ele>728.286376</ele>
        <time>2021-11-21T10:48:18.812Z</time>
      </trkpt>
      <trkpt lat="47.615388" lon="7.975207">
        <ele>729.879379</ele>
        <time>2021-11-21T10:48:33.101Z</time>
      </trkpt>
      <trkpt lat="47.615223" lon="7.975285">
        <ele>730.532785</ele>
        <time>2021-11-21T10:48:38.484Z</time>
      </trkpt>
      <trkpt lat="47.614735" lon="7.975625">
        <ele>732.567020</ele>
        <time>2021-11-21T10:48:55.089Z</time>
      </trkpt>
      <trkpt lat="47.614050" lon="7.976273">
        <ele>735.761761</ele>
        <time>2021-11-21T10:49:17.808Z</time>
      </trkpt>
      <trkpt lat="47.613802" lon="7.976286">
        <ele>736.928318</ele>
        <time>2021-11-21T10:49:25.940Z</time>
      </trkpt>
      <trkpt lat="47.613439" lon="7.976020">
        <ele>738.831607</ele>
        <time>2021-11-21T10:49:39.319Z</time>
      </trkpt>
      <trkpt lat="47.613266" lon="7.975808">
        <ele>739.886479</ele>
        <time>2021-11-21T10:49:47.075Z</time>
      </trkpt>
      <trkpt lat="47.613184" lon="7.975689">
        <ele>740.425746</ele>
        <time>2021-11-21T10:49:51.035Z</time>
      </trkpt>
      <trkpt lat="47.612962" lon="7.975399">
        <ele>741.816329</ele>
        <time>2021-11-21T10:50:01.471Z</time>
      </trkpt>
      <trkpt lat="47.612866" lon="7.975328">
        <ele>742.320599</ele>
        <time>2021-11-21T10:50:05.199Z</time>
      </trkpt>
      <trkpt lat="47.612922" lon="7.974981">
        <ele>743.451336</ele>
        <time>2021-11-21T10:50:14.069Z</time>
      </trkpt>
      <trkpt lat="47.613340" lon="7.973232">
        <ele>749.653921</ele>
        <time>2021-11-21T10:51:00.511Z</time>
      </trkpt>
      <trkpt lat="47.613371" lon="7.971800">
        <ele>753.972577</ele>
        <time>2021-11-21T10:51:29.994Z</time>
      </trkpt>
      <trkpt lat="47.613448" lon="7.971306">
        <ele>755.257657</ele>
        <time>2021-11-21T10:51:40.120Z</time>
      </trkpt>
      <trkpt lat="47.613544" lon="7.970739">
        <ele>756.739353</ele>
        <time>2021-11-21T10:51:51.634Z</time>
      </trkpt>
      <trkpt lat="47.613603" lon="7.970296">
        <ele>757.883839</ele>
        <time>2021-11-21T10:52:00.493Z</time>
      </trkpt>
      <trkpt lat="47.613651" lon="7.969763">
        <ele>759.246728</ele>
        <time>2021-11-21T10:52:11.102Z</time>
      </trkpt>
      <trkpt lat="47.613713" lon="7.969291">
        <ele>760.562455</ele>
        <time>2021-11-21T10:52:20.629Z</time>
      </trkpt>
      <trkpt lat="47.613876" lon="7.968615">
        <ele>762.527309</ele>
        <time>2021-11-21T10:52:35.467Z</time>
      </trkpt>
      <trkpt lat="47.614229" lon="7.967867">
        <ele>765.026190</ele>
        <time>2021-11-21T10:52:55.931Z</time>
      </trkpt>
      <trkpt lat="47.614987" lon="7.966716">
        <ele>769.630986</ele>
        <time>2021-11-21T10:53:29.331Z</time>
      </trkpt>
      <trkpt lat="47.615704" lon="7.965149">
        <ele>774.951832</ele>
        <time>2021-11-21T10:54:11.681Z</time>
      </trkpt>
      <trkpt lat="47.615837" lon="7.964647">
        <ele>776.093808</ele>
        <time>2021-11-21T10:54:23.036Z</time>
      </trkpt>
      <trkpt lat="47.615832" lon="7.964368">
        <ele>776.684714</ele>
        <time>2021-11-21T10:54:28.924Z</time>
      </trkpt>
      <trkpt lat="47.615816" lon="7.964301">
        <ele>776.835204</ele>
        <time>2021-11-21T10:54:30.532Z</time>
      </trkpt>
      <trkpt lat="47.615674" lon="7.963901">
        <ele>777.792342</ele>
        <time>2021-11-21T10:54:38.245Z</time>
      </trkpt>
      <trkpt lat="47.615426" lon="7.963657">
        <ele>778.726997</ele>
        <time>2021-11-21T10:54:45.003Z</time>
      </trkpt>
      <trkpt lat="47.615296" lon="7.963621">
        <ele>779.142352</ele>
        <time>2021-11-21T10:54:48.840Z</time>
      </trkpt>
      <trkpt lat="47.615240" lon="7.963619">
        <ele>779.318287</ele>
        <time>2021-11-21T10:54:49.852Z</time>
      </trkpt>
      <trkpt lat="47.615156" lon="7.963615">
        <ele>779.582248</ele>
        <time>2021-11-21T10:54:51.043Z</time>
      </trkpt>
      <trkpt lat="47.614910" lon="7.963756">
        <ele>780.322430</ele>
        <time>2021-11-21T10:54:57.969Z</time>
      </trkpt>
      <trkpt lat="47.614633" lon="7.964032">
        <ele>781.137165</ele>
        <time>2021-11-21T10:55:05.645Z</time>
      </trkpt>
      <trkpt lat="47.614483" lon="7.964169">
        <ele>781.567262</ele>
        <time>2021-11-21T10:55:08.041Z</time>
      </trkpt>
      <trkpt lat="47.614338" lon="7.964238">
        <ele>781.939069</ele>
        <time>2021-11-21T10:55:11.568Z</time>
      </trkpt>
      <trkpt lat="47.614181" lon="7.964246">
        <ele>782.322631</ele>
        <time>2021-11-21T10:55:14.738Z</time>
      </trkpt>
      <trkpt lat="47.614053" lon="7.964220">
        <ele>782.638077</ele>
        <time>2021-11-21T10:55:17.921Z</time>
      </trkpt>
      <trkpt lat="47.613879" lon="7.964086">
        <ele>783.116761</ele>
        <time>2021-11-21T10:55:23.164Z</time>
      </trkpt>
      <trkpt lat="47.613742" lon="7.963873">
        <ele>783.601329</ele>
        <time>2021-11-21T10:55:28.184Z</time>
      </trkpt>
      <trkpt lat="47.613521" lon="7.962842">
        <ele>786.374025</ele>
        <time>2021-11-21T10:55:49.390Z</time>
      </trkpt>
      <trkpt lat="47.613502" lon="7.962714">
        <ele>786.809081</ele>
        <time>2021-11-21T10:55:52.754Z</time>
      </trkpt>
      <trkpt lat="47.613369" lon="7.961915">
        <ele>789.540910</ele>
        <time>2021-11-21T10:56:13.884Z</time>
      </trkpt>
      <trkpt lat="47.613215" lon="7.961187">
        <ele>792.073595</ele>
        <time>2021-11-21T10:56:32.869Z</time>
      </trkpt>
      <trkpt lat="47.613138" lon="7.960868">
        <ele>793.198309</ele>
        <time>2021-11-21T10:56:41.356Z</time>
      </trkpt>
      <trkpt lat="47.613021" lon="7.960583">
        <ele>793.779021</ele>
        <time>2021-11-21T10:56:49.468Z</time>
      </trkpt>
      <trkpt lat="47.612881" lon="7.960311">
        <ele>794.341215</ele>
        <time>2021-11-21T10:56:56.796Z</time>
      </trkpt>
      <trkpt lat="47.612766" lon="7.960065">
        <ele>794.833006</ele>
        <time>2021-11-21T10:57:02.969Z</time>
      </trkpt>
      <trkpt lat="47.612685" lon="7.959801">
        <ele>795.309513</ele>
        <time>2021-11-21T10:57:07.813Z</time>
      </trkpt>
      <trkpt lat="47.612659" lon="7.959516">
        <ele>795.781982</ele>
        <time>2021-11-21T10:57:13.260Z</time>
      </trkpt>
      <trkpt lat="47.612741" lon="7.958660">
        <ele>797.202354</ele>
        <time>2021-11-21T10:57:24.121Z</time>
      </trkpt>
      <trkpt lat="47.612728" lon="7.958409">
        <ele>797.615915</ele>
        <time>2021-11-21T10:57:26.377Z</time>
      </trkpt>
      <trkpt lat="47.612719" lon="7.958171">
        <ele>797.513982</ele>
        <time>2021-11-21T10:57:28.475Z</time>
      </trkpt>
      <trkpt lat="47.612661" lon="7.957964">
        <ele>797.379728</ele>
        <time>2021-11-21T10:57:30.199Z</time>
      </trkpt>
      <trkpt lat="47.612606" lon="7.957836">
        <ele>797.288821</ele>
        <time>2021-11-21T10:57:31.577Z</time>
      </trkpt>
      <trkpt lat="47.612517" lon="7.957628">
        <ele>797.141276</ele>
        <time>2021-11-21T10:57:33.497Z</time>
      </trkpt>
      <trkpt lat="47.612456" lon="7.957566">
        <ele>797.075583</ele>
        <time>2021-11-21T10:57:34.292Z</time>
      </trkpt>
      <trkpt lat="47.612391" lon="7.957530">
        <ele>797.013944</ele>
        <time>2021-11-21T10:57:35.309Z</time>
      </trkpt>
      <trkpt lat="47.612291" lon="7.957543">
        <ele>796.924764</ele>
        <time>2021-11-21T10:57:36.584Z</time>
      </trkpt>
      <trkpt lat="47.612270" lon="7.957550">
        <ele>796.905642</ele>
        <time>2021-11-21T10:57:36.826Z</time>
      </trkpt>
      <trkpt lat="47.612102" lon="7.957603">
        <ele>796.753054</ele>
        <time>2021-11-21T10:57:38.687Z</time>
      </trkpt>
      <trkpt lat="47.611972" lon="7.957626">
        <ele>796.636745</ele>
        <time>2021-11-21T10:57:40.421Z</time>
      </trkpt>
      <trkpt lat="47.611743" lon="7.957534">
        <ele>796.425974</ele>
        <time>2021-11-21T10:57:43.070Z</time>
      </trkpt>
      <trkpt lat="47.611408" lon="7.957164">
        <ele>796.054924</ele>
        <time>2021-11-21T10:57:48.271Z</time>
      </trkpt>
      <trkpt lat="47.611301" lon="7.956962">
        <ele>796.134317</ele>
        <time>2021-11-21T10:57:50.783Z</time>
      </trkpt>
      <trkpt lat="47.611267" lon="7.956824">
        <ele>796.186071</ele>
        <time>2021-11-21T10:57:51.901Z</time>
      </trkpt>
      <trkpt lat="47.611164" lon="7.956405">
        <ele>796.343170</ele>
        <time>2021-11-21T10:57:56.315Z</time>
      </trkpt>
      <trkpt lat="47.611155" lon="7.956085">
        <ele>796.455988</ele>
        <time>2021-11-21T10:57:59.782Z</time>
      </trkpt>
      <trkpt lat="47.611237" lon="7.955554">
        <ele>796.647877</ele>
        <time>2021-11-21T10:58:06.518Z</time>
      </trkpt>
      <trkpt lat="47.611344" lon="7.955262">
        <ele>796.764946</ele>
        <time>2021-11-21T10:58:10.314Z</time>
      </trkpt>
      <trkpt lat="47.611423" lon="7.955105">
        <ele>796.833955</ele>
        <time>2021-11-21T10:58:13.311Z</time>
      </trkpt>
      <trkpt lat="47.611466" lon="7.955017">
        <ele>796.872239</ele>
        <time>2021-11-21T10:58:14.655Z</time>
      </trkpt>
      <trkpt lat="47.611563" lon="7.954771">
        <ele>796.972626</ele>
        <time>2021-11-21T10:58:18.291Z</time>
      </trkpt>
      <trkpt lat="47.611609" lon="7.954585">
        <ele>797.220732</ele>
        <time>2021-11-21T10:58:21.259Z</time>
      </trkpt>
      <trkpt lat="47.611583" lon="7.954201">
        <ele>797.799998</ele>
        <time>2021-11-21T10:58:27.382Z</time>
      </trkpt>
      <trkpt lat="47.611379" lon="7.953732">
        <ele>798.637753</ele>
        <time>2021-11-21T10:58:36.455Z</time>
      </trkpt>
      <trkpt lat="47.611213" lon="7.953569">
        <ele>799.080982</ele>
        <time>2021-11-21T10:58:41.344Z</time>
      </trkpt>
      <trkpt lat="47.610867" lon="7.953623">
        <ele>799.855579</ele>
        <time>2021-11-21T10:58:50.700Z</time>
      </trkpt>
      <trkpt lat="47.610622" lon="7.953678">
        <ele>800.407265</ele>
        <time>2021-11-21T10:58:56.747Z</time>
      </trkpt>
      <trkpt lat="47.610534" lon="7.953698">
        <ele>800.605478</ele>
        <time>2021-11-21T10:58:58.556Z</time>
      </trkpt>
      <trkpt lat="47.610442" lon="7.953689">
        <ele>800.810754</ele>
        <time>2021-11-21T10:59:01.367Z</time>
      </trkpt>
      <trkpt lat="47.610173" lon="7.953576">
        <ele>801.304462</ele>
        <time>2021-11-21T10:59:07.300Z</time>
      </trkpt>
      <trkpt lat="47.609991" lon="7.953325">
        <ele>801.696192</ele>
        <time>2021-11-21T10:59:13.253Z</time>
      </trkpt>
      <trkpt lat="47.609848" lon="7.952864">
        <ele>802.235467</ele>
        <time>2021-11-21T10:59:21.124Z</time>
      </trkpt>
      <trkpt lat="47.609390" lon="7.951204">
        <ele>803.735304</ele>
        <time>2021-11-21T10:59:45.209Z</time>
      </trkpt>
      <trkpt lat="47.609119" lon="7.950532">
        <ele>803.491081</ele>
        <time>2021-11-21T10:59:53.658Z</time>
      </trkpt>
      <trkpt lat="47.608916" lon="7.950126">
        <ele>803.333430</ele>
        <time>2021-11-21T10:59:58.155Z</time>
      </trkpt>
      <trkpt lat="47.608814" lon="7.949946">
        <ele>803.260093</ele>
        <time>2021-11-21T11:00:00.267Z</time>
      </trkpt>
      <trkpt lat="47.608598" lon="7.949608">
        <ele>803.114840</ele>
        <time>2021-11-21T11:00:04.009Z</time>
      </trkpt>
      <trkpt lat="47.608258" lon="7.949098">
        <ele>802.275291</ele>
        <time>2021-11-21T11:00:09.307Z</time>
      </trkpt>
      <trkpt lat="47.607428" lon="7.947861">
        <ele>798.515750</ele>
        <time>2021-11-21T11:00:21.205Z</time>
      </trkpt>
      <trkpt lat="47.607177" lon="7.947456">
        <ele>797.330679</ele>
        <time>2021-11-21T11:00:24.802Z</time>
      </trkpt>
      <trkpt lat="47.607053" lon="7.947037">
        <ele>796.265417</ele>
        <time>2021-11-21T11:00:27.775Z</time>
      </trkpt>
      <trkpt lat="47.607026" lon="7.946800">
        <ele>795.702056</ele>
        <time>2021-11-21T11:00:29.343Z</time>
      </trkpt>
      <trkpt lat="47.607053" lon="7.946387">
        <ele>794.729517</ele>
        <time>2021-11-21T11:00:32.067Z</time>
      </trkpt>
      <trkpt lat="47.607219" lon="7.945696">
        <ele>793.010196</ele>
        <time>2021-11-21T11:00:36.943Z</time>
      </trkpt>
      <trkpt lat="47.607532" lon="7.944721">
        <ele>790.304355</ele>
        <time>2021-11-21T11:00:44.578Z</time>
      </trkpt>
      <trkpt lat="47.607673" lon="7.944452">
        <ele>789.235439</ele>
        <time>2021-11-21T11:00:47.111Z</time>
      </trkpt>
      <trkpt lat="47.607934" lon="7.944298">
        <ele>787.928426</ele>
        <time>2021-11-21T11:00:50.283Z</time>
      </trkpt>
      <trkpt lat="47.608484" lon="7.944152">
        <ele>785.328582</ele>
        <time>2021-11-21T11:00:55.624Z</time>
      </trkpt>
      <trkpt lat="47.609294" lon="7.943637">
        <ele>779.478364</ele>
        <time>2021-11-21T11:01:03.582Z</time>
      </trkpt>
      <trkpt lat="47.609350" lon="7.943593">
        <ele>778.814583</ele>
        <time>2021-11-21T11:01:04.119Z</time>
      </trkpt>
      <trkpt lat="47.609814" lon="7.943160">
        <ele>773.072593</ele>
        <time>2021-11-21T11:01:08.812Z</time>
      </trkpt>
      <trkpt lat="47.610014" lon="7.942918">
        <ele>770.369091</ele>
        <time>2021-11-21T11:01:10.979Z</time>
      </trkpt>
      <trkpt lat="47.610065" lon="7.942722">
        <ele>768.885509</ele>
        <time>2021-11-21T11:01:12.172Z</time>
      </trkpt>
      <trkpt lat="47.610075" lon="7.942547">
        <ele>767.645301</ele>
        <time>2021-11-21T11:01:13.155Z</time>
      </trkpt>
      <trkpt lat="47.609950" lon="7.942351">
        <ele>765.740063</ele>
        <time>2021-11-21T11:01:14.746Z</time>
      </trkpt>
      <trkpt lat="47.609824" lon="7.942206">
        <ele>764.069657</ele>
        <time>2021-11-21T11:01:16.066Z</time>
      </trkpt>
      <trkpt lat="47.609660" lon="7.942072">
        <ele>762.497628</ele>
        <time>2021-11-21T11:01:17.690Z</time>
      </trkpt>
      <trkpt lat="47.609328" lon="7.941802">
        <ele>759.451419</ele>
        <time>2021-11-21T11:01:20.949Z</time>
      </trkpt>
      <trkpt lat="47.609231" lon="7.941717">
        <ele>758.545000</ele>
        <time>2021-11-21T11:01:21.901Z</time>
      </trkpt>
      <trkpt lat="47.608985" lon="7.941282">
        <ele>755.465347</ele>
        <time>2021-11-21T11:01:25.287Z</time>
      </trkpt>
      <trkpt lat="47.608976" lon="7.941180">
        <ele>754.907370</ele>
        <time>2021-11-21T11:01:25.874Z</time>
      </trkpt>
      <trkpt lat="47.608986" lon="7.941047">
        <ele>754.181491</ele>
        <time>2021-11-21T11:01:27.288Z</time>
      </trkpt>
      <trkpt lat="47.609156" lon="7.940638">
        <ele>751.575306</ele>
        <time>2021-11-21T11:01:30.162Z</time>
      </trkpt>
      <trkpt lat="47.609697" lon="7.940207">
        <ele>747.799554</ele>
        <time>2021-11-21T11:01:36.159Z</time>
      </trkpt>
      <trkpt lat="47.610427" lon="7.939448">
        <ele>743.743470</ele>
        <time>2021-11-21T11:01:45.194Z</time>
      </trkpt>
      <trkpt lat="47.610663" lon="7.939057">
        <ele>742.133697</ele>
        <time>2021-11-21T11:01:48.505Z</time>
      </trkpt>
      <trkpt lat="47.611668" lon="7.937036">
        <ele>731.952064</ele>
        <time>2021-11-21T11:02:03.792Z</time>
      </trkpt>
      <trkpt lat="47.612157" lon="7.936591">
        <ele>728.780879</ele>
        <time>2021-11-21T11:02:09.128Z</time>
      </trkpt>
      <trkpt lat="47.612760" lon="7.936192">
        <ele>725.742433</ele>
        <time>2021-11-21T11:02:15.539Z</time>
      </trkpt>
      <trkpt lat="47.613611" lon="7.935811">
        <ele>721.651822</ele>
        <time>2021-11-21T11:02:24.201Z</time>
      </trkpt>
      <trkpt lat="47.613843" lon="7.935758">
        <ele>720.068404</ele>
        <time>2021-11-21T11:02:26.453Z</time>
      </trkpt>
      <trkpt lat="47.614095" lon="7.935725">
        <ele>718.358465</ele>
        <time>2021-11-21T11:02:28.804Z</time>
      </trkpt>
      <trkpt lat="47.615166" lon="7.935713">
        <ele>711.119171</ele>
        <time>2021-11-21T11:02:38.422Z</time>
      </trkpt>
      <trkpt lat="47.615451" lon="7.935602">
        <ele>708.996262</ele>
        <time>2021-11-21T11:02:40.986Z</time>
      </trkpt>
      <trkpt lat="47.615705" lon="7.935396">
        <ele>706.326444</ele>
        <time>2021-11-21T11:02:43.491Z</time>
      </trkpt>
      <trkpt lat="47.616262" lon="7.934487">
        <ele>698.689262</ele>
        <time>2021-11-21T11:02:50.672Z</time>
      </trkpt>
      <trkpt lat="47.616672" lon="7.934051">
        <ele>694.036754</ele>
        <time>2021-11-21T11:02:55.045Z</time>
      </trkpt>
      <trkpt lat="47.616878" lon="7.934048">
        <ele>692.095997</ele>
        <time>2021-11-21T11:02:56.826Z</time>
      </trkpt>
      <trkpt lat="47.617409" lon="7.934240">
        <ele>686.785743</ele>
        <time>2021-11-21T11:03:01.577Z</time>
      </trkpt>
      <trkpt lat="47.617581" lon="7.934210">
        <ele>685.103074</ele>
        <time>2021-11-21T11:03:03.078Z</time>
      </trkpt>
      <trkpt lat="47.618969" lon="7.933585">
        <ele>670.273159</ele>
        <time>2021-11-21T11:03:15.568Z</time>
      </trkpt>
      <trkpt lat="47.619096" lon="7.933469">
        <ele>668.582304</ele>
        <time>2021-11-21T11:03:16.835Z</time>
      </trkpt>
      <trkpt lat="47.619255" lon="7.933163">
        <ele>665.629701</ele>
        <time>2021-11-21T11:03:19.067Z</time>
      </trkpt>
      <trkpt lat="47.619818" lon="7.932353">
        <ele>656.738264</ele>
        <time>2021-11-21T11:03:25.690Z</time>
      </trkpt>
      <trkpt lat="47.620106" lon="7.931975">
        <ele>652.696271</ele>
        <time>2021-11-21T11:03:28.923Z</time>
      </trkpt>
      <trkpt lat="47.620440" lon="7.931519">
        <ele>648.166158</ele>
        <time>2021-11-21T11:03:32.780Z</time>
      </trkpt>
      <trkpt lat="47.620523" lon="7.931338">
        <ele>646.693481</ele>
        <time>2021-11-21T11:03:34.021Z</time>
      </trkpt>
      <trkpt lat="47.620633" lon="7.930854">
        <ele>643.257446</ele>
        <time>2021-11-21T11:03:36.991Z</time>
      </trkpt>
      <trkpt lat="47.620770" lon="7.930392">
        <ele>639.862046</ele>
        <time>2021-11-21T11:03:39.961Z</time>
      </trkpt>
      <trkpt lat="47.621014" lon="7.929789">
        <ele>636.062873</ele>
        <time>2021-11-21T11:03:44.238Z</time>
      </trkpt>
      <trkpt lat="47.621153" lon="7.929574">
        <ele>635.016856</ele>
        <time>2021-11-21T11:03:46.085Z</time>
      </trkpt>
      <trkpt lat="47.621561" lon="7.929312">
        <ele>632.700973</ele>
        <time>2021-11-21T11:03:50.346Z</time>
      </trkpt>
      <trkpt lat="47.622199" lon="7.929159">
        <ele>629.334387</ele>
        <time>2021-11-21T11:03:56.620Z</time>
      </trkpt>
      <trkpt lat="47.622516" lon="7.929178">
        <ele>627.668500</ele>
        <time>2021-11-21T11:03:59.640Z</time>
      </trkpt>
      <trkpt lat="47.622878" lon="7.929322">
        <ele>624.836323</ele>
        <time>2021-11-21T11:04:03.138Z</time>
      </trkpt>
      <trkpt lat="47.622967" lon="7.929237">
        <ele>624.036472</ele>
        <time>2021-11-21T11:04:04.159Z</time>
      </trkpt>
      <trkpt lat="47.622989" lon="7.929175">
        <ele>623.679597</ele>
        <time>2021-11-21T11:04:04.667Z</time>
      </trkpt>
      <trkpt lat="47.622990" lon="7.929067">
        <ele>623.129465</ele>
        <time>2021-11-21T11:04:05.275Z</time>
      </trkpt>
      <trkpt lat="47.622913" lon="7.928884">
        <ele>622.030671</ele>
        <time>2021-11-21T11:04:06.646Z</time>
      </trkpt>
      <trkpt lat="47.621861" lon="7.928723">
        <ele>614.006783</ele>
        <time>2021-11-21T11:04:15.909Z</time>
      </trkpt>
      <trkpt lat="47.620672" lon="7.928903">
        <ele>601.384348</ele>
        <time>2021-11-21T11:04:26.086Z</time>
      </trkpt>
      <trkpt lat="47.620569" lon="7.928919">
        <ele>600.290601</ele>
        <time>2021-11-21T11:04:26.946Z</time>
      </trkpt>
      <trkpt lat="47.619928" lon="7.929124">
        <ele>593.632062</ele>
        <time>2021-11-21T11:04:32.638Z</time>
      </trkpt>
      <trkpt lat="47.619604" lon="7.929315">
        <ele>590.508562</ele>
        <time>2021-11-21T11:04:35.650Z</time>
      </trkpt>
      <trkpt lat="47.619329" lon="7.929527">
        <ele>587.732045</ele>
        <time>2021-11-21T11:04:38.299Z</time>
      </trkpt>
      <trkpt lat="47.618921" lon="7.930073">
        <ele>582.809339</ele>
        <time>2021-11-21T11:04:43.073Z</time>
      </trkpt>
      <trkpt lat="47.618761" lon="7.930033">
        <ele>581.355678</ele>
        <time>2021-11-21T11:04:44.521Z</time>
      </trkpt>
      <trkpt lat="47.618733" lon="7.929945">
        <ele>580.768019</ele>
        <time>2021-11-21T11:04:45.120Z</time>
      </trkpt>
      <trkpt lat="47.618734" lon="7.929873">
        <ele>580.333122</ele>
        <time>2021-11-21T11:04:45.534Z</time>
      </trkpt>
      <trkpt lat="47.618861" lon="7.929607">
        <ele>578.450900</ele>
        <time>2021-11-21T11:04:47.551Z</time>
      </trkpt>
      <trkpt lat="47.619053" lon="7.929381">
        <ele>576.549016</ele>
        <time>2021-11-21T11:04:49.840Z</time>
      </trkpt>
      <trkpt lat="47.619150" lon="7.929298">
        <ele>575.680086</ele>
        <time>2021-11-21T11:04:50.841Z</time>
      </trkpt>
      <trkpt lat="47.620384" lon="7.928242">
        <ele>564.423907</ele>
        <time>2021-11-21T11:05:03.480Z</time>
      </trkpt>
      <trkpt lat="47.620796" lon="7.927816">
        <ele>558.683310</ele>
        <time>2021-11-21T11:05:07.788Z</time>
      </trkpt>
      <trkpt lat="47.620873" lon="7.927631">
        <ele>557.008025</ele>
        <time>2021-11-21T11:05:09.035Z</time>
      </trkpt>
      <trkpt lat="47.620930" lon="7.927423">
        <ele>555.277998</ele>
        <time>2021-11-21T11:05:10.303Z</time>
      </trkpt>
      <trkpt lat="47.620993" lon="7.927078">
        <ele>552.523957</ele>
        <time>2021-11-21T11:05:12.347Z</time>
      </trkpt>
      <trkpt lat="47.621010" lon="7.926916">
        <ele>551.260716</ele>
        <time>2021-11-21T11:05:13.278Z</time>
      </trkpt>
      <trkpt lat="47.621008" lon="7.926716">
        <ele>549.719553</ele>
        <time>2021-11-21T11:05:14.418Z</time>
      </trkpt>
      <trkpt lat="47.621092" lon="7.926230">
        <ele>545.853791</ele>
        <time>2021-11-21T11:05:17.263Z</time>
      </trkpt>
      <trkpt lat="47.621290" lon="7.925709">
        <ele>541.198626</ele>
        <time>2021-11-21T11:05:20.648Z</time>
      </trkpt>
      <trkpt lat="47.621339" lon="7.925596">
        <ele>540.148437</ele>
        <time>2021-11-21T11:05:21.399Z</time>
      </trkpt>
      <trkpt lat="47.621723" lon="7.924936">
        <ele>533.333902</ele>
        <time>2021-11-21T11:05:26.340Z</time>
      </trkpt>
      <trkpt lat="47.623053" lon="7.924259">
        <ele>517.463457</ele>
        <time>2021-11-21T11:05:38.443Z</time>
      </trkpt>
      <trkpt lat="47.623206" lon="7.923969">
        <ele>514.774452</ele>
        <time>2021-11-21T11:05:40.608Z</time>
      </trkpt>
      <trkpt lat="47.623246" lon="7.923768">
        <ele>513.244212</ele>
        <time>2021-11-21T11:05:41.804Z</time>
      </trkpt>
      <trkpt lat="47.623227" lon="7.922954">
        <ele>507.297211</ele>
        <time>2021-11-21T11:05:46.474Z</time>
      </trkpt>
      <trkpt lat="47.623251" lon="7.922713">
        <ele>505.518441</ele>
        <time>2021-11-21T11:05:47.851Z</time>
      </trkpt>
      <trkpt lat="47.623298" lon="7.922501">
        <ele>503.877607</ele>
        <time>2021-11-21T11:05:49.134Z</time>
      </trkpt>
      <trkpt lat="47.623564" lon="7.921962">
        <ele>498.788069</ele>
        <time>2021-11-21T11:05:52.942Z</time>
      </trkpt>
      <trkpt lat="47.623626" lon="7.921633">
        <ele>496.185419</ele>
        <time>2021-11-21T11:05:54.901Z</time>
      </trkpt>
      <trkpt lat="47.623611" lon="7.921528">
        <ele>495.367695</ele>
        <time>2021-11-21T11:05:55.504Z</time>
      </trkpt>
      <trkpt lat="47.623588" lon="7.921368">
        <ele>494.121303</ele>
        <time>2021-11-21T11:05:56.438Z</time>
      </trkpt>
      <trkpt lat="47.623561" lon="7.920975">
        <ele>491.111679</ele>
        <time>2021-11-21T11:05:58.693Z</time>
      </trkpt>
      <trkpt lat="47.623430" lon="7.919875">
        <ele>482.760702</ele>
        <time>2021-11-21T11:06:05.160Z</time>
      </trkpt>
      <trkpt lat="47.623255" lon="7.919315">
        <ele>478.673513</ele>
        <time>2021-11-21T11:06:08.734Z</time>
      </trkpt>
      <trkpt lat="47.623010" lon="7.918947">
        <ele>475.248496</ele>
        <time>2021-11-21T11:06:11.717Z</time>
      </trkpt>
      <trkpt lat="47.622446" lon="7.918652">
        <ele>469.373463</ele>
        <time>2021-11-21T11:06:16.938Z</time>
      </trkpt>
      <trkpt lat="47.622366" lon="7.918470">
        <ele>467.934708</ele>
        <time>2021-11-21T11:06:18.192Z</time>
      </trkpt>
      <trkpt lat="47.622381" lon="7.918164">
        <ele>465.898910</ele>
        <time>2021-11-21T11:06:20.002Z</time>
      </trkpt>
      <trkpt lat="47.622424" lon="7.918069">
        <ele>465.128078</ele>
        <time>2021-11-21T11:06:20.659Z</time>
      </trkpt>
      <trkpt lat="47.622587" lon="7.917873">
        <ele>463.031227</ele>
        <time>2021-11-21T11:06:22.473Z</time>
      </trkpt>
      <trkpt lat="47.622656" lon="7.917625">
        <ele>461.223961</ele>
        <time>2021-11-21T11:06:24.035Z</time>
      </trkpt>
      <trkpt lat="47.622677" lon="7.917170">
        <ele>458.151893</ele>
        <time>2021-11-21T11:06:26.691Z</time>
      </trkpt>
      <trkpt lat="47.622647" lon="7.916647">
        <ele>454.616217</ele>
        <time>2021-11-21T11:06:29.727Z</time>
      </trkpt>
      <trkpt lat="47.622576" lon="7.916379">
        <ele>452.676516</ele>
        <time>2021-11-21T11:06:31.383Z</time>
      </trkpt>
      <trkpt lat="47.622393" lon="7.916077">
        <ele>449.940978</ele>
        <time>2021-11-21T11:06:33.718Z</time>
      </trkpt>
      <trkpt lat="47.621809" lon="7.915582">
        <ele>443.277437</ele>
        <time>2021-11-21T11:06:39.531Z</time>
      </trkpt>
      <trkpt lat="47.621530" lon="7.915222">
        <ele>439.625563</ele>
        <time>2021-11-21T11:06:42.737Z</time>
      </trkpt>
      <trkpt lat="47.621037" lon="7.914355">
        <ele>432.074425</ele>
        <time>2021-11-21T11:06:49.367Z</time>
      </trkpt>
      <trkpt lat="47.620869" lon="7.913635">
        <ele>427.047173</ele>
        <time>2021-11-21T11:06:53.730Z</time>
      </trkpt>
      <trkpt lat="47.620841" lon="7.913331">
        <ele>425.031538</ele>
        <time>2021-11-21T11:06:55.509Z</time>
      </trkpt>
      <trkpt lat="47.620822" lon="7.912670">
        <ele>420.685264</ele>
        <time>2021-11-21T11:06:59.337Z</time>
      </trkpt>
      <trkpt lat="47.620858" lon="7.912289">
        <ele>418.157876</ele>
        <time>2021-11-21T11:07:01.597Z</time>
      </trkpt>
      <trkpt lat="47.620910" lon="7.911951">
        <ele>415.880340</ele>
        <time>2021-11-21T11:07:03.612Z</time>
      </trkpt>
      <trkpt lat="47.620953" lon="7.911653">
        <ele>413.878326</ele>
        <time>2021-11-21T11:07:05.402Z</time>
      </trkpt>
      <trkpt lat="47.620946" lon="7.911321">
        <ele>412.041031</ele>
        <time>2021-11-21T11:07:07.373Z</time>
      </trkpt>
      <trkpt lat="47.620846" lon="7.911023">
        <ele>410.491863</ele>
        <time>2021-11-21T11:07:09.344Z</time>
      </trkpt>
      <trkpt lat="47.620625" lon="7.910808">
        <ele>408.667223</ele>
        <time>2021-11-21T11:07:11.674Z</time>
      </trkpt>
      <trkpt lat="47.620181" lon="7.910694">
        <ele>405.556153</ele>
        <time>2021-11-21T11:07:15.681Z</time>
      </trkpt>
      <trkpt lat="47.620162" lon="7.910587">
        <ele>405.041209</ele>
        <time>2021-11-21T11:07:16.348Z</time>
      </trkpt>
      <trkpt lat="47.620245" lon="7.910440">
        <ele>404.148801</ele>
        <time>2021-11-21T11:07:17.520Z</time>
      </trkpt>
      <trkpt lat="47.620712" lon="7.910483">
        <ele>400.918297</ele>
        <time>2021-11-21T11:07:21.974Z</time>
      </trkpt>
      <trkpt lat="47.621308" lon="7.910162">
        <ele>397.667001</ele>
        <time>2021-11-21T11:07:28.029Z</time>
      </trkpt>
      <trkpt lat="47.621461" lon="7.910146">
        <ele>396.912346</ele>
        <time>2021-11-21T11:07:29.440Z</time>
      </trkpt>
      <trkpt lat="47.622368" lon="7.910396">
        <ele>392.373380</ele>
        <time>2021-11-21T11:07:38.139Z</time>
      </trkpt>
      <trkpt lat="47.622666" lon="7.910254">
        <ele>390.839708</ele>
        <time>2021-11-21T11:07:41.153Z</time>
      </trkpt>
      <trkpt lat="47.622755" lon="7.910176">
        <ele>390.335247</ele>
        <time>2021-11-21T11:07:42.105Z</time>
      </trkpt>
      <trkpt lat="47.622850" lon="7.910055">
        <ele>389.724217</ele>
        <time>2021-11-21T11:07:43.318Z</time>
      </trkpt>
      <trkpt lat="47.623414" lon="7.909173">
        <ele>385.725114</ele>
        <time>2021-11-21T11:07:51.162Z</time>
      </trkpt>
      <trkpt lat="47.623851" lon="7.909030">
        <ele>383.541191</ele>
        <time>2021-11-21T11:07:55.334Z</time>
      </trkpt>
      <trkpt lat="47.624367" lon="7.909092">
        <ele>380.028775</ele>
        <time>2021-11-21T11:08:00.252Z</time>
      </trkpt>
      <trkpt lat="47.624823" lon="7.909229">
        <ele>376.526871</ele>
        <time>2021-11-21T11:08:04.465Z</time>
      </trkpt>
      <trkpt lat="47.624962" lon="7.909272">
        <ele>375.458140</ele>
        <time>2021-11-21T11:08:05.695Z</time>
      </trkpt>
      <trkpt lat="47.625366" lon="7.909623">
        <ele>371.934321</ele>
        <time>2021-11-21T11:08:09.814Z</time>
      </trkpt>
      <trkpt lat="47.625586" lon="7.909712">
        <ele>370.217967</ele>
        <time>2021-11-21T11:08:11.801Z</time>
      </trkpt>
      <trkpt lat="47.625630" lon="7.909700">
        <ele>369.881237</ele>
        <time>2021-11-21T11:08:12.173Z</time>
      </trkpt>
      <trkpt lat="47.625660" lon="7.909693">
        <ele>369.652656</ele>
        <time>2021-11-21T11:08:12.429Z</time>
      </trkpt>
      <trkpt lat="47.625738" lon="7.909657">
        <ele>368.990379</ele>
        <time>2021-11-21T11:08:13.176Z</time>
      </trkpt>
      <trkpt lat="47.625820" lon="7.909530">
        <ele>367.933444</ele>
        <time>2021-11-21T11:08:14.212Z</time>
      </trkpt>
      <trkpt lat="47.625875" lon="7.909372">
        <ele>366.864758</ele>
        <time>2021-11-21T11:08:15.218Z</time>
      </trkpt>
      <trkpt lat="47.626074" lon="7.908682">
        <ele>362.354446</ele>
        <time>2021-11-21T11:08:19.587Z</time>
      </trkpt>
      <trkpt lat="47.626373" lon="7.908242">
        <ele>358.599469</ele>
        <time>2021-11-21T11:08:23.219Z</time>
      </trkpt>
      <trkpt lat="47.626436" lon="7.907974">
        <ele>356.893759</ele>
        <time>2021-11-21T11:08:24.846Z</time>
      </trkpt>
      <trkpt lat="47.626446" lon="7.907798">
        <ele>355.832332</ele>
        <time>2021-11-21T11:08:25.927Z</time>
      </trkpt>
      <trkpt lat="47.626442" lon="7.907543">
        <ele>354.299490</ele>
        <time>2021-11-21T11:08:27.416Z</time>
      </trkpt>
      <trkpt lat="47.626436" lon="7.907187">
        <ele>352.952348</ele>
        <time>2021-11-21T11:08:29.647Z</time>
      </trkpt>
      <trkpt lat="47.626436" lon="7.907061">
        <ele>352.742312</ele>
        <time>2021-11-21T11:08:30.471Z</time>
      </trkpt>
      <trkpt lat="47.626436" lon="7.906623">
        <ele>352.012187</ele>
        <time>2021-11-21T11:08:33.336Z</time>
      </trkpt>
      <trkpt lat="47.626439" lon="7.906299">
        <ele>351.472043</ele>
        <time>2021-11-21T11:08:35.490Z</time>
      </trkpt>
      <trkpt lat="47.626443" lon="7.905945">
        <ele>350.881858</ele>
        <time>2021-11-21T11:08:38.042Z</time>
      </trkpt>
      <trkpt lat="47.626460" lon="7.905124">
        <ele>349.512645</ele>
        <time>2021-11-21T11:08:44.948Z</time>
      </trkpt>
      <trkpt lat="47.626440" lon="7.905007">
        <ele>349.311435</ele>
        <time>2021-11-21T11:08:46.745Z</time>
      </trkpt>
      <trkpt lat="47.626399" lon="7.904961">
        <ele>349.184300</ele>
        <time>2021-11-21T11:08:47.545Z</time>
      </trkpt>
      <trkpt lat="47.626221" lon="7.904920">
        <ele>348.834679</ele>
        <time>2021-11-21T11:08:50.577Z</time>
      </trkpt>
      <trkpt lat="47.626086" lon="7.904879">
        <ele>348.965895</ele>
        <time>2021-11-21T11:08:53.764Z</time>
      </trkpt>
      <trkpt lat="47.625742" lon="7.904774">
        <ele>349.300322</ele>
        <time>2021-11-21T11:09:01.388Z</time>
      </trkpt>
      <trkpt lat="47.625516" lon="7.904701">
        <ele>349.520566</ele>
        <time>2021-11-21T11:09:06.021Z</time>
      </trkpt>
      <trkpt lat="47.625088" lon="7.904563">
        <ele>349.937632</ele>
        <time>2021-11-21T11:09:15.344Z</time>
      </trkpt>
      <trkpt lat="47.624956" lon="7.904522">
        <ele>350.066051</ele>
        <time>2021-11-21T11:09:18.099Z</time>
      </trkpt>
      <trkpt lat="47.624761" lon="7.904481">
        <ele>350.253591</ele>
        <time>2021-11-21T11:09:21.270Z</time>
      </trkpt>
      <trkpt lat="47.624565" lon="7.904455">
        <ele>350.440973</ele>
        <time>2021-11-21T11:09:24.330Z</time>
      </trkpt>
      <trkpt lat="47.624472" lon="7.904367">
        <ele>350.504430</ele>
        <time>2021-11-21T11:09:26.016Z</time>
      </trkpt>
      <trkpt lat="47.624451" lon="7.904332">
        <ele>350.485017</ele>
        <time>2021-11-21T11:09:26.537Z</time>
      </trkpt>
      <trkpt lat="47.624399" lon="7.904386">
        <ele>350.446004</ele>
        <time>2021-11-21T11:09:27.455Z</time>
      </trkpt>
      <trkpt lat="47.624263" lon="7.904484">
        <ele>350.353074</ele>
        <time>2021-11-21T11:09:29.677Z</time>
      </trkpt>
      <trkpt lat="47.624120" lon="7.904530">
        <ele>350.263137</ele>
        <time>2021-11-21T11:09:31.849Z</time>
      </trkpt>
      <trkpt lat="47.623650" lon="7.904642">
        <ele>349.970547</ele>
        <time>2021-11-21T11:09:38.127Z</time>
      </trkpt>
      <trkpt lat="47.622648" lon="7.904863">
        <ele>349.226118</ele>
        <time>2021-11-21T11:09:50.537Z</time>
      </trkpt>
      <trkpt lat="47.622424" lon="7.904919">
        <ele>348.833849</ele>
        <time>2021-11-21T11:09:53.144Z</time>
      </trkpt>
      <trkpt lat="47.622235" lon="7.904957">
        <ele>348.504490</ele>
        <time>2021-11-21T11:09:55.306Z</time>
      </trkpt>
      <trkpt lat="47.621248" lon="7.905159">
        <ele>346.783942</ele>
        <time>2021-11-21T11:10:06.431Z</time>
      </trkpt>
      <trkpt lat="47.621107" lon="7.905191">
        <ele>346.537623</ele>
        <time>2021-11-21T11:10:08.002Z</time>
      </trkpt>
      <trkpt lat="47.620699" lon="7.905223">
        <ele>345.549368</ele>
        <time>2021-11-21T11:10:12.432Z</time>
      </trkpt>
      <trkpt lat="47.620426" lon="7.905244">
        <ele>344.797583</ele>
        <time>2021-11-21T11:10:15.393Z</time>
      </trkpt>
      <trkpt lat="47.619634" lon="7.905289">
        <ele>342.617908</ele>
        <time>2021-11-21T11:10:23.569Z</time>
      </trkpt>
      <trkpt lat="47.619564" lon="7.905293">
        <ele>342.425258</ele>
        <time>2021-11-21T11:10:24.361Z</time>
      </trkpt>
      <trkpt lat="47.619447" lon="7.905300">
        <ele>342.103235</ele>
        <time>2021-11-21T11:10:25.540Z</time>
      </trkpt>
      <trkpt lat="47.619299" lon="7.905308">
        <ele>341.695950</ele>
        <time>2021-11-21T11:10:26.944Z</time>
      </trkpt>
      <trkpt lat="47.619155" lon="7.905319">
        <ele>341.284231</ele>
        <time>2021-11-21T11:10:28.525Z</time>
      </trkpt>
      <trkpt lat="47.618976" lon="7.905535">
        <ele>340.497603</ele>
        <time>2021-11-21T11:10:30.771Z</time>
      </trkpt>
      <trkpt lat="47.618920" lon="7.906208">
        <ele>338.939308</ele>
        <time>2021-11-21T11:10:35.465Z</time>
      </trkpt>
      <trkpt lat="47.618888" lon="7.906392">
        <ele>338.502628</ele>
        <time>2021-11-21T11:10:36.720Z</time>
      </trkpt>
      <trkpt lat="47.618867" lon="7.906514">
        <ele>338.213274</ele>
        <time>2021-11-21T11:10:37.505Z</time>
      </trkpt>
      <trkpt lat="47.618719" lon="7.906838">
        <ele>337.313860</ele>
        <time>2021-11-21T11:10:40.212Z</time>
      </trkpt>
      <trkpt lat="47.618579" lon="7.906988">
        <ele>336.725112</ele>
        <time>2021-11-21T11:10:41.870Z</time>
      </trkpt>
      <trkpt lat="47.618470" lon="7.907083">
        <ele>336.294126</ele>
        <time>2021-11-21T11:10:43.170Z</time>
      </trkpt>
      <trkpt lat="47.617957" lon="7.907285">
        <ele>334.737104</ele>
        <time>2021-11-21T11:10:48.478Z</time>
      </trkpt>
      <trkpt lat="47.617238" lon="7.908130">
        <ele>332.667973</ele>
        <time>2021-11-21T11:10:58.298Z</time>
      </trkpt>
      <trkpt lat="47.617086" lon="7.908230">
        <ele>332.292898</ele>
        <time>2021-11-21T11:11:00.187Z</time>
      </trkpt>
      <trkpt lat="47.616832" lon="7.908284">
        <ele>331.714089</ele>
        <time>2021-11-21T11:11:03.065Z</time>
      </trkpt>
      <trkpt lat="47.616604" lon="7.908203">
        <ele>331.185240</ele>
        <time>2021-11-21T11:11:05.691Z</time>
      </trkpt>
      <trkpt lat="47.616124" lon="7.907729">
        <ele>331.023869</ele>
        <time>2021-11-21T11:11:12.511Z</time>
      </trkpt>
      <trkpt lat="47.616009" lon="7.907686">
        <ele>330.992803</ele>
        <time>2021-11-21T11:11:14.075Z</time>
      </trkpt>
      <trkpt lat="47.615946" lon="7.907692">
        <ele>330.976267</ele>
        <time>2021-11-21T11:11:14.842Z</time>
      </trkpt>
      <trkpt lat="47.615821" lon="7.907747">
        <ele>330.942114</ele>
        <time>2021-11-21T11:11:16.920Z</time>
      </trkpt>
      <trkpt lat="47.615669" lon="7.907870">
        <ele>330.896761</ele>
        <time>2021-11-21T11:11:19.600Z</time>
      </trkpt>
      <trkpt lat="47.615460" lon="7.908111">
        <ele>330.827421</ele>
        <time>2021-11-21T11:11:23.971Z</time>
      </trkpt>
      <trkpt lat="47.615374" lon="7.908222">
        <ele>330.797561</ele>
        <time>2021-11-21T11:11:25.889Z</time>
      </trkpt>
      <trkpt lat="47.615246" lon="7.908385">
        <ele>330.753373</ele>
        <time>2021-11-21T11:11:28.913Z</time>
      </trkpt>
      <trkpt lat="47.615085" lon="7.908567">
        <ele>330.710576</ele>
        <time>2021-11-21T11:11:32.324Z</time>
      </trkpt>
      <trkpt lat="47.614876" lon="7.908760">
        <ele>330.965878</ele>
        <time>2021-11-21T11:11:36.642Z</time>
      </trkpt>
      <trkpt lat="47.614784" lon="7.908839">
        <ele>331.076116</ele>
        <time>2021-11-21T11:11:38.446Z</time>
      </trkpt>
      <trkpt lat="47.614412" lon="7.909095">
        <ele>331.501380</ele>
        <time>2021-11-21T11:11:45.717Z</time>
      </trkpt>
      <trkpt lat="47.614063" lon="7.909285">
        <ele>331.886906</ele>
        <time>2021-11-21T11:11:52.796Z</time>
      </trkpt>
      <trkpt lat="47.613934" lon="7.909339">
        <ele>332.025907</ele>
        <time>2021-11-21T11:11:55.373Z</time>
      </trkpt>
      <trkpt lat="47.613360" lon="7.909602">
        <ele>332.645276</ele>
        <time>2021-11-21T11:12:08.178Z</time>
      </trkpt>
      <trkpt lat="47.613280" lon="7.909624">
        <ele>332.725879</ele>
        <time>2021-11-21T11:12:09.866Z</time>
      </trkpt>
      <trkpt lat="47.612897" lon="7.909812">
        <ele>333.125537</ele>
        <time>2021-11-21T11:12:18.422Z</time>
      </trkpt>
      <trkpt lat="47.612216" lon="7.910134">
        <ele>333.833624</ele>
        <time>2021-11-21T11:12:31.433Z</time>
      </trkpt>
      <trkpt lat="47.612131" lon="7.910214">
        <ele>333.933350</ele>
        <time>2021-11-21T11:12:33.325Z</time>
      </trkpt>
      <trkpt lat="47.612082" lon="7.910269">
        <ele>333.994223</ele>
        <time>2021-11-21T11:12:34.405Z</time>
      </trkpt>
      <trkpt lat="47.612020" lon="7.910364">
        <ele>334.082529</ele>
        <time>2021-11-21T11:12:35.963Z</time>
      </trkpt>
      <trkpt lat="47.611986" lon="7.910466">
        <ele>334.158523</ele>
        <time>2021-11-21T11:12:37.234Z</time>
      </trkpt>
      <trkpt lat="47.611981" lon="7.910534">
        <ele>334.204206</ele>
        <time>2021-11-21T11:12:37.860Z</time>
      </trkpt>
      <trkpt lat="47.611988" lon="7.910610">
        <ele>334.255434</ele>
        <time>2021-11-21T11:12:38.819Z</time>
      </trkpt>
      <trkpt lat="47.611994" lon="7.910676">
        <ele>334.299912</ele>
        <time>2021-11-21T11:12:39.746Z</time>
      </trkpt>
      <trkpt lat="47.612005" lon="7.910790">
        <ele>334.343196</ele>
        <time>2021-11-21T11:12:41.010Z</time>
      </trkpt>
      <trkpt lat="47.612029" lon="7.910940">
        <ele>334.319422</ele>
        <time>2021-11-21T11:12:42.898Z</time>
      </trkpt>
      <trkpt lat="47.611260" lon="7.911383">
        <ele>334.130714</ele>
        <time>2021-11-21T11:12:56.003Z</time>
      </trkpt>
      <trkpt lat="47.610416" lon="7.911983">
        <ele>333.813437</ele>
        <time>2021-11-21T11:13:07.905Z</time>
      </trkpt>
      <trkpt lat="47.609914" lon="7.912278">
        <ele>333.095576</ele>
        <time>2021-11-21T11:13:14.117Z</time>
      </trkpt>
      <trkpt lat="47.608679" lon="7.912703">
        <ele>331.407003</ele>
        <time>2021-11-21T11:13:28.839Z</time>
      </trkpt>
      <trkpt lat="47.608143" lon="7.912964">
        <ele>330.640144</ele>
        <time>2021-11-21T11:13:35.412Z</time>
      </trkpt>
      <trkpt lat="47.607663" lon="7.913198">
        <ele>329.953328</ele>
        <time>2021-11-21T11:13:41.187Z</time>
      </trkpt>
      <trkpt lat="47.607292" lon="7.913435">
        <ele>329.404232</ele>
        <time>2021-11-21T11:13:45.886Z</time>
      </trkpt>
      <trkpt lat="47.606938" lon="7.913697">
        <ele>328.896424</ele>
        <time>2021-11-21T11:13:50.659Z</time>
      </trkpt>
      <trkpt lat="47.606706" lon="7.913869">
        <ele>328.588745</ele>
        <time>2021-11-21T11:13:53.844Z</time>
      </trkpt>
      <trkpt lat="47.606558" lon="7.913988">
        <ele>328.389040</ele>
        <time>2021-11-21T11:13:55.932Z</time>
      </trkpt>
      <trkpt lat="47.606450" lon="7.914067">
        <ele>328.246191</ele>
        <time>2021-11-21T11:13:57.430Z</time>
      </trkpt>
      <trkpt lat="47.606200" lon="7.914255">
        <ele>327.913685</ele>
        <time>2021-11-21T11:14:00.843Z</time>
      </trkpt>
      <trkpt lat="47.605929" lon="7.914457">
        <ele>327.553895</ele>
        <time>2021-11-21T11:14:04.526Z</time>
      </trkpt>
      <trkpt lat="47.605648" lon="7.914613">
        <ele>327.197970</ele>
        <time>2021-11-21T11:14:08.090Z</time>
      </trkpt>
      <trkpt lat="47.605408" lon="7.914750">
        <ele>326.781014</ele>
        <time>2021-11-21T11:14:11.041Z</time>
      </trkpt>
      <trkpt lat="47.605105" lon="7.914869">
        <ele>325.856761</ele>
        <time>2021-11-21T11:14:14.611Z</time>
      </trkpt>
      <trkpt lat="47.604722" lon="7.914915">
        <ele>324.723707</ele>
        <time>2021-11-21T11:14:18.783Z</time>
      </trkpt>
      <trkpt lat="47.604393" lon="7.914885">
        <ele>323.751749</ele>
        <time>2021-11-21T11:14:22.201Z</time>
      </trkpt>
      <trkpt lat="47.604062" lon="7.914772">
        <ele>322.750202</ele>
        <time>2021-11-21T11:14:25.590Z</time>
      </trkpt>
      <trkpt lat="47.603884" lon="7.914671">
        <ele>322.188230</ele>
        <time>2021-11-21T11:14:27.379Z</time>
      </trkpt>
      <trkpt lat="47.603615" lon="7.914449">
        <ele>321.070194</ele>
        <time>2021-11-21T11:14:30.326Z</time>
      </trkpt>
      <trkpt lat="47.603373" lon="7.914188">
        <ele>319.704727</ele>
        <time>2021-11-21T11:14:33.170Z</time>
      </trkpt>
      <trkpt lat="47.603038" lon="7.913754">
        <ele>317.674876</ele>
        <time>2021-11-21T11:14:37.361Z</time>
      </trkpt>
      <trkpt lat="47.602861" lon="7.913538">
        <ele>316.628868</ele>
        <time>2021-11-21T11:14:39.566Z</time>
      </trkpt>
      <trkpt lat="47.602742" lon="7.913448">
        <ele>316.019291</ele>
        <time>2021-11-21T11:14:40.802Z</time>
      </trkpt>
      <trkpt lat="47.602118" lon="7.913280">
        <ele>313.224076</ele>
        <time>2021-11-21T11:14:46.857Z</time>
      </trkpt>
      <trkpt lat="47.600086" lon="7.913316">
        <ele>307.020746</ele>
        <time>2021-11-21T11:15:07.670Z</time>
      </trkpt>
      <trkpt lat="47.599361" lon="7.913211">
        <ele>305.409925</ele>
        <time>2021-11-21T11:15:15.519Z</time>
      </trkpt>
      <trkpt lat="47.598263" lon="7.912768">
        <ele>303.164767</ele>
        <time>2021-11-21T11:15:28.155Z</time>
      </trkpt>
      <trkpt lat="47.597324" lon="7.912182">
        <ele>301.650771</ele>
        <time>2021-11-21T11:15:39.963Z</time>
      </trkpt>
      <trkpt lat="47.596928" lon="7.912047">
        <ele>301.047090</ele>
        <time>2021-11-21T11:15:44.789Z</time>
      </trkpt>
      <trkpt lat="47.596657" lon="7.912027">
        <ele>300.805779</ele>
        <time>2021-11-21T11:15:48.059Z</time>
      </trkpt>
      <trkpt lat="47.596383" lon="7.912050">
        <ele>300.561708</ele>
        <time>2021-11-21T11:15:51.388Z</time>
      </trkpt>
      <trkpt lat="47.595919" lon="7.912182">
        <ele>300.141526</ele>
        <time>2021-11-21T11:15:57.207Z</time>
      </trkpt>
      <trkpt lat="47.595049" lon="7.912419">
        <ele>299.456284</ele>
        <time>2021-11-21T11:16:08.494Z</time>
      </trkpt>
      <trkpt lat="47.594246" lon="7.912426">
        <ele>299.522052</ele>
        <time>2021-11-21T11:16:19.617Z</time>
      </trkpt>
      <trkpt lat="47.593192" lon="7.912179">
        <ele>299.696964</ele>
        <time>2021-11-21T11:16:37.503Z</time>
      </trkpt>
      <trkpt lat="47.592198" lon="7.912030">
        <ele>300.275889</ele>
        <time>2021-11-21T11:16:56.421Z</time>
      </trkpt>
      <trkpt lat="47.591524" lon="7.911777">
        <ele>300.528525</ele>
        <time>2021-11-21T11:17:07.718Z</time>
      </trkpt>
      <trkpt lat="47.591361" lon="7.911643">
        <ele>300.245306</ele>
        <time>2021-11-21T11:17:11.080Z</time>
      </trkpt>
      <trkpt lat="47.591227" lon="7.911486">
        <ele>299.985780</ele>
        <time>2021-11-21T11:17:13.054Z</time>
      </trkpt>
      <trkpt lat="47.590486" lon="7.910371">
        <ele>298.381489</ele>
        <time>2021-11-21T11:17:24.795Z</time>
      </trkpt>
      <trkpt lat="47.590199" lon="7.910097">
        <ele>297.848562</ele>
        <time>2021-11-21T11:17:28.385Z</time>
      </trkpt>
      <trkpt lat="47.589984" lon="7.909953">
        <ele>297.366631</ele>
        <time>2021-11-21T11:17:30.803Z</time>
      </trkpt>
      <trkpt lat="47.589846" lon="7.909880">
        <ele>297.067322</ele>
        <time>2021-11-21T11:17:32.357Z</time>
      </trkpt>
      <trkpt lat="47.589453" lon="7.909790">
        <ele>296.254982</ele>
        <time>2021-11-21T11:17:36.562Z</time>
      </trkpt>
      <trkpt lat="47.589186" lon="7.909798">
        <ele>295.709444</ele>
        <time>2021-11-21T11:17:39.471Z</time>
      </trkpt>
      <trkpt lat="47.589186" lon="7.909798">
        <ele>295.709444</ele>
        <time>2021-11-21T11:17:39.474Z</time>
      </trkpt>
      <trkpt lat="47.588985" lon="7.909827">
        <ele>295.296902</ele>
        <time>2021-11-21T11:17:41.672Z</time>
      </trkpt>
      <trkpt lat="47.587926" lon="7.910125">
        <ele>293.679366</ele>
        <time>2021-11-21T11:17:54.323Z</time>
      </trkpt>
      <trkpt lat="47.587479" lon="7.910228">
        <ele>293.231157</ele>
        <time>2021-11-21T11:18:00.328Z</time>
      </trkpt>
      <trkpt lat="47.587167" lon="7.910236">
        <ele>292.921977</ele>
        <time>2021-11-21T11:18:04.442Z</time>
      </trkpt>
      <trkpt lat="47.586813" lon="7.910134">
        <ele>292.564668</ele>
        <time>2021-11-21T11:18:08.875Z</time>
      </trkpt>
      <trkpt lat="47.586540" lon="7.909941">
        <ele>292.207599</ele>
        <time>2021-11-21T11:18:12.485Z</time>
      </trkpt>
      <trkpt lat="47.586265" lon="7.909589">
        <ele>291.734515</ele>
        <time>2021-11-21T11:18:16.660Z</time>
      </trkpt>
      <trkpt lat="47.586062" lon="7.909215">
        <ele>291.312885</ele>
        <time>2021-11-21T11:18:20.613Z</time>
      </trkpt>
      <trkpt lat="47.585956" lon="7.908983">
        <ele>291.066773</ele>
        <time>2021-11-21T11:18:22.752Z</time>
      </trkpt>
      <trkpt lat="47.585899" lon="7.908777">
        <ele>290.871213</ele>
        <time>2021-11-21T11:18:24.696Z</time>
      </trkpt>
      <trkpt lat="47.585750" lon="7.908439">
        <ele>290.516570</ele>
        <time>2021-11-21T11:18:27.756Z</time>
      </trkpt>
      <trkpt lat="47.585760" lon="7.908367">
        <ele>290.452007</ele>
        <time>2021-11-21T11:18:28.415Z</time>
      </trkpt>
      <trkpt lat="47.585751" lon="7.908295">
        <ele>290.387693</ele>
        <time>2021-11-21T11:18:29.246Z</time>
      </trkpt>
      <trkpt lat="47.585729" lon="7.908244">
        <ele>290.334523</ele>
        <time>2021-11-21T11:18:29.693Z</time>
      </trkpt>
      <trkpt lat="47.585696" lon="7.908207">
        <ele>290.280647</ele>
        <time>2021-11-21T11:18:30.179Z</time>
      </trkpt>
      <trkpt lat="47.585658" lon="7.908188">
        <ele>290.228427</ele>
        <time>2021-11-21T11:18:30.625Z</time>
      </trkpt>
      <trkpt lat="47.585629" lon="7.908186">
        <ele>290.190623</ele>
        <time>2021-11-21T11:18:30.926Z</time>
      </trkpt>
      <trkpt lat="47.585601" lon="7.908195">
        <ele>290.153316</ele>
        <time>2021-11-21T11:18:31.263Z</time>
      </trkpt>
      <trkpt lat="47.585575" lon="7.908213">
        <ele>290.115950</ele>
        <time>2021-11-21T11:18:31.567Z</time>
      </trkpt>
      <trkpt lat="47.585551" lon="7.908241">
        <ele>290.063572</ele>
        <time>2021-11-21T11:18:31.922Z</time>
      </trkpt>
      <trkpt lat="47.585532" lon="7.908279">
        <ele>290.004185</ele>
        <time>2021-11-21T11:18:32.306Z</time>
      </trkpt>
      <trkpt lat="47.585521" lon="7.908321">
        <ele>289.947618</ele>
        <time>2021-11-21T11:18:32.692Z</time>
      </trkpt>
      <trkpt lat="47.585517" lon="7.908375">
        <ele>289.879414</ele>
        <time>2021-11-21T11:18:33.243Z</time>
      </trkpt>
      <trkpt lat="47.585525" lon="7.908428">
        <ele>289.811227</ele>
        <time>2021-11-21T11:18:33.704Z</time>
      </trkpt>
      <trkpt lat="47.585502" lon="7.908551">
        <ele>289.650977</ele>
        <time>2021-11-21T11:18:35.046Z</time>
      </trkpt>
      <trkpt lat="47.585467" lon="7.908664">
        <ele>289.494863</ele>
        <time>2021-11-21T11:18:36.332Z</time>
      </trkpt>
      <trkpt lat="47.585435" lon="7.908792">
        <ele>289.323476</ele>
        <time>2021-11-21T11:18:37.792Z</time>
      </trkpt>
      <trkpt lat="47.585427" lon="7.908874">
        <ele>289.219454</ele>
        <time>2021-11-21T11:18:38.780Z</time>
      </trkpt>
      <trkpt lat="47.585419" lon="7.908887">
        <ele>289.197360</ele>
        <time>2021-11-21T11:18:39.065Z</time>
      </trkpt>
      <trkpt lat="47.585337" lon="7.909031">
        <ele>288.960753</ele>
        <time>2021-11-21T11:18:41.037Z</time>
      </trkpt>
      <trkpt lat="47.585222" lon="7.908901">
        <ele>288.691568</ele>
        <time>2021-11-21T11:18:42.548Z</time>
      </trkpt>
      <trkpt lat="47.585149" lon="7.908804">
        <ele>288.509098</ele>
        <time>2021-11-21T11:18:43.741Z</time>
      </trkpt>
      <trkpt lat="47.585084" lon="7.908692">
        <ele>288.323594</ele>
        <time>2021-11-21T11:18:44.808Z</time>
      </trkpt>
      <trkpt lat="47.584719" lon="7.908091">
        <ele>287.308233</ele>
        <time>2021-11-21T11:18:50.722Z</time>
      </trkpt>
      <trkpt lat="47.583887" lon="7.907113">
        <ele>285.678599</ele>
        <time>2021-11-21T11:19:02.572Z</time>
      </trkpt>
      <trkpt lat="47.583711" lon="7.906911">
        <ele>285.365063</ele>
        <time>2021-11-21T11:19:05.033Z</time>
      </trkpt>
      <trkpt lat="47.583451" lon="7.906619">
        <ele>284.905586</ele>
        <time>2021-11-21T11:19:08.803Z</time>
      </trkpt>
      <trkpt lat="47.583245" lon="7.906443">
        <ele>284.570663</ele>
        <time>2021-11-21T11:19:11.690Z</time>
      </trkpt>
      <trkpt lat="47.583077" lon="7.906399">
        <ele>284.330342</ele>
        <time>2021-11-21T11:19:13.699Z</time>
      </trkpt>
      <trkpt lat="47.582951" lon="7.906415">
        <ele>284.257420</ele>
        <time>2021-11-21T11:19:15.562Z</time>
      </trkpt>
      <trkpt lat="47.582657" lon="7.906618">
        <ele>284.471307</ele>
        <time>2021-11-21T11:19:20.255Z</time>
      </trkpt>
      <trkpt lat="47.582248" lon="7.907090">
        <ele>284.813125</ele>
        <time>2021-11-21T11:19:29.375Z</time>
      </trkpt>
      <trkpt lat="47.581793" lon="7.907472">
        <ele>285.157967</ele>
        <time>2021-11-21T11:19:39.694Z</time>
      </trkpt>
      <trkpt lat="47.581568" lon="7.907612">
        <ele>285.318891</ele>
        <time>2021-11-21T11:19:44.891Z</time>
      </trkpt>
      <trkpt lat="47.580552" lon="7.908081">
        <ele>286.096404</ele>
        <time>2021-11-21T11:20:05.295Z</time>
      </trkpt>
      <trkpt lat="47.580470" lon="7.908164">
        <ele>286.170007</ele>
        <time>2021-11-21T11:20:06.890Z</time>
      </trkpt>
      <trkpt lat="47.580422" lon="7.908273">
        <ele>286.235098</ele>
        <time>2021-11-21T11:20:08.822Z</time>
      </trkpt>
      <trkpt lat="47.580194" lon="7.908192">
        <ele>286.408898</ele>
        <time>2021-11-21T11:20:12.756Z</time>
      </trkpt>
      <trkpt lat="47.580105" lon="7.908168">
        <ele>286.475956</ele>
        <time>2021-11-21T11:20:14.304Z</time>
      </trkpt>
      <trkpt lat="47.579708" lon="7.908314">
        <ele>286.722027</ele>
        <time>2021-11-21T11:20:20.713Z</time>
      </trkpt>
      <trkpt lat="47.579056" lon="7.908962">
        <ele>286.375166</ele>
        <time>2021-11-21T11:20:31.320Z</time>
      </trkpt>
      <trkpt lat="47.578895" lon="7.909087">
        <ele>286.294857</ele>
        <time>2021-11-21T11:20:33.519Z</time>
      </trkpt>
      <trkpt lat="47.577771" lon="7.909710">
        <ele>285.825872</ele>
        <time>2021-11-21T11:20:49.121Z</time>
      </trkpt>
      <trkpt lat="47.577424" lon="7.909886">
        <ele>285.717780</ele>
        <time>2021-11-21T11:20:54.050Z</time>
      </trkpt>
      <trkpt lat="47.576932" lon="7.910134">
        <ele>285.564620</ele>
        <time>2021-11-21T11:21:01.345Z</time>
      </trkpt>
      <trkpt lat="47.575854" lon="7.910743">
        <ele>285.622186</ele>
        <time>2021-11-21T11:21:18.579Z</time>
      </trkpt>
      <trkpt lat="47.575539" lon="7.910898">
        <ele>285.724976</ele>
        <time>2021-11-21T11:21:23.970Z</time>
      </trkpt>
      <trkpt lat="47.575508" lon="7.910912">
        <ele>285.735012</ele>
        <time>2021-11-21T11:21:24.440Z</time>
      </trkpt>
      <trkpt lat="47.574901" lon="7.911251">
        <ele>285.935899</ele>
        <time>2021-11-21T11:21:35.307Z</time>
      </trkpt>
      <trkpt lat="47.574566" lon="7.911447">
        <ele>286.139067</ele>
        <time>2021-11-21T11:21:41.496Z</time>
      </trkpt>
      <trkpt lat="47.573998" lon="7.911915">
        <ele>286.596721</ele>
        <time>2021-11-21T11:21:52.914Z</time>
      </trkpt>
      <trkpt lat="47.573759" lon="7.912034">
        <ele>286.774277</ele>
        <time>2021-11-21T11:21:57.605Z</time>
      </trkpt>
      <trkpt lat="47.572921" lon="7.912369">
        <ele>287.307028</ele>
        <time>2021-11-21T11:22:13.099Z</time>
      </trkpt>
      <trkpt lat="47.572843" lon="7.912399">
        <ele>287.332700</ele>
        <time>2021-11-21T11:22:14.704Z</time>
      </trkpt>
      <trkpt lat="47.572195" lon="7.912650">
        <ele>287.546069</ele>
        <time>2021-11-21T11:22:25.684Z</time>
      </trkpt>
      <trkpt lat="47.571842" lon="7.912780">
        <ele>287.661945</ele>
        <time>2021-11-21T11:22:31.319Z</time>
      </trkpt>
      <trkpt lat="47.571815" lon="7.912822">
        <ele>287.674414</ele>
        <time>2021-11-21T11:22:32.063Z</time>
      </trkpt>
      <trkpt lat="47.571801" lon="7.912878">
        <ele>287.687250</ele>
        <time>2021-11-21T11:22:32.683Z</time>
      </trkpt>
      <trkpt lat="47.571807" lon="7.913030">
        <ele>287.719976</ele>
        <time>2021-11-21T11:22:34.199Z</time>
      </trkpt>
      <trkpt lat="47.571638" lon="7.913041">
        <ele>287.773867</ele>
        <time>2021-11-21T11:22:36.582Z</time>
      </trkpt>
      <trkpt lat="47.569682" lon="7.913220">
        <ele>287.574637</ele>
        <time>2021-11-21T11:23:04.245Z</time>
      </trkpt>
      <trkpt lat="47.569155" lon="7.913298">
        <ele>287.733935</ele>
        <time>2021-11-21T11:23:12.415Z</time>
      </trkpt>
      <trkpt lat="47.568566" lon="7.913414">
        <ele>287.912649</ele>
        <time>2021-11-21T11:23:22.156Z</time>
      </trkpt>
      <trkpt lat="47.568301" lon="7.913554">
        <ele>287.997267</ele>
        <time>2021-11-21T11:23:26.933Z</time>
      </trkpt>
      <trkpt lat="47.567374" lon="7.914028">
        <ele>288.336322</ele>
        <time>2021-11-21T11:23:43.425Z</time>
      </trkpt>
      <trkpt lat="47.567335" lon="7.914048">
        <ele>288.351678</ele>
        <time>2021-11-21T11:23:44.281Z</time>
      </trkpt>
      <trkpt lat="47.566984" lon="7.914229">
        <ele>288.489963</ele>
        <time>2021-11-21T11:23:50.507Z</time>
      </trkpt>
      <trkpt lat="47.566601" lon="7.914411">
        <ele>288.639622</ele>
        <time>2021-11-21T11:23:56.971Z</time>
      </trkpt>
      <trkpt lat="47.566534" lon="7.914439">
        <ele>288.665525</ele>
        <time>2021-11-21T11:23:58.030Z</time>
      </trkpt>
      <trkpt lat="47.566489" lon="7.914461">
        <ele>288.683157</ele>
        <time>2021-11-21T11:23:58.739Z</time>
      </trkpt>
      <trkpt lat="47.566474" lon="7.914468">
        <ele>288.689008</ele>
        <time>2021-11-21T11:23:58.987Z</time>
      </trkpt>
      <trkpt lat="47.566250" lon="7.914580">
        <ele>288.774816</ele>
        <time>2021-11-21T11:24:02.683Z</time>
      </trkpt>
      <trkpt lat="47.566096" lon="7.914676">
        <ele>288.748095</ele>
        <time>2021-11-21T11:24:05.121Z</time>
      </trkpt>
      <trkpt lat="47.566025" lon="7.914720">
        <ele>288.735787</ele>
        <time>2021-11-21T11:24:06.224Z</time>
      </trkpt>
      <trkpt lat="47.565995" lon="7.914739">
        <ele>288.730569</ele>
        <time>2021-11-21T11:24:06.775Z</time>
      </trkpt>
      <trkpt lat="47.565830" lon="7.914880">
        <ele>288.700106</ele>
        <time>2021-11-21T11:24:09.511Z</time>
      </trkpt>
      <trkpt lat="47.565748" lon="7.914949">
        <ele>288.685024</ele>
        <time>2021-11-21T11:24:10.814Z</time>
      </trkpt>
      <trkpt lat="47.565672" lon="7.915025">
        <ele>288.670361</ele>
        <time>2021-11-21T11:24:12.088Z</time>
      </trkpt>
      <trkpt lat="47.565627" lon="7.915066">
        <ele>288.661912</ele>
        <time>2021-11-21T11:24:12.836Z</time>
      </trkpt>
      <trkpt lat="47.564899" lon="7.915798">
        <ele>288.521206</ele>
        <time>2021-11-21T11:24:25.128Z</time>
      </trkpt>
      <trkpt lat="47.564526" lon="7.916174">
        <ele>288.512592</ele>
        <time>2021-11-21T11:24:31.376Z</time>
      </trkpt>
      <trkpt lat="47.564500" lon="7.916200">
        <ele>288.515805</ele>
        <time>2021-11-21T11:24:31.813Z</time>
      </trkpt>
      <trkpt lat="47.564482" lon="7.916219">
        <ele>288.518068</ele>
        <time>2021-11-21T11:24:32.131Z</time>
      </trkpt>
      <trkpt lat="47.563485" lon="7.917258">
        <ele>288.642904</ele>
        <time>2021-11-21T11:24:49.892Z</time>
      </trkpt>
      <trkpt lat="47.563304" lon="7.917434">
        <ele>288.665077</ele>
        <time>2021-11-21T11:24:53.566Z</time>
      </trkpt>
      <trkpt lat="47.562783" lon="7.917983">
        <ele>289.396091</ele>
        <time>2021-11-21T11:25:05.754Z</time>
      </trkpt>
      <trkpt lat="47.562766" lon="7.918001">
        <ele>289.422559</ele>
        <time>2021-11-21T11:25:06.283Z</time>
      </trkpt>
      <trkpt lat="47.562491" lon="7.918206">
        <ele>289.812525</ele>
        <time>2021-11-21T11:25:12.599Z</time>
      </trkpt>
      <trkpt lat="47.562330" lon="7.918325">
        <ele>290.040444</ele>
        <time>2021-11-21T11:25:16.423Z</time>
      </trkpt>
      <trkpt lat="47.562192" lon="7.918413">
        <ele>290.230762</ele>
        <time>2021-11-21T11:25:19.511Z</time>
      </trkpt>
      <trkpt lat="47.562098" lon="7.918473">
        <ele>290.360419</ele>
        <time>2021-11-21T11:25:21.711Z</time>
      </trkpt>
      <trkpt lat="47.561792" lon="7.918633">
        <ele>290.771487</ele>
        <time>2021-11-21T11:25:28.423Z</time>
      </trkpt>
      <trkpt lat="47.561405" lon="7.918835">
        <ele>291.173318</ele>
        <time>2021-11-21T11:25:37.145Z</time>
      </trkpt>
      <trkpt lat="47.561244" lon="7.918902">
        <ele>291.311824</ele>
        <time>2021-11-21T11:25:40.665Z</time>
      </trkpt>
      <trkpt lat="47.558098" lon="7.920440">
        <ele>293.371132</ele>
        <time>2021-11-21T11:26:37.157Z</time>
      </trkpt>
      <trkpt lat="47.557147" lon="7.921064">
        <ele>293.529111</ele>
        <time>2021-11-21T11:26:52.803Z</time>
      </trkpt>
      <trkpt lat="47.556542" lon="7.921551">
        <ele>293.631705</ele>
        <time>2021-11-21T11:27:03.062Z</time>
      </trkpt>
      <trkpt lat="47.555272" lon="7.922934">
        <ele>293.832766</ele>
        <time>2021-11-21T11:27:27.104Z</time>
      </trkpt>
      <trkpt lat="47.554705" lon="7.923835">
        <ele>293.960896</ele>
        <time>2021-11-21T11:27:40.256Z</time>
      </trkpt>
      <trkpt lat="47.554226" lon="7.924713">
        <ele>294.082450</ele>
        <time>2021-11-21T11:27:52.069Z</time>
      </trkpt>
      <trkpt lat="47.553834" lon="7.925632">
        <ele>294.097440</ele>
        <time>2021-11-21T11:28:03.465Z</time>
      </trkpt>
      <trkpt lat="47.553539" lon="7.926451">
        <ele>294.032356</ele>
        <time>2021-11-21T11:28:12.834Z</time>
      </trkpt>
      <trkpt lat="47.553408" lon="7.926803">
        <ele>294.004174</ele>
        <time>2021-11-21T11:28:16.637Z</time>
      </trkpt>
      <trkpt lat="47.553381" lon="7.926895">
        <ele>293.997141</ele>
        <time>2021-11-21T11:28:17.574Z</time>
      </trkpt>
      <trkpt lat="47.553248" lon="7.927068">
        <ele>293.978756</ele>
        <time>2021-11-21T11:28:19.974Z</time>
      </trkpt>
      <trkpt lat="47.553139" lon="7.927147">
        <ele>293.966151</ele>
        <time>2021-11-21T11:28:21.641Z</time>
      </trkpt>
      <trkpt lat="47.553077" lon="7.927196">
        <ele>293.958852</ele>
        <time>2021-11-21T11:28:22.564Z</time>
      </trkpt>
      <trkpt lat="47.552729" lon="7.927061">
        <ele>293.856393</ele>
        <time>2021-11-21T11:28:27.318Z</time>
      </trkpt>
      <trkpt lat="47.552388" lon="7.926860">
        <ele>293.733761</ele>
        <time>2021-11-21T11:28:32.232Z</time>
      </trkpt>
      <trkpt lat="47.552250" lon="7.926787">
        <ele>293.684798</ele>
        <time>2021-11-21T11:28:34.241Z</time>
      </trkpt>
      <trkpt lat="47.551788" lon="7.926512">
        <ele>293.518427</ele>
        <time>2021-11-21T11:28:41.296Z</time>
      </trkpt>
      <trkpt lat="47.551676" lon="7.926477">
        <ele>293.480179</ele>
        <time>2021-11-21T11:28:42.775Z</time>
      </trkpt>
      <trkpt lat="47.551455" lon="7.926550">
        <ele>293.404519</ele>
        <time>2021-11-21T11:28:46.070Z</time>
      </trkpt>
      <trkpt lat="47.551423" lon="7.926561">
        <ele>293.393542</ele>
        <time>2021-11-21T11:28:46.527Z</time>
      </trkpt>
      <trkpt lat="47.551345" lon="7.926636">
        <ele>293.362470</ele>
        <time>2021-11-21T11:28:47.714Z</time>
      </trkpt>
      <trkpt lat="47.551300" lon="7.926708">
        <ele>293.329136</ele>
        <time>2021-11-21T11:28:48.653Z</time>
      </trkpt>
      <trkpt lat="47.551262" lon="7.926787">
        <ele>293.281422</ele>
        <time>2021-11-21T11:28:49.589Z</time>
      </trkpt>
      <trkpt lat="47.551236" lon="7.926890">
        <ele>293.227335</ele>
        <time>2021-11-21T11:28:50.665Z</time>
      </trkpt>
      <trkpt lat="47.551209" lon="7.927048">
        <ele>293.147171</ele>
        <time>2021-11-21T11:28:52.086Z</time>
      </trkpt>
      <trkpt lat="47.551183" lon="7.927256">
        <ele>293.043127</ele>
        <time>2021-11-21T11:28:54.076Z</time>
      </trkpt>
      <trkpt lat="47.551129" lon="7.927498">
        <ele>292.917764</ele>
        <time>2021-11-21T11:28:56.393Z</time>
      </trkpt>
      <trkpt lat="47.551096" lon="7.927696">
        <ele>292.817453</ele>
        <time>2021-11-21T11:28:58.144Z</time>
      </trkpt>
      <trkpt lat="47.551076" lon="7.927850">
        <ele>292.740319</ele>
        <time>2021-11-21T11:28:59.609Z</time>
      </trkpt>
      <trkpt lat="47.550669" lon="7.927757">
        <ele>292.440216</ele>
        <time>2021-11-21T11:29:05.066Z</time>
      </trkpt>
      <trkpt lat="47.550481" lon="7.927724">
        <ele>292.302256</ele>
        <time>2021-11-21T11:29:07.503Z</time>
      </trkpt>
      <trkpt lat="47.550381" lon="7.927709">
        <ele>292.229010</ele>
        <time>2021-11-21T11:29:08.697Z</time>
      </trkpt>
      <trkpt lat="47.550258" lon="7.927688">
        <ele>292.138782</ele>
        <time>2021-11-21T11:29:10.090Z</time>
      </trkpt>
      <trkpt lat="47.550041" lon="7.927651">
        <ele>291.875244</ele>
        <time>2021-11-21T11:29:12.667Z</time>
      </trkpt>
      <trkpt lat="47.549697" lon="7.927581">
        <ele>291.178303</ele>
        <time>2021-11-21T11:29:16.579Z</time>
      </trkpt>
      <trkpt lat="47.549059" lon="7.927444">
        <ele>289.884361</ele>
        <time>2021-11-21T11:29:23.455Z</time>
      </trkpt>
      <trkpt lat="47.548912" lon="7.927437">
        <ele>289.589157</ele>
        <time>2021-11-21T11:29:25.015Z</time>
      </trkpt>
      <trkpt lat="47.548777" lon="7.927430">
        <ele>289.318026</ele>
        <time>2021-11-21T11:29:26.400Z</time>
      </trkpt>
      <trkpt lat="47.548534" lon="7.927518">
        <ele>288.815930</ele>
        <time>2021-11-21T11:29:29.078Z</time>
      </trkpt>
      <trkpt lat="47.548298" lon="7.927820">
        <ele>288.274539</ele>
        <time>2021-11-21T11:29:32.703Z</time>
      </trkpt>
      <trkpt lat="47.548275" lon="7.927880">
        <ele>288.214130</ele>
        <time>2021-11-21T11:29:33.134Z</time>
      </trkpt>
      <trkpt lat="47.548228" lon="7.928033">
        <ele>288.066961</ele>
        <time>2021-11-21T11:29:34.456Z</time>
      </trkpt>
      <trkpt lat="47.548186" lon="7.928343">
        <ele>287.790146</ele>
        <time>2021-11-21T11:29:37.036Z</time>
      </trkpt>
      <trkpt lat="47.548189" lon="7.928620">
        <ele>287.547605</ele>
        <time>2021-11-21T11:29:39.097Z</time>
      </trkpt>
      <trkpt lat="47.548192" lon="7.928866">
        <ele>287.332201</ele>
        <time>2021-11-21T11:29:41.079Z</time>
      </trkpt>
      <trkpt lat="47.548226" lon="7.929841">
        <ele>286.477464</ele>
        <time>2021-11-21T11:29:49.045Z</time>
      </trkpt>
      <trkpt lat="47.548236" lon="7.930144">
        <ele>286.211875</ele>
        <time>2021-11-21T11:29:51.498Z</time>
      </trkpt>
      <trkpt lat="47.548241" lon="7.930335">
        <ele>286.067541</ele>
        <time>2021-11-21T11:29:53.352Z</time>
      </trkpt>
      <trkpt lat="47.548252" lon="7.930989">
        <ele>285.751005</ele>
        <time>2021-11-21T11:29:59.352Z</time>
      </trkpt>
      <trkpt lat="47.548144" lon="7.932614">
        <ele>284.960947</ele>
        <time>2021-11-21T11:30:13.411Z</time>
      </trkpt>
      <trkpt lat="47.547956" lon="7.933604">
        <ele>284.519745</ele>
        <time>2021-11-21T11:30:21.967Z</time>
      </trkpt>
      <trkpt lat="47.547663" lon="7.934665">
        <ele>284.056216</ele>
        <time>2021-11-21T11:30:32.018Z</time>
      </trkpt>
      <trkpt lat="47.547539" lon="7.935068">
        <ele>283.877132</ele>
        <time>2021-11-21T11:30:36.026Z</time>
      </trkpt>
      <trkpt lat="47.547523" lon="7.935115">
        <ele>283.855847</ele>
        <time>2021-11-21T11:30:36.519Z</time>
      </trkpt>
      <trkpt lat="47.547020" lon="7.936617">
        <ele>283.552049</ele>
        <time>2021-11-21T11:30:52.163Z</time>
      </trkpt>
      <trkpt lat="47.546895" lon="7.937196">
        <ele>283.473088</ele>
        <time>2021-11-21T11:30:58.028Z</time>
      </trkpt>
      <trkpt lat="47.546890" lon="7.937602">
        <ele>283.420343</ele>
        <time>2021-11-21T11:31:02.064Z</time>
      </trkpt>
      <trkpt lat="47.546915" lon="7.937800">
        <ele>283.394178</ele>
        <time>2021-11-21T11:31:03.936Z</time>
      </trkpt>
      <trkpt lat="47.546969" lon="7.938023">
        <ele>283.411302</ele>
        <time>2021-11-21T11:31:06.294Z</time>
      </trkpt>
      <trkpt lat="47.547044" lon="7.938237">
        <ele>283.456509</ele>
        <time>2021-11-21T11:31:08.798Z</time>
      </trkpt>
      <trkpt lat="47.547115" lon="7.938377">
        <ele>283.489339</ele>
        <time>2021-11-21T11:31:10.601Z</time>
      </trkpt>
      <trkpt lat="47.547174" lon="7.938475">
        <ele>283.513959</ele>
        <time>2021-11-21T11:31:11.957Z</time>
      </trkpt>
      <trkpt lat="47.547474" lon="7.938844">
        <ele>283.622260</ele>
        <time>2021-11-21T11:31:17.958Z</time>
      </trkpt>
      <trkpt lat="47.548085" lon="7.939422">
        <ele>283.823614</ele>
        <time>2021-11-21T11:31:29.609Z</time>
      </trkpt>
      <trkpt lat="47.548129" lon="7.939460">
        <ele>283.837760</ele>
        <time>2021-11-21T11:31:30.491Z</time>
      </trkpt>
      <trkpt lat="47.548150" lon="7.939478">
        <ele>283.844499</ele>
        <time>2021-11-21T11:31:30.908Z</time>
      </trkpt>
      <trkpt lat="47.548194" lon="7.939601">
        <ele>283.870597</ele>
        <time>2021-11-21T11:31:32.634Z</time>
      </trkpt>
      <trkpt lat="47.548314" lon="7.939849">
        <ele>284.031772</ele>
        <time>2021-11-21T11:31:36.015Z</time>
      </trkpt>
      <trkpt lat="47.548349" lon="7.940187">
        <ele>284.243297</ele>
        <time>2021-11-21T11:31:40.203Z</time>
      </trkpt>
      <trkpt lat="47.548195" lon="7.940950">
        <ele>284.735922</ele>
        <time>2021-11-21T11:31:50.309Z</time>
      </trkpt>
      <trkpt lat="47.547925" lon="7.941888">
        <ele>285.366710</ele>
        <time>2021-11-21T11:32:03.668Z</time>
      </trkpt>
      <trkpt lat="47.547852" lon="7.942144">
        <ele>285.536741</ele>
        <time>2021-11-21T11:32:07.082Z</time>
      </trkpt>
      <trkpt lat="47.547772" lon="7.942416">
        <ele>285.675248</ele>
        <time>2021-11-21T11:32:10.911Z</time>
      </trkpt>
      <trkpt lat="47.547436" lon="7.943731">
        <ele>286.331636</ele>
        <time>2021-11-21T11:32:28.166Z</time>
      </trkpt>
      <trkpt lat="47.547380" lon="7.943952">
        <ele>286.441835</ele>
        <time>2021-11-21T11:32:30.989Z</time>
      </trkpt>
      <trkpt lat="47.547280" lon="7.944357">
        <ele>286.643153</ele>
        <time>2021-11-21T11:32:35.947Z</time>
      </trkpt>
      <trkpt lat="47.547254" lon="7.944465">
        <ele>286.696681</ele>
        <time>2021-11-21T11:32:37.174Z</time>
      </trkpt>
      <trkpt lat="47.547245" lon="7.944501">
        <ele>286.714602</ele>
        <time>2021-11-21T11:32:37.569Z</time>
      </trkpt>
      <trkpt lat="47.547186" lon="7.944630">
        <ele>286.789781</ele>
        <time>2021-11-21T11:32:39.156Z</time>
      </trkpt>
      <trkpt lat="47.547164" lon="7.944724">
        <ele>286.845339</ele>
        <time>2021-11-21T11:32:40.215Z</time>
      </trkpt>
      <trkpt lat="47.547155" lon="7.944757">
        <ele>286.865215</ele>
        <time>2021-11-21T11:32:40.631Z</time>
      </trkpt>
      <trkpt lat="47.547020" lon="7.945146">
        <ele>287.109475</ele>
        <time>2021-11-21T11:32:44.963Z</time>
      </trkpt>
      <trkpt lat="47.546975" lon="7.945238">
        <ele>287.172921</ele>
        <time>2021-11-21T11:32:46.074Z</time>
      </trkpt>
      <trkpt lat="47.546915" lon="7.945468">
        <ele>287.310619</ele>
        <time>2021-11-21T11:32:48.305Z</time>
      </trkpt>
      <trkpt lat="47.546868" lon="7.945669">
        <ele>287.429408</ele>
        <time>2021-11-21T11:32:50.535Z</time>
      </trkpt>
      <trkpt lat="47.546859" lon="7.945706">
        <ele>287.451371</ele>
        <time>2021-11-21T11:32:50.996Z</time>
      </trkpt>
      <trkpt lat="47.546795" lon="7.946005">
        <ele>287.626536</ele>
        <time>2021-11-21T11:32:54.286Z</time>
      </trkpt>
      <trkpt lat="47.546735" lon="7.946282">
        <ele>287.788992</ele>
        <time>2021-11-21T11:32:57.965Z</time>
      </trkpt>
      <trkpt lat="47.546664" lon="7.946504">
        <ele>287.926176</ele>
        <time>2021-11-21T11:33:01.000Z</time>
      </trkpt>
      <trkpt lat="47.546655" lon="7.946544">
        <ele>287.949721</ele>
        <time>2021-11-21T11:33:01.564Z</time>
      </trkpt>
      <trkpt lat="47.546592" lon="7.946809">
        <ele>288.106617</ele>
        <time>2021-11-21T11:33:05.687Z</time>
      </trkpt>
      <trkpt lat="47.546633" lon="7.946946">
        <ele>288.190305</ele>
        <time>2021-11-21T11:33:07.868Z</time>
      </trkpt>
      <trkpt lat="47.546648" lon="7.947009">
        <ele>288.227611</ele>
        <time>2021-11-21T11:33:08.793Z</time>
      </trkpt>
      <trkpt lat="47.546651" lon="7.947115">
        <ele>288.363011</ele>
        <time>2021-11-21T11:33:10.516Z</time>
      </trkpt>
      <trkpt lat="47.546572" lon="7.947545">
        <ele>289.406035</ele>
        <time>2021-11-21T11:33:17.709Z</time>
      </trkpt>
      <trkpt lat="47.546159" lon="7.949303">
        <ele>293.762721</ele>
        <time>2021-11-21T11:33:55.916Z</time>
      </trkpt>
      <trkpt lat="47.545949" lon="7.950185">
        <ele>295.487280</ele>
        <time>2021-11-21T11:34:16.189Z</time>
      </trkpt>
      <trkpt lat="47.545884" lon="7.950363">
        <ele>295.809446</ele>
        <time>2021-11-21T11:34:20.121Z</time>
      </trkpt>
      <trkpt lat="47.545822" lon="7.950627">
        <ele>296.254418</ele>
        <time>2021-11-21T11:34:25.424Z</time>
      </trkpt>
      <trkpt lat="47.545810" lon="7.950694">
        <ele>296.364766</ele>
        <time>2021-11-21T11:34:26.655Z</time>
      </trkpt>
      <trkpt lat="47.545763" lon="7.950733">
        <ele>296.491812</ele>
        <time>2021-11-21T11:34:28.162Z</time>
      </trkpt>
      <trkpt lat="47.545659" lon="7.950771">
        <ele>296.744433</ele>
        <time>2021-11-21T11:34:30.584Z</time>
      </trkpt>
      <trkpt lat="47.545625" lon="7.950771">
        <ele>296.824617</ele>
        <time>2021-11-21T11:34:31.481Z</time>
      </trkpt>
      <trkpt lat="47.545567" lon="7.950765">
        <ele>296.961736</ele>
        <time>2021-11-21T11:34:32.894Z</time>
      </trkpt>
      <trkpt lat="47.545494" lon="7.950684">
        <ele>297.176832</ele>
        <time>2021-11-21T11:34:35.032Z</time>
      </trkpt>
      <trkpt lat="47.545434" lon="7.950668">
        <ele>297.320608</ele>
        <time>2021-11-21T11:34:36.511Z</time>
      </trkpt>
      <trkpt lat="47.545166" lon="7.950366">
        <ele>298.114717</ele>
        <time>2021-11-21T11:34:43.282Z</time>
      </trkpt>
      <trkpt lat="47.544901" lon="7.950044">
        <ele>298.766598</ele>
        <time>2021-11-21T11:34:48.918Z</time>
      </trkpt>
      <trkpt lat="47.544521" lon="7.949558">
        <ele>298.929989</ele>
        <time>2021-11-21T11:34:55.614Z</time>
      </trkpt>
      <trkpt lat="47.544239" lon="7.949202">
        <ele>299.050575</ele>
        <time>2021-11-21T11:35:00.577Z</time>
      </trkpt>
      <trkpt lat="47.543864" lon="7.948694">
        <ele>299.215960</ele>
        <time>2021-11-21T11:35:08.541Z</time>
      </trkpt>
      <trkpt lat="47.543760" lon="7.948548">
        <ele>299.262593</ele>
        <time>2021-11-21T11:35:10.783Z</time>
      </trkpt>
      <trkpt lat="47.543579" lon="7.948287">
        <ele>299.455081</ele>
        <time>2021-11-21T11:35:16.500Z</time>
      </trkpt>
      <trkpt lat="47.543532" lon="7.948214">
        <ele>299.614199</ele>
        <time>2021-11-21T11:35:17.626Z</time>
      </trkpt>
      <trkpt lat="47.543435" lon="7.948000">
        <ele>300.020778</ele>
        <time>2021-11-21T11:35:20.688Z</time>
      </trkpt>
      <trkpt lat="47.543407" lon="7.947938">
        <ele>300.138438</ele>
        <time>2021-11-21T11:35:22.546Z</time>
      </trkpt>
      <trkpt lat="47.543280" lon="7.947656">
        <ele>300.673142</ele>
        <time>2021-11-21T11:35:27.032Z</time>
      </trkpt>
      <trkpt lat="47.543142" lon="7.947250">
        <ele>301.390130</ele>
        <time>2021-11-21T11:35:34.496Z</time>
      </trkpt>
      <trkpt lat="47.543086" lon="7.947052">
        <ele>301.728742</ele>
        <time>2021-11-21T11:35:37.926Z</time>
      </trkpt>
      <trkpt lat="47.543056" lon="7.946935">
        <ele>301.926152</ele>
        <time>2021-11-21T11:35:40.767Z</time>
      </trkpt>
      <trkpt lat="47.543045" lon="7.946881">
        <ele>302.015120</ele>
        <time>2021-11-21T11:35:41.924Z</time>
      </trkpt>
      <trkpt lat="47.542982" lon="7.946547">
        <ele>302.562123</ele>
        <time>2021-11-21T11:35:47.323Z</time>
      </trkpt>
      <trkpt lat="47.542974" lon="7.946495">
        <ele>302.646246</ele>
        <time>2021-11-21T11:35:48.964Z</time>
      </trkpt>
      <trkpt lat="47.542960" lon="7.946400">
        <ele>302.799620</ele>
        <time>2021-11-21T11:35:51.030Z</time>
      </trkpt>
      <trkpt lat="47.542916" lon="7.945730">
        <ele>303.793090</ele>
        <time>2021-11-21T11:36:03.695Z</time>
      </trkpt>
      <trkpt lat="47.542913" lon="7.945267">
        <ele>304.372988</ele>
        <time>2021-11-21T11:36:12.191Z</time>
      </trkpt>
      <trkpt lat="47.543007" lon="7.943867">
        <ele>306.135028</ele>
        <time>2021-11-21T11:36:33.358Z</time>
      </trkpt>
      <trkpt lat="47.543161" lon="7.942213">
        <ele>306.481633</ele>
        <time>2021-11-21T11:36:51.764Z</time>
      </trkpt>
      <trkpt lat="47.543435" lon="7.940670">
        <ele>305.902495</ele>
        <time>2021-11-21T11:37:04.712Z</time>
      </trkpt>
      <trkpt lat="47.543826" lon="7.939433">
        <ele>304.337119</ele>
        <time>2021-11-21T11:37:15.113Z</time>
      </trkpt>
      <trkpt lat="47.544472" lon="7.937932">
        <ele>302.280751</ele>
        <time>2021-11-21T11:37:28.437Z</time>
      </trkpt>
      <trkpt lat="47.544705" lon="7.937395">
        <ele>301.528279</ele>
        <time>2021-11-21T11:37:33.277Z</time>
      </trkpt>
      <trkpt lat="47.544903" lon="7.936917">
        <ele>300.867215</ele>
        <time>2021-11-21T11:37:37.537Z</time>
      </trkpt>
      <trkpt lat="47.545074" lon="7.936484">
        <ele>300.275891</ele>
        <time>2021-11-21T11:37:41.368Z</time>
      </trkpt>
      <trkpt lat="47.545457" lon="7.935110">
        <ele>299.106305</ele>
        <time>2021-11-21T11:37:52.736Z</time>
      </trkpt>
      <trkpt lat="47.545674" lon="7.933625">
        <ele>298.182743</ele>
        <time>2021-11-21T11:38:05.816Z</time>
      </trkpt>
      <trkpt lat="47.545702" lon="7.933290">
        <ele>298.289629</ele>
        <time>2021-11-21T11:38:09.397Z</time>
      </trkpt>
      <trkpt lat="47.545724" lon="7.932758">
        <ele>298.746791</ele>
        <time>2021-11-21T11:38:15.663Z</time>
      </trkpt>
      <trkpt lat="47.545721" lon="7.931992">
        <ele>299.403814</ele>
        <time>2021-11-21T11:38:25.703Z</time>
      </trkpt>
      <trkpt lat="47.545696" lon="7.931497">
        <ele>299.829571</ele>
        <time>2021-11-21T11:38:32.908Z</time>
      </trkpt>
      <trkpt lat="47.545661" lon="7.930955">
        <ele>300.296577</ele>
        <time>2021-11-21T11:38:41.603Z</time>
      </trkpt>
      <trkpt lat="47.545563" lon="7.929641">
        <ele>301.500963</ele>
        <time>2021-11-21T11:39:03.943Z</time>
      </trkpt>
      <trkpt lat="47.545475" lon="7.928419">
        <ele>302.626624</ele>
        <time>2021-11-21T11:39:20.246Z</time>
      </trkpt>
      <trkpt lat="47.545421" lon="7.927686">
        <ele>302.025611</ele>
        <time>2021-11-21T11:39:26.349Z</time>
      </trkpt>
      <trkpt lat="47.545406" lon="7.927306">
        <ele>301.424946</ele>
        <time>2021-11-21T11:39:29.253Z</time>
      </trkpt>
      <trkpt lat="47.545407" lon="7.927001">
        <ele>300.943650</ele>
        <time>2021-11-21T11:39:31.540Z</time>
      </trkpt>
      <trkpt lat="47.545409" lon="7.926773">
        <ele>300.583835</ele>
        <time>2021-11-21T11:39:33.169Z</time>
      </trkpt>
      <trkpt lat="47.545417" lon="7.925848">
        <ele>299.124064</ele>
        <time>2021-11-21T11:39:39.504Z</time>
      </trkpt>
      <trkpt lat="47.545446" lon="7.925350">
        <ele>298.185279</ele>
        <time>2021-11-21T11:39:42.796Z</time>
      </trkpt>
      <trkpt lat="47.545466" lon="7.924880">
        <ele>297.061816</ele>
        <time>2021-11-21T11:39:45.849Z</time>
      </trkpt>
      <trkpt lat="47.545481" lon="7.924396">
        <ele>295.905964</ele>
        <time>2021-11-21T11:39:48.933Z</time>
      </trkpt>
      <trkpt lat="47.545521" lon="7.923709">
        <ele>294.260965</ele>
        <time>2021-11-21T11:39:53.458Z</time>
      </trkpt>
      <trkpt lat="47.545536" lon="7.923407">
        <ele>293.538563</ele>
        <time>2021-11-21T11:39:55.847Z</time>
      </trkpt>
      <trkpt lat="47.545553" lon="7.923142">
        <ele>292.903529</ele>
        <time>2021-11-21T11:39:57.568Z</time>
      </trkpt>
      <trkpt lat="47.545587" lon="7.922895">
        <ele>292.302157</ele>
        <time>2021-11-21T11:39:59.970Z</time>
      </trkpt>
      <trkpt lat="47.545641" lon="7.922610">
        <ele>292.031744</ele>
        <time>2021-11-21T11:40:01.968Z</time>
      </trkpt>
      <trkpt lat="47.545690" lon="7.922369">
        <ele>291.818552</ele>
        <time>2021-11-21T11:40:04.659Z</time>
      </trkpt>
      <trkpt lat="47.545699" lon="7.922325">
        <ele>291.779609</ele>
        <time>2021-11-21T11:40:04.920Z</time>
      </trkpt>
      <trkpt lat="47.545714" lon="7.922249">
        <ele>291.712540</ele>
        <time>2021-11-21T11:40:05.511Z</time>
      </trkpt>
      <trkpt lat="47.545778" lon="7.921947">
        <ele>291.444428</ele>
        <time>2021-11-21T11:40:08.666Z</time>
      </trkpt>
      <trkpt lat="47.545810" lon="7.921755">
        <ele>291.276916</ele>
        <time>2021-11-21T11:40:10.024Z</time>
      </trkpt>
      <trkpt lat="47.545881" lon="7.921096">
        <ele>290.711663</ele>
        <time>2021-11-21T11:40:15.372Z</time>
      </trkpt>
      <trkpt lat="47.545913" lon="7.920765">
        <ele>290.428438</ele>
        <time>2021-11-21T11:40:18.239Z</time>
      </trkpt>
      <trkpt lat="47.545973" lon="7.920313">
        <ele>290.038252</ele>
        <time>2021-11-21T11:40:23.387Z</time>
      </trkpt>
      <trkpt lat="47.546128" lon="7.919617">
        <ele>289.829846</ele>
        <time>2021-11-21T11:40:29.850Z</time>
      </trkpt>
      <trkpt lat="47.546262" lon="7.919081">
        <ele>289.680041</ele>
        <time>2021-11-21T11:40:35.849Z</time>
      </trkpt>
      <trkpt lat="47.546821" lon="7.916867">
        <ele>289.032620</ele>
        <time>2021-11-21T11:40:56.601Z</time>
      </trkpt>
      <trkpt lat="47.547032" lon="7.916218">
        <ele>288.823231</ele>
        <time>2021-11-21T11:41:03.092Z</time>
      </trkpt>
      <trkpt lat="47.547091" lon="7.916039">
        <ele>288.765329</ele>
        <time>2021-11-21T11:41:04.909Z</time>
      </trkpt>
      <trkpt lat="47.547113" lon="7.915971">
        <ele>288.743410</ele>
        <time>2021-11-21T11:41:05.508Z</time>
      </trkpt>
      <trkpt lat="47.547423" lon="7.915080">
        <ele>288.610599</ele>
        <time>2021-11-21T11:41:15.152Z</time>
      </trkpt>
      <trkpt lat="47.547994" lon="7.913433">
        <ele>289.024384</ele>
        <time>2021-11-21T11:41:34.872Z</time>
      </trkpt>
      <trkpt lat="47.548027" lon="7.913334">
        <ele>289.049060</ele>
        <time>2021-11-21T11:41:36.231Z</time>
      </trkpt>
      <trkpt lat="47.548412" lon="7.912168">
        <ele>289.801604</ele>
        <time>2021-11-21T11:41:52.634Z</time>
      </trkpt>
      <trkpt lat="47.549012" lon="7.910340">
        <ele>291.353734</ele>
        <time>2021-11-21T11:42:19.616Z</time>
      </trkpt>
      <trkpt lat="47.549102" lon="7.910058">
        <ele>291.649264</ele>
        <time>2021-11-21T11:42:23.784Z</time>
      </trkpt>
      <trkpt lat="47.549195" lon="7.909756">
        <ele>291.963753</ele>
        <time>2021-11-21T11:42:28.041Z</time>
      </trkpt>
      <trkpt lat="47.549250" lon="7.909572">
        <ele>292.154405</ele>
        <time>2021-11-21T11:42:30.708Z</time>
      </trkpt>
      <trkpt lat="47.549283" lon="7.909463">
        <ele>292.267585</ele>
        <time>2021-11-21T11:42:32.188Z</time>
      </trkpt>
      <trkpt lat="47.549520" lon="7.908678">
        <ele>293.082306</ele>
        <time>2021-11-21T11:42:43.356Z</time>
      </trkpt>
      <trkpt lat="47.549539" lon="7.908625">
        <ele>293.139162</ele>
        <time>2021-11-21T11:42:44.110Z</time>
      </trkpt>
      <trkpt lat="47.550497" lon="7.905558">
        <ele>298.409963</ele>
        <time>2021-11-21T11:43:38.931Z</time>
      </trkpt>
      <trkpt lat="47.550283" lon="7.905413">
        <ele>299.276800</ele>
        <time>2021-11-21T11:43:47.097Z</time>
      </trkpt>
      <trkpt lat="47.550067" lon="7.905245">
        <ele>300.175454</ele>
        <time>2021-11-21T11:43:55.783Z</time>
      </trkpt>
      <trkpt lat="47.549867" lon="7.905155">
        <ele>300.945427</ele>
        <time>2021-11-21T11:44:03.412Z</time>
      </trkpt>
      <trkpt lat="47.549868" lon="7.905010">
        <ele>301.305961</ele>
        <time>2021-11-21T11:44:06.817Z</time>
      </trkpt>
      <trkpt lat="47.550025" lon="7.904774">
        <ele>302.129840</ele>
        <time>2021-11-21T11:44:14.968Z</time>
      </trkpt>
      <trkpt lat="47.550302" lon="7.904164">
        <ele>303.957787</ele>
        <time>2021-11-21T11:44:33.267Z</time>
      </trkpt>
      <trkpt lat="47.550498" lon="7.903445">
        <ele>305.877130</ele>
        <time>2021-11-21T11:44:52.839Z</time>
      </trkpt>
      <trkpt lat="47.550688" lon="7.902451">
        <ele>308.429475</ele>
        <time>2021-11-21T11:45:15.388Z</time>
      </trkpt>
      <trkpt lat="47.550757" lon="7.901591">
        <ele>310.569133</ele>
        <time>2021-11-21T11:45:35.184Z</time>
      </trkpt>
      <trkpt lat="47.550769" lon="7.901362">
        <ele>311.141341</ele>
        <time>2021-11-21T11:45:41.092Z</time>
      </trkpt>
      <trkpt lat="47.550801" lon="7.900244">
        <ele>314.358075</ele>
        <time>2021-11-21T11:46:05.489Z</time>
      </trkpt>
      <trkpt lat="47.550819" lon="7.898109">
        <ele>319.863564</ele>
        <time>2021-11-21T11:46:52.529Z</time>
      </trkpt>
      <trkpt lat="47.550648" lon="7.896481">
        <ele>322.866305</ele>
        <time>2021-11-21T11:47:20.184Z</time>
      </trkpt>
      <trkpt lat="47.550639" lon="7.896345">
        <ele>323.115354</ele>
        <time>2021-11-21T11:47:22.560Z</time>
      </trkpt>
      <trkpt lat="47.550660" lon="7.896255">
        <ele>323.288904</ele>
        <time>2021-11-21T11:47:23.360Z</time>
      </trkpt>
      <trkpt lat="47.550838" lon="7.895509">
        <ele>324.143700</ele>
        <time>2021-11-21T11:47:33.528Z</time>
      </trkpt>
      <trkpt lat="47.550878" lon="7.895158">
        <ele>324.447963</ele>
        <time>2021-11-21T11:47:37.591Z</time>
      </trkpt>
      <trkpt lat="47.550908" lon="7.894308">
        <ele>325.175490</ele>
        <time>2021-11-21T11:47:48.063Z</time>
      </trkpt>
      <trkpt lat="47.550892" lon="7.893176">
        <ele>326.684847</ele>
        <time>2021-11-21T11:48:02.780Z</time>
      </trkpt>
      <trkpt lat="47.550904" lon="7.891725">
        <ele>330.719084</ele>
        <time>2021-11-21T11:48:32.542Z</time>
      </trkpt>
      <trkpt lat="47.550915" lon="7.890600">
        <ele>334.125184</ele>
        <time>2021-11-21T11:49:01.383Z</time>
      </trkpt>
      <trkpt lat="47.550833" lon="7.889069">
        <ele>340.612972</ele>
        <time>2021-11-21T11:49:44.016Z</time>
      </trkpt>
      <trkpt lat="47.550831" lon="7.888611">
        <ele>342.547759</ele>
        <time>2021-11-21T11:49:56.586Z</time>
      </trkpt>
      <trkpt lat="47.550789" lon="7.887816">
        <ele>345.791360</ele>
        <time>2021-11-21T11:50:17.198Z</time>
      </trkpt>
      <trkpt lat="47.550758" lon="7.887295">
        <ele>347.795758</ele>
        <time>2021-11-21T11:50:31.020Z</time>
      </trkpt>
      <trkpt lat="47.550677" lon="7.886476">
        <ele>350.967975</ele>
        <time>2021-11-21T11:50:52.508Z</time>
      </trkpt>
      <trkpt lat="47.550548" lon="7.885799">
        <ele>353.663897</ele>
        <time>2021-11-21T11:51:09.711Z</time>
      </trkpt>
      <trkpt lat="47.550391" lon="7.885109">
        <ele>356.052165</ele>
        <time>2021-11-21T11:51:27.349Z</time>
      </trkpt>
      <trkpt lat="47.550332" lon="7.884727">
        <ele>357.192747</ele>
        <time>2021-11-21T11:51:36.039Z</time>
      </trkpt>
      <trkpt lat="47.550234" lon="7.883221">
        <ele>361.596415</ele>
        <time>2021-11-21T11:52:08.871Z</time>
      </trkpt>
      <trkpt lat="47.549927" lon="7.881490">
        <ele>366.095091</ele>
        <time>2021-11-21T11:52:41.134Z</time>
      </trkpt>
      <trkpt lat="47.549726" lon="7.880786">
        <ele>367.949468</ele>
        <time>2021-11-21T11:52:57.111Z</time>
      </trkpt>
      <trkpt lat="47.549327" lon="7.879547">
        <ele>371.648204</ele>
        <time>2021-11-21T11:53:26.895Z</time>
      </trkpt>
      <trkpt lat="47.549318" lon="7.879398">
        <ele>372.069837</ele>
        <time>2021-11-21T11:53:30.083Z</time>
      </trkpt>
      <trkpt lat="47.549140" lon="7.879391">
        <ele>372.813395</ele>
        <time>2021-11-21T11:53:36.954Z</time>
      </trkpt>
      <trkpt lat="47.548718" lon="7.879258">
        <ele>374.615022</ele>
        <time>2021-11-21T11:53:50.624Z</time>
      </trkpt>
      <trkpt lat="47.548422" lon="7.878959">
        <ele>376.111022</ele>
        <time>2021-11-21T11:54:01.271Z</time>
      </trkpt>
      <trkpt lat="47.548234" lon="7.878638">
        <ele>376.683348</ele>
        <time>2021-11-21T11:54:09.703Z</time>
      </trkpt>
      <trkpt lat="47.547992" lon="7.877974">
        <ele>377.136698</ele>
        <time>2021-11-21T11:54:22.801Z</time>
      </trkpt>
      <trkpt lat="47.547574" lon="7.876801">
        <ele>377.933589</ele>
        <time>2021-11-21T11:54:36.564Z</time>
      </trkpt>
      <trkpt lat="47.547126" lon="7.875801">
        <ele>375.843586</ele>
        <time>2021-11-21T11:54:45.347Z</time>
      </trkpt>
      <trkpt lat="47.546309" lon="7.874154">
        <ele>370.181042</ele>
        <time>2021-11-21T11:54:58.535Z</time>
      </trkpt>
      <trkpt lat="47.546135" lon="7.873859">
        <ele>368.490967</ele>
        <time>2021-11-21T11:55:00.917Z</time>
      </trkpt>
      <trkpt lat="47.546077" lon="7.873763">
        <ele>367.935149</ele>
        <time>2021-11-21T11:55:01.728Z</time>
      </trkpt>
      <trkpt lat="47.545934" lon="7.873549">
        <ele>366.636063</ele>
        <time>2021-11-21T11:55:03.533Z</time>
      </trkpt>
      <trkpt lat="47.545746" lon="7.873302">
        <ele>365.030074</ele>
        <time>2021-11-21T11:55:05.821Z</time>
      </trkpt>
      <trkpt lat="47.545515" lon="7.873015">
        <ele>363.103235</ele>
        <time>2021-11-21T11:55:08.504Z</time>
      </trkpt>
      <trkpt lat="47.545478" lon="7.872968">
        <ele>362.791732</ele>
        <time>2021-11-21T11:55:08.942Z</time>
      </trkpt>
      <trkpt lat="47.545375" lon="7.872836">
        <ele>361.921302</ele>
        <time>2021-11-21T11:55:10.141Z</time>
      </trkpt>
      <trkpt lat="47.545131" lon="7.872664">
        <ele>360.194298</ele>
        <time>2021-11-21T11:55:12.609Z</time>
      </trkpt>
      <trkpt lat="47.544883" lon="7.872555">
        <ele>359.883857</ele>
        <time>2021-11-21T11:55:14.956Z</time>
      </trkpt>
      <trkpt lat="47.544390" lon="7.872423">
        <ele>359.883857</ele>
        <time>2021-11-21T11:55:19.587Z</time>
      </trkpt>
      <trkpt lat="47.544126" lon="7.872376">
        <ele>359.883857</ele>
        <time>2021-11-21T11:55:22.115Z</time>
      </trkpt>
    </trkseg>
  </trk>
</gpx>